     2              OBSERVATION DATA    GPS                 RINEX VERSION / TYPE
FIC2RX 9.60 97/08/04                                        PGM / RUN BY / DATE
                                                            COMMENT
Operator input collection int (sec) 30.0000                 COMMENT
Operator input collection int (sec) 30.0000                 COMMENT
Operator input collection int (sec) 30.0000                 COMMENT
Operator input collection int (sec) 30.0000                 COMMENT
Operator input collection int (sec) 30.0000                 COMMENT
Original Marker Name: KANE1959                              COMMENT
Campaign Name: STRC 1988 University                         COMMENT
4-Character Station Name: KANE                              COMMENT
6-Character Antenna Code: TI4100                            COMMENT
Vertical Measurement Point: PAE                             COMMENT
Vertical Offset to Rinex Ref. Point: 0.0000                 COMMENT
Radial Measurement Point: PAE                               COMMENT
Radial Offset to Rinex Ref. Point: 0.0842                   COMMENT
Antenna Height from Field Measurement: 1.0620 m             COMMENT
Original XYZ: 0.0000 0.0000 0.0000                          COMMENT
New XYZ position is based on association with SCEC monument COMMENT
E1C8Y9N7+0011. Position of that monument is believed to be  COMMENT
valid to within 1 m horizontally; vertical accuracy         COMMENT
should be no worse than 3-times this value.                 COMMENT
                                                            COMMENT
Revised Rinex header created by UCSD GPS archive for        COMMENT
GSAC on 10-Apr-1999 (1999:100) 08:02:13 GMT                 COMMENT
For assistance contact dagnew@ucsd.edu or hjohnson@ucsd.edu COMMENT
                                                            COMMENT
KANE 1959                                                   MARKER NAME
SL CALIF INSTIT OF TECHNOLOGY                               OBSERVER / AGENCY
UT51 TI 4100 GES 1.50                                       REC # / TYPE / VERS
UT51 TI 4100                                                ANT # / TYPE
 -2330818.0000 -4816432.0000  3459675.0000                  APPROX POSITION XYZ
        1.0587        0.0000        0.0000                  ANTENNA: DELTA H/E/N
     1     1     0                                          WAVELENGTH FACT L1/2
     4    L1    L2    P1    P2                              # / TYPES OF OBSERV
    30                                                      INTERVAL
  1988     2    29     4    43   59.000000                  TIME OF FIRST OBS
  1988     2    29    11    55   59.000000                  TIME OF LAST OBS
     7                                                      # OF SATELLITES
           6   385   385   385   385                        PRN / # OF OBS
           8   289   289   289   289                        PRN / # OF OBS
          11   560   560   560   560                        PRN / # OF OBS
           9   628   628   628   628                        PRN / # OF OBS
          13   576   576   576   576                        PRN / # OF OBS
           3   480   480   480   480                        PRN / # OF OBS
                                                            END OF HEADER
 88  2 29  4 43 59.0800000  0  2  6  8
         -.127 7          .468 6  21738081.374 0  21738082.766 0
          .472 7          .373 6  20339868.066 0  20339870.912 0
 88  2 29  4 44 29.0800000  0  2  6  8
    -57217.486 7    -44584.469 6  21727193.383 0  21727195.295 0
    -36072.135 7    -28108.139 6  20333004.216 0  20333006.203 0
 88  2 29  4 44 59.0800000  0  2  6  8
   -114303.080 7    -89066.738 6  21716330.435 0  21716330.599 0
    -71466.753 8    -55688.328 6  20326269.671 0  20326270.914 0
 88  2 29  4 45 29.0800000  0  2  6  8
   -171255.339 7   -133445.093 7  21705493.774 0  21705494.012 0
   -106182.084 7    -82739.241 6  20319663.006 0  20319665.109 0
 88  2 29  4 45 59.0800000  0  2  6  8
   -228072.407 7   -177718.129 6  21694679.591 0  21694681.317 0
   -140217.294 7   -109260.163 6  20313186.836 0  20313188.385 0
 88  2 29  4 46 29.0800000  0  2  6  8
   -284752.287 7   -221884.254 7  21683894.643 0  21683895.590 0
   -173571.429 7   -135250.385 5  20306839.416 0  20306841.488 0
 88  2 29  4 46 59.0800000  0  2  6  8
   -341293.312 8   -265942.187 7  21673135.353 0  21673136.709 0
   -206243.429 7   -160709.079 5  20300621.508 0  20300622.953 0
 88  2 29  4 47 29.0800000  0  2  6  8
   -397693.058 6   -309890.022 7  21662402.909 0  21662405.015 0
   -238231.682 7   -185634.969 5  20294535.229 0  20294535.317 0
 88  2 29  4 47 59.0800000  0  2  6  8
   -453950.055 7   -353726.634 6  21651697.237 0  21651699.104 0
   -269535.898 7   -210027.874 6  20288578.056 0  20288578.129 0
 88  2 29  4 48 29.0800000  0  2  6  8
   -510062.444 7   -397450.560 6  21641019.456 0  21641020.918 0
   -300155.403 7   -233887.203 6  20282750.754 0  20282753.039 0
 88  2 29  4 48 59.0800000  0  2  6  8
   -566028.332 7   -441060.330 6  21630368.989 0  21630370.834 0
   -330088.774 7   -257211.886 6  20277055.218 0  20277055.975 0
 88  2 29  4 49 29.0800000  0  2  6  8
   -621845.724 7   -484554.394 7  21619747.734 0  21619748.699 0
   -359335.449 7   -280001.516 6  20271490.252 0  20271491.270 0
 88  2 29  4 49 59.0800000  0  2  6  8
   -677512.365 7   -527930.974 7  21609155.502 0  21609156.708 0
   -387894.136 7   -302255.013 6  20266055.127 0  20266056.601 0
 88  2 29  4 50 29.0800000  0  2  6  8
   -733026.625 7   -571188.828 6  21598591.719 0  21598593.032 0
   -415764.269 7   -323971.987 6  20260751.817 0  20260752.582 0
 88  2 29  4 50 59.0800000  0  2  6  8
   -788386.687 7   -614326.543 6  21588056.090 0  21588057.121 0
   -442945.497 7   -345152.161 6  20255579.206 0  20255580.661 0
 88  2 29  4 51 29.0800000  0  2  6  8
   -843590.300 7   -657342.323 7  21577551.299 0  21577552.129 0
   -469436.850 7   -365794.756 5  20250538.785 0  20250539.106 0
 88  2 29  4 51 59.0800000  0  2  6  8
   -898635.613 7   -700234.755 7  21567077.326 0  21567078.631 0
   -495237.983 7   -385899.542 6  20245628.626 0  20245628.242 0
 88  2 29  4 52 29.0800000  0  4  6  8 11  9
   -953520.702 7   -743002.350 7  21556632.876 0  21556633.992 0
   -520347.685 7   -405465.532 6  20240849.368 0  20240851.146 0
         -.098 7          .000 1  22405085.828 0          .000 0
          .477 7          .000 1  23912176.577 0          .000 0
 88  2 29  4 52 59.0800000  0  4  6  8 11  9
  -1008243.549 8   -785643.518 6  21546219.401 0  21546220.134 0
   -544765.413 7   -424492.319 6  20236203.341 0  20236205.106 0
    -93617.998 7     85714.104 6  22387296.932 0  22387299.517 0
    -89184.172 8     25679.789 6  23895234.473 0  23895233.443 0
 88  2 29  4 53 29.0800000  0  4  6  8 11  9
  -1062802.243 7   -828156.777 7  21535836.603 0  21535837.636 0
   -568490.878 8   -442979.690 6  20231688.664 0  20231690.281 0
   -186894.185 7     13031.384 6  22369546.423 0  22369549.719 0
   -178416.104 7    -43851.582 6  23878250.807 0  23878253.752 0
 88  2 29  4 53 59.0800000  0  4  6  8 11  9
  -1117194.558 8   -870540.380 7  21525486.463 0  21525487.397 0
   -591523.357 7   -460927.062 6  20227305.659 0  20227307.093 0
   -279825.984 7    -59382.977 6  22351862.579 0  22351864.979 0
   -267694.858 7   -113419.438 6  23861261.790 0  23861263.535 0
 88  2 29  4 54 29.0800000  0  4  6  8 11  9
  -1171418.664 7   -912792.913 7  21515168.257 0  21515168.890 0
   -613862.297 7   -478334.031 6  20223054.123 0  20223055.974 0
   -372411.207 6   -131527.298 6  22334244.470 0  22334246.834 0
   -357019.694 7   -183023.163 6  23844264.343 0  23844264.938 0
 88  2 29  4 54 59.0800000  0  4  6  8 11  9
  -1225472.866 8   -954913.060 7  21504881.264 0  21504882.538 0
   -635507.602 7   -495200.490 6  20218935.866 0  20218937.400 0
   -464647.541 7   -203399.743 6  22316692.409 0  22316694.484 0
   -446389.798 8   -252662.187 6  23827258.357 0  23827259.370 0
 88  2 29  4 55 29.0800000  0  4  6  8 11  9
  -1279354.560 7   -996898.791 7  21494627.989 0  21494629.486 0
   -656458.309 8   -511525.689 6  20214949.363 0  20214949.926 0
   -556531.851 7   -274997.887 6  22299207.378 0  22299209.309 0
   -535803.184 7   -322334.938 6  23810240.260 0  23810245.912 0
 88  2 29  4 55 59.0800000  0  4  6  8 11  9
  -1333061.906 7  -1038748.660 7  21484407.915 0  21484409.398 0
   -676714.255 7   -527309.546 5  20211094.916 0  20211095.389 0
   -648061.542 7   -346319.707 6  22281788.965 0  22281792.754 0
   -625259.026 7   -392040.794 6  23793219.390 0  23793221.263 0
 88  2 29  4 56 29.0800000  0  4  6  8 11  9
  -1386593.111 8  -1080461.265 6  21474221.361 0  21474221.923 0
   -696275.413 7   -542551.982 6  20207371.909 0  20207372.460 0
   -739235.036 7   -417363.989 6  22264439.003 0  22264443.173 0
   -714756.350 7   -461778.926 6  23776190.008 0  23776192.440 0
 88  2 29  4 56 59.0800000  0  4  6  8 11  9
  -1439945.494 7  -1122034.546 7  21464068.646 0  21464069.608 0
   -715140.786 7   -557252.259 6  20203781.801 0  20203782.892 0
   -830049.167 7   -488128.221 7  22247158.743 0  22247160.244 0
   -804293.506 7   -531548.140 6  23759149.490 0  23759152.221 0
 88  2 29  4 57 29.0800000  0  4  6  8 11  9
  -1493117.407 7  -1163467.196 7  21453950.642 0  21453952.374 0
   -733310.412 8   -571410.411 6  20200324.872 0  20200326.432 0
   -920501.372 7   -558610.444 7  22229945.793 0  22229948.721 0
   -893869.403 7   -601347.505 6  23742105.395 0  23742106.208 0
 88  2 29  4 57 59.0800000  0  4  6  8 11  9
  -1546106.653 8  -1204757.502 7  21443867.418 0  21443868.257 0
   -750783.945 8   -585026.134 6  20196999.365 0  20197000.252 0
  -1010589.434 7   -628808.917 6  22212802.145 0  22212806.739 0
   -983483.040 7   -671176.297 6  23725052.732 0  23725053.564 0
 88  2 29  4 58 29.0800000  0  4  6  8 11  9
  -1598911.246 8  -1245903.928 7  21433818.490 0  21433819.186 0
   -767561.289 8   -598099.380 5  20193806.489 0  20193807.555 0
  -1100310.694 7   -698721.561 7  22195729.253 0  22195731.083 0
  -1073133.164 7   -741033.540 7  23707992.639 0  23707994.517 0
 88  2 29  4 58 59.0800000  0  4  6  8 11  9
  -1651529.106 8  -1286904.847 6  21423804.983 0  21423807.033 0
   -783642.175 7   -610629.927 6  20190746.513 0  20190747.064 0
  -1189662.768 7   -768346.545 7  22178725.749 0  22178729.149 0
  -1162818.295 7   -810918.051 6  23690924.772 0  23690927.474 0
 88  2 29  4 59 29.0800000  0  4  6  8 11  9
  -1703957.926 8  -1327758.471 6  21413828.855 0  21413830.315 0
   -799026.543 8   -622617.738 6  20187819.126 0  20187820.004 0
  -1278643.212 7   -837681.933 6  22161793.150 0  22161795.578 0
  -1252537.380 7   -880829.030 7  23673851.562 0  23673854.634 0
 88  2 29  4 59 59.0800000  0  4  6  8 11  9
  -1756195.894 8  -1368463.366 7  21403888.482 0  21403888.866 0
   -813714.546 7   -634062.919 5  20185024.037 0  20185024.834 0
  -1367249.743 8   -906725.972 7  22144931.580 0  22144935.802 0
  -1342289.145 7   -950765.447 6  23656772.225 0  23656774.643 0
 88  2 29  5  0 29.0800000  0  4  6  8 11  9
  -1808240.895 7  -1409017.908 7  21393984.186 0  21393985.972 0
   -827705.424 7   -644964.895 6  20182361.770 0  20182363.585 0
  -1455479.563 7   -975476.461 6  22128142.591 0  22128146.388 0
  -1432072.574 7  -1020726.560 6  23639688.462 0  23639689.069 0
 88  2 29  5  0 59.0800000  0  4  6  8 11  9
  -1860090.791 8  -1449420.415 6  21384118.101 0  21384119.000 0
   -840999.444 7   -655323.862 5  20179831.976 0  20179833.742 0
  -1543330.837 7  -1043931.970 6  22111424.699 0  22111428.100 0
  -1521886.063 7  -1090711.089 6  23622598.294 0  23622598.169 0
 88  2 29  5  1 29.0800000  0  4  6  8 11  9
  -1911743.419 8  -1489669.210 7  21374288.716 0  21374289.798 0
   -853596.765 7   -665139.940 5  20177434.680 0  20177436.082 0
  -1630800.874 7  -1112090.427 6  22094781.002 0  22094783.630 0
  -1611728.557 7  -1160718.222 7  23605501.184 0  23605501.116 0
 88  2 29  5  1 59.0800000  0  4  6  8 11  9
  -1963196.718 8  -1529762.684 7  21364496.979 0  21364498.258 0
   -865497.468 7   -674413.198 6  20175170.788 0  20175169.881 0
  -1717887.658 7  -1179950.248 6  22078207.867 0  22078210.868 0
  -1701598.579 7  -1230746.800 6  23588398.908 0  23588401.315 0
 88  2 29  5  2 29.0800000  0  4  6  8 11  9
  -2014448.583 7  -1569699.187 7  21354744.435 0  21354745.176 0
   -876701.284 7   -683143.441 6  20173038.021 0  20173039.487 0
  -1804588.898 7  -1247509.637 7  22061709.614 0  22061711.264 0
  -1791495.038 7  -1300795.976 6  23571291.353 0  23571292.923 0
 88  2 29  5  2 59.0800000  0  4  6  8 11  9
  -2065496.579 8  -1609476.840 7  21345030.133 0  21345031.387 0
   -887208.342 7   -691330.746 6  20171038.155 0  20171040.734 0
  -1890901.639 8  -1314766.305 6  22045284.779 0  22045286.677 0
  -1881416.253 7  -1370864.465 6  23554181.521 0  23554182.748 0
 88  2 29  5  3 29.0800000  0  4  6  8 11  9
  -2116338.759 8  -1649094.114 6  21335354.569 0  21335356.707 0
   -897018.829 7   -698975.263 6  20169171.215 0  20169172.345 0
  -1976823.523 7  -1381718.401 6  22028934.911 0  22028936.633 0
  -1971360.910 8  -1440951.199 6  23537064.936 0  23537065.083 0
 88  2 29  5  3 59.0800000  0  4  6  8 11  9
  -2166972.947 7  -1688549.316 7  21325720.093 0  21325720.605 0
   -906132.957 7   -706077.178 6  20167437.395 0  20167438.237 0
  -2062352.234 7  -1448364.133 6  22012658.831 0  22012661.443 0
  -2061327.741 7  -1511055.210 6  23519943.189 0  23519944.965 0
 88  2 29  5  4 29.0800000  0  4  6  8 11  9
  -2217396.986 7  -1727840.767 7  21316125.081 0  21316124.970 0
   -914550.796 7   -712636.521 6  20165834.957 0  20165837.529 0
  -2147486.019 7  -1514702.128 6  21996457.611 0  21996460.387 0
  -2151315.448 7  -1581175.488 5  23502819.741 0  23502821.068 0
 88  2 29  5  4 59.0800000  0  4  6  8 11  9
  -2267608.805 8  -1766966.852 7  21306569.649 0  21306570.985 0
   -922272.645 7   -718653.546 6  20164366.241 0  20164367.194 0
  -2232222.505 7  -1580730.547 6  21980331.958 0  21980336.437 0
  -2241322.650 8  -1651310.953 6  23485693.714 0  23485693.940 0
 88  2 29  5  5 29.0800000  0  4  6  8 11  9
  -2317606.146 8  -1805925.812 7  21297055.475 0  21297057.433 0
   -929298.397 7   -724128.145 6  20163028.254 0  20163030.473 0
  -2316559.000 7  -1646447.288 6  21964284.429 0  21964286.170 0
  -2331347.988 7  -1721460.538 6  23468562.101 0  23468563.686 0
 88  2 29  5  5 59.0800000  0  4  6  8 11  9
  -2367386.918 8  -1844716.018 7  21287582.346 0  21287583.683 0
   -935628.973 7   -729061.048 6  20161824.411 0  20161825.675 0
  -2400493.464 7  -1711850.740 6  21948312.782 0  21948315.033 0
  -2421389.918 7  -1791623.073 6  23451427.696 0  23451429.947 0
 88  2 29  5  6 29.0800000  0  4  6  8 11  9
  -2416948.915 8  -1883335.747 7  21278151.207 0  21278152.443 0
   -941264.648 7   -733452.468 6  20160751.922 0  20160752.343 0
  -2484023.794 7  -1776939.302 7  21932417.149 0  21932419.942 0
  -2511447.068 8  -1861797.450 7  23434289.777 0  23434290.455 0
 88  2 29  5  6 59.0800000  0  4  6  8 11  9
  -2466289.905 7  -1921783.271 7  21268762.199 0  21268762.808 0
   -946205.584 7   -737302.545 5  20159811.808 0  20159811.406 0
  -2567147.654 7  -1841711.125 6  21916598.638 0  21916601.104 0
  -2601517.969 7  -1931982.554 6  23417149.730 0  23417149.979 0
 88  2 29  5  7 29.0800000  0  4  6  8 11  9
  -2515407.696 8  -1960056.865 7  21259414.965 0  21259416.119 0
   -950452.434 7   -740611.776 6  20159003.225 0  20159005.450 0
  -2649862.993 7  -1906164.611 6  21900859.101 0  21900862.072 0
  -2691601.353 7  -2002177.382 6  23400007.180 0  23400008.774 0
 88  2 29  5  7 59.0800000  0  4  6  8 11  9
  -2564299.930 8  -1998154.704 6  21250110.905 0  21250112.711 0
   -954005.373 7   -743380.287 6  20158328.087 0  20158328.441 0
  -2732167.557 7  -1970298.025 6  21885196.979 0  21885199.718 0
  -2781695.687 8  -2072380.736 6  23382864.273 0  23382865.001 0
 88  2 29  5  8 29.0800000  0  4  6  8 11  9
  -2612964.477 7  -2036075.134 6  21240850.139 0  21240851.344 0
   -956864.811 7   -745608.399 6  20157783.689 0  20157784.642 0
  -2814059.034 7  -2034109.559 6  21869613.680 0  21869616.544 0
  -2871799.319 7  -2142591.338 6  23365716.342 0  23365718.679 0
 88  2 29  5  8 59.0800000  0  4  6  8 11  9
  -2661399.115 7  -2073816.398 7  21231633.242 0  21231634.622 0
   -959031.374 7   -747296.634 6  20157371.442 0  20157372.163 0
  -2895534.658 7  -2097597.042 6  21854109.294 0  21854112.055 0
  -2961910.763 7  -2212808.041 6  23348570.770 0  23348572.126 0
 88  2 29  5  9 29.0800000  0  4  6  8 11  9
  -2709601.718 7  -2111376.865 7  21222460.858 0  21222462.269 0
   -960505.870 7   -748445.584 6  20157090.697 0  20157092.225 0
  -2976592.733 8  -2160759.155 6  21838683.975 0  21838687.783 0
  -3052028.479 7  -2283029.614 6  23331419.650 0  23331422.099 0
 88  2 29  5  9 59.0800000  0  4  6  8 11  9
  -2757570.063 7  -2148754.787 7  21213333.090 0  21213334.539 0
   -961287.986 7   -749055.025 6  20156941.330 0  20156943.873 0
  -3057231.351 7  -2223594.430 6  21823338.949 0  21823338.648 0
  -3142151.180 7  -2353255.074 6  23314269.588 0  23314273.190 0
 88  2 29  5 10 29.0800000  0  4  6  8 11  9
  -2805301.796 8  -2185948.344 7  21204249.701 0  21204250.559 0
   -961378.613 7   -749125.617 6  20156924.209 0  20156924.953 0
  -3137448.243 7  -2286101.083 6  21808074.460 0  21808076.160 0
  -3232277.115 7  -2423483.069 6  23297117.548 0  23297121.303 0
 88  2 29  5 10 59.0800000  0  4  6  8 11  9
  -2852794.883 8  -2222955.940 7  21195211.778 0  21195213.355 0
   -960778.918 7   -748658.312 6  20157038.093 0  20157039.547 0
  -3217241.121 7  -2348277.336 6  21792890.170 0  21792893.147 0
  -3322405.029 7  -2493712.572 6  23279969.232 0  23279971.855 0
 88  2 29  5 11 29.0800000  0  4  6  8 11  9
  -2900046.940 7  -2259775.724 6  21186220.408 0  21186221.790 0
   -959489.174 6   -747653.311 6  20157283.753 0  20157283.921 0
  -3296607.907 7  -2410121.575 7  21777788.025 0  21777790.652 0
  -3412533.448 7  -2563942.503 7  23262817.547 0  23262820.692 0
 88  2 29  5 11 59.0800000  0  4  6  8 11  9
  -2947055.728 7  -2296405.949 6  21177275.317 0  21177276.215 0
   -957510.113 6   -746111.179 6  20157659.790 0  20157661.651 0
  -3375546.418 6  -2471632.083 6  21762765.294 0  21762767.610 0
  -3502660.439 7  -2634171.299 6  23245667.841 0  23245670.749 0
 88  2 29  5 12 29.0800000  0  4  6  8 11  9
  -2993819.141 7  -2332844.968 7  21168375.861 0  21168377.506 0
   -954842.690 7   -744032.671 6  20158168.665 0  20158169.262 0
  -3454054.965 7  -2532807.562 7  21747825.998 0  21747829.076 0
  -3592784.728 7  -2704398.004 7  23228518.884 0  23228519.573 0
 88  2 29  5 12 59.0800000  0  4  6  8 11  9
  -3040334.513 7  -2369090.710 7  21159524.191 0  21159525.680 0
   -951487.477 7   -741418.217 6  20158806.103 0  20158808.655 0
  -3532131.013 7  -2593646.016 6  21732968.241 0  21732970.989 0
  -3682904.341 7  -2774621.070 6  23211368.413 0  23211370.186 0
 88  2 29  5 13 29.0800000  0  4  6  8 11  9
  -3086599.977 7  -2405141.718 7  21150719.788 0  21150722.046 0
   -947445.120 7   -738268.322 6  20159575.882 0  20159577.390 0
  -3609772.753 7  -2654146.069 6  21718193.592 0  21718196.590 0
  -3773017.805 8  -2844839.339 6  23194219.431 0  23194221.696 0
 88  2 29  5 13 59.0800000  0  4  6  8 11  9
  -3132613.074 7  -2440996.080 7  21141964.183 0  21141965.737 0
   -942716.374 7   -734583.583 6  20160474.872 0  20160477.149 0
  -3686978.266 7  -2714306.186 6  21703501.851 0  21703504.729 0
  -3863123.495 7  -2915051.529 7  23177074.553 0  23177076.594 0
 88  2 29  5 14 29.0800000  0  4  6  8 11  9
  -3178371.519 7  -2476652.005 7  21133257.068 0  21133258.404 0
   -937302.215 7   -730364.746 6  20161505.336 0  20161506.535 0
  -3763745.748 8  -2774124.995 7  21688893.985 0  21688896.439 0
  -3953219.783 7  -2985256.430 6  23159928.433 0  23159930.728 0
 88  2 29  5 14 59.0800000  0  4  6  8 11  9
  -3223873.184 8  -2512107.836 6  21124598.716 0  21124599.076 0
   -931203.640 7   -725612.607 6  20162665.965 0  20162667.468 0
  -3840072.934 7  -2833600.691 6  21674370.369 0  21674371.922 0
  -4043305.243 7  -3055452.870 6  23142786.466 0  23142787.117 0
 88  2 29  5 15 29.0800000  0  4  6  8 11  9
  -3269115.808 8  -2547361.826 6  21115988.680 0  21115990.037 0
   -924421.844 7   -720328.083 6  20163957.096 0  20163958.382 0
  -3915957.999 8  -2892731.891 6  21659929.148 0  21659932.557 0
  -4133378.044 7  -3125639.460 7  23125646.091 0  23125646.823 0
 88  2 29  5 15 59.0800000  0  4  6  8 11  9
  -3314097.031 7  -2582412.127 7  21107428.455 0  21107431.400 0
   -916957.310 7   -714511.567 6  20165377.742 0  20165379.144 0
  -3991398.991 7  -2951517.069 6  21645572.515 0  21645575.176 0
  -4223436.422 7  -3195814.801 7  23108507.079 0  23108509.926 0
 88  2 29  5 16 29.0800000  0  4  6  8 11  9
  -3358814.319 7  -2617256.769 7  21098920.155 0  21098921.128 0
   -908811.140 7   -708163.899 5  20166927.438 0  20166929.872 0
  -4066393.583 7  -3009954.409 7  21631302.132 0  21631304.163 0
  -4313478.790 7  -3265977.678 6  23091374.283 0  23091376.176 0
 88  2 29  5 16 59.0800000  0  4  6  8 11  9
  -3403265.397 7  -2651893.979 6  21090461.914 0  21090461.706 0
   -899983.861 6   -701285.503 6  20168606.338 0  20168609.390 0
  -4140939.781 8  -3068042.339 6  21617116.392 0  21617118.750 0
  -4403503.275 7  -3336126.587 6  23074243.764 0  23074244.251 0
 88  2 29  5 17 29.0800000  0  4  6  8 11  9
  -3447448.169 7  -2686322.106 6  21082053.323 0  21082054.614 0
   -890477.067 7   -693877.617 6  20170416.347 0  20170417.024 0
  -4215035.968 8  -3125779.618 6  21603017.010 0  21603018.447 0
  -4493508.090 7  -3406260.209 6  23057114.872 0  23057117.302 0
 88  2 29  5 17 59.0800000  0  4  6  8 11  9
  -3491360.474 7  -2720539.501 6  21073697.327 0  21073698.573 0
   -880291.855 7   -685941.080 6  20172353.737 0  20172355.706 0
  -4288680.333 7  -3183164.818 6  21589003.248 0  21589004.575 0
  -4583492.088 7  -3476377.586 6  23039991.986 0  23039992.671 0
 88  2 29  5 18 29.0800000  0  4  6  8 11  9
  -3535000.066 7  -2754544.364 6  21065392.092 0  21065393.838 0
   -869429.402 7   -677476.821 6  20174422.169 0  20174422.815 0
  -4361871.121 7  -3240196.591 6  21575074.512 0  21575077.244 0
  -4673453.121 7  -3546477.069 7  23022873.301 0  23022875.469 0
 88  2 29  5 18 59.0800000  0  4  6  8 11  9
  -3578364.416 7  -2788334.750 7  21057140.350 0  21057142.402 0
   -857890.572 7   -668485.535 6  20176617.231 0  20176618.398 0
  -4434606.315 7  -3296873.344 7  21561232.975 0  21561236.747 0
  -4763389.667 7  -3616557.461 6  23005757.766 0  23005759.561 0
 88  2 29  5 19 29.0800000  0  4  6  8 11  9
  -3621451.049 7  -2821908.763 7  21048941.458 0  21048941.930 0
   -845676.519 7   -658968.066 6  20178941.073 0  20178943.152 0
  -4506883.839 7  -3353193.472 6  21547479.135 0  21547482.395 0
  -4853299.731 7  -3686617.245 6  22988649.316 0  22988650.602 0
 88  2 29  5 19 59.0800000  0  4  6  8 11  9
  -3664257.851 7  -2855264.708 7  21040795.641 0  21040796.652 0
   -832788.768 7   -648925.658 6  20181393.299 0  20181394.633 0
  -4578702.214 7  -3409155.833 6  21533813.120 0  21533815.502 0
  -4943181.524 8  -3756654.974 6  22971545.514 0  22971546.596 0
 88  2 29  5 20 29.0800000  0  4  6  8 11  9
  -3706782.398 7  -2888400.720 6  21032703.570 0  21032705.027 0
   -819228.517 7   -638359.228 7  20183974.631 0  20183975.250 0
  -4650059.477 7  -3464758.875 6  21520233.757 0  21520236.086 0
  -5033033.147 7  -3826669.212 6  22954446.912 0  22954448.064 0
 88  2 29  5 20 59.0800000  0  4  6  8 11  9
  -3749022.140 8  -2921314.802 6  21024665.152 0  21024666.689 0
   -804996.839 7   -627269.600 5  20186681.902 0  20186682.737 0
  -4720953.434 7  -3520000.900 6  21506742.554 0  21506746.467 0
  -5122852.671 7  -3896658.420 7  22937354.603 0  22937357.117 0
 88  2 29  5 21 29.0800000  0  4  6  8 11  9
  -3790975.045 7  -2954005.377 6  21016682.589 0  21016682.635 0
   -790095.291 7   -615658.009 6  20189517.422 0  20189518.247 0
  -4791382.997 7  -3574881.064 6  21493341.317 0  21493343.025 0
  -5212638.373 7  -3966621.280 7  22920268.822 0  22920270.761 0
 88  2 29  5 21 59.0800000  0  4  6  8 11  9
  -3832638.915 7  -2986470.715 7  21008754.400 0  21008754.988 0
   -774525.179 7   -603525.449 6  20192480.637 0  20192482.779 0
  -4861345.868 7  -3629397.576 7  21480026.716 0  21480029.365 0
  -5302389.098 7  -4036556.883 7  22903190.695 0  22903191.721 0
 88  2 29  5 22 29.0800000  0  4  6  8 11  9
  -3874011.522 7  -3018709.110 7  21000881.414 0  21000882.620 0
   -758287.932 7   -590873.053 5  20195570.137 0  20195571.435 0
  -4930840.864 7  -3683549.505 6  21466802.338 0  21466805.587 0
  -5392102.532 7  -4106463.435 7  22886118.778 0  22886120.176 0
 88  2 29  5 22 59.0800000  0  4  6  8 11  9
  -3915090.393 7  -3050718.616 7  20993063.699 0  20993066.011 0
   -741384.715 7   -577701.711 6  20198787.331 0  20198788.124 0
  -4999865.861 7  -3737335.195 7  21453668.339 0  21453669.752 0
  -5481776.945 7  -4176339.563 7  22869052.941 0  22869054.576 0
 88  2 29  5 23 29.0800000  0  4  6  8 11  9
  -3955873.093 7  -3082497.330 7  20985302.954 0  20985304.110 0
   -723816.669 7   -564012.306 6  20202130.667 0  20202132.359 0
  -5068419.070 7  -3790753.266 6  21440622.553 0  21440623.980 0
  -5571409.987 7  -4246183.473 6  22851997.573 0  22851998.391 0
 88  2 29  5 23 59.0800000  0  4  6  8 11  9
  -3996357.316 7  -3114043.482 6  20977598.845 0  20977601.037 0
   -705585.728 7   -549806.374 6  20205599.454 0  20205600.789 0
  -5136499.313 7  -3843802.791 6  21427667.013 0  21427670.195 0
  -5661000.179 7  -4315993.977 6  22834949.139 0  22834949.988 0
 88  2 29  5 24 29.0800000  0  4  6  8 11  9
  -4036540.820 7  -3145355.302 7  20969952.828 0  20969953.919 0
   -686693.427 7   -535085.101 6  20209194.793 0  20209196.162 0
  -5204104.578 7  -3896482.205 7  21414802.489 0  21414804.747 0
  -5750545.671 7  -4385769.658 6  22817908.331 0  22817910.428 0
 88  2 29  5 24 59.0800000  0  4  6  8 11  9
  -4076421.472 7  -3176431.131 7  20962363.831 0  20962365.067 0
   -667140.999 8   -519849.448 6  20212915.489 0  20212916.892 0
  -5271233.543 7  -3948790.485 6  21402027.747 0  21402030.784 0
  -5840044.586 7  -4455509.038 6  22800877.108 0  22800879.106 0
 88  2 29  5 25 29.0800000  0  4  6  8 11  9
  -4115996.418 7  -3207268.751 6  20954833.169 0  20954833.928 0
   -646929.838 7   -504100.482 6  20216761.344 0  20216762.684 0
  -5337884.143 7  -4000726.003 6  21389345.404 0  21389348.305 0
  -5929494.689 7  -4525210.400 6  22783856.668 0  22783857.842 0
 88  2 29  5 25 59.0800000  0  4  6  8 11  9
  -4155263.751 7  -3237866.677 6  20947360.995 0  20947361.233 0
   -626061.904 7   -487839.734 5  20220732.995 0  20220733.343 0
  -5404055.045 7  -4052287.730 6  21376752.577 0  21376755.883 0
  -6018894.108 7  -4594872.273 6  22766844.236 0  22766845.923 0
 88  2 29  5 26 29.0800000  0  4  6  8 11  9
  -4194221.256 7  -3268223.159 6  20939947.004 0  20939948.876 0
   -604538.394 7   -471068.178 5  20224827.962 0  20224830.339 0
  -5469744.722 7  -4103474.486 6  21364253.058 0  21364255.603 0
  -6108241.349 7  -4664493.470 6  22749841.465 0  22749842.852 0
 88  2 29  5 26 59.0800000  0  4  6  8 11  9
  -4232866.590 7  -3298336.404 6  20932592.832 0  20932593.803 0
   -582361.438 8   -453787.421 6  20229048.718 0  20229048.870 0
  -5534951.839 7  -4154285.203 6  21351844.838 0  21351847.312 0
  -6197534.525 7  -4734072.548 6  22732849.406 0  22732851.452 0
 88  2 29  5 27 29.0800000  0  4  6  8 11  9
  -4271197.013 7  -3328204.272 7  20925298.825 0  20925300.923 0
   -559532.488 7   -435998.632 6  20233392.876 0  20233392.661 0
  -5599674.633 8  -4204718.543 6  21339527.870 0  21339531.851 0
  -6286770.996 7  -4803607.436 6  22715868.446 0  22715871.627 0
 88  2 29  5 27 59.0800000  0  4  6  8 11  9
  -4309210.295 8  -3357825.002 7  20918065.350 0  20918066.888 0
   -536052.879 7   -417702.821 6  20237860.626 0  20237861.948 0
  -5663911.268 7  -4254773.061 6  21327304.403 0  21327306.361 0
  -6375948.886 7  -4873096.683 7  22698899.069 0  22698900.216 0
 88  2 29  5 28 29.0800000  0  4  6  8 11  9
  -4346904.229 7  -3387196.890 6  20910892.132 0  20910893.312 0
   -511924.586 7   -398901.544 6  20242452.018 0  20242453.559 0
  -5727660.453 7  -4304447.739 6  21315173.356 0  21315175.364 0
  -6465066.544 7  -4942539.004 6  22681939.156 0  22681941.810 0
 88  2 29  5 28 59.0800000  0  4  6  8 11  9
  -4384276.243 7  -3416317.946 6  20903781.328 0  20903782.255 0
   -487149.310 6   -379596.131 6  20247166.469 0  20247167.472 0
  -5790920.359 7  -4353741.160 6  21303134.879 0  21303137.328 0
  -6554121.701 7  -5011932.618 6  22664994.247 0  22664995.129 0
 88  2 29  5 29 29.0800000  0  4  6  8 11  9
  -4421324.268 7  -3445186.539 7  20896730.634 0  20896733.582 0
   -461728.976 7   -359788.078 6  20252004.809 0  20252004.790 0
  -5853690.113 7  -4402652.637 6  21291191.330 0  21291193.796 0
  -6643112.501 7  -5081276.070 7  22648059.089 0  22648060.427 0
 88  2 29  5 29 59.0800000  0  4  6  8 11  9
  -4458046.034 7  -3473800.883 7  20889743.126 0  20889744.875 0
   -435665.121 8   -339478.579 6  20256963.404 0  20256964.759 0
  -5915968.163 7  -4451180.978 6  21279339.410 0  21279340.575 0
  -6732036.809 7  -5150567.734 7  22631135.848 0  22631137.819 0
 88  2 29  5 30 29.0800000  0  4  6  8 11  9
  -4494439.238 7  -3502159.238 7  20882818.107 0  20882819.026 0
   -408959.824 7   -318669.252 6  20262045.248 0  20262046.736 0
  -5977753.107 7  -4499325.078 6  21267582.366 0  21267584.523 0
  -6820892.674 7  -5219806.045 6  22614228.720 0  22614229.655 0
 88  2 29  5 30 59.0800000  0  4  6  8 11  9
  -4530501.210 8  -3530259.470 7  20875955.312 0  20875957.087 0
   -381614.659 7   -297361.322 6  20267249.502 0  20267250.875 0
  -6039043.138 7  -4547083.539 7  21255918.949 0  21255921.936 0
  -6909677.631 7  -5288989.106 7  22597333.256 0  22597335.759 0
 88  2 29  5 31 29.0800000  0  4  6  8 11  9
  -4566229.672 7  -3558099.826 6  20869156.077 0  20869158.194 0
   -353631.618 7   -275556.359 6  20272573.898 0  20272575.261 0
  -6099837.239 7  -4594455.535 6  21244350.450 0  21244351.703 0
  -6998390.080 6  -5358115.672 7  22580452.027 0  22580453.142 0
 88  2 29  5 31 59.0800000  0  4  6  8 11  9
  -4601622.411 8  -3585678.587 7  20862421.126 0  20862422.309 0
   -325012.525 7   -253255.762 6  20278019.880 0  20278021.240 0
  -6160133.940 7  -4641439.973 6  21232876.156 0  21232877.023 0
  -7087027.890 7  -5427184.074 7  22563583.477 0  22563585.457 0
 88  2 29  5 32 29.0800000  0  4  6  8 11  9
  -4636677.016 7  -3612993.861 6  20855750.845 0  20855751.449 0
   -295759.289 8   -230461.028 5  20283587.122 0  20283589.212 0
  -6219931.662 7  -4688035.583 6  21221496.891 0  21221499.686 0
  -7175588.748 8  -5496192.520 6  22546731.815 0  22546733.406 0
 88  2 29  5 32 59.0800000  0  4  6  8 11  9
  -4671391.302 7  -3640043.948 6  20849144.774 0  20849145.725 0
   -265874.216 7   -207173.961 6  20289273.969 0  20289275.095 0
  -6279229.275 7  -4734241.499 6  21210212.770 0  21210215.259 0
  -7264070.727 7  -5565139.480 6  22529894.217 0  22529896.419 0
 88  2 29  5 33 29.0800000  0  4  6  8 11  9
  -4705763.157 7  -3666827.208 7  20842603.459 0  20842604.541 0
   -235359.553 7   -183396.302 6  20295081.222 0  20295081.631 0
  -6338025.750 7  -4780056.922 6  21199024.142 0  21199027.226 0
  -7352471.715 7  -5634023.352 7  22513072.159 0  22513073.723 0
 88  2 29  5 33 59.0800000  0  4  6  8 11  9
  -4739790.365 7  -3693341.916 7  20836128.415 0  20836130.135 0
   -204217.059 7   -159129.408 6  20301007.309 0  20301008.537 0
  -6396319.980 7  -4825480.989 6  21187931.082 0  21187934.569 0
  -7440790.043 7  -5702842.812 7  22496265.734 0  22496266.071 0
 88  2 29  5 34 29.0800000  0  4  6  8 11  9
  -4773470.102 7  -3719585.861 6  20829718.987 0  20829721.248 0
   -172448.387 7   -134374.598 7  20307052.075 0  20307054.379 0
  -6454110.223 8  -4870512.330 6  21176934.258 0  21176936.584 0
  -7529022.791 7  -5771595.580 6  22479475.696 0  22479477.741 0
 88  2 29  5 34 59.0800000  0  4  6  8 11  9
  -4806799.993 7  -3745557.199 7  20823376.895 0  20823377.669 0
   -140055.593 7   -109133.459 6  20313216.248 0  20313217.865 0
  -6511395.272 7  -4915150.015 6  21166032.478 0  21166035.963 0
  -7617167.890 7  -5840280.061 6  22462702.150 0  22462703.016 0
 88  2 29  5 35 29.0800000  0  4  6  8 11  9
  -4839778.205 7  -3771254.511 7  20817101.476 0  20817103.213 0
   -107041.223 8    -83407.972 6  20319498.776 0  20319500.255 0
  -6568174.150 7  -4959393.292 7  21155227.779 0  21155230.641 0
  -7705223.733 7  -5908894.985 6  22445945.702 0  22445947.894 0
 88  2 29  5 35 59.0800000  0  4  6  8 11  9
  -4872401.958 7  -3796675.628 7  20810892.520 0  20810895.108 0
    -73406.667 8    -57199.215 6  20325898.907 0  20325900.597 0
  -6624445.271 7  -5003240.903 6  21144520.580 0  21144523.794 0
  -7793187.661 7  -5977438.286 7  22429205.918 0  22429208.093 0
 88  2 29  5 36 29.0800000  0  4  6  8 11  9
  -4904669.259 8  -3821818.971 6  20804753.605 0  20804755.486 0
    -39154.380 7    -30509.126 7  20332416.230 0  20332417.784 0
  -6680207.892 7  -5046692.270 6  21133908.692 0  21133911.931 0
  -7881057.648 7  -6045908.394 7  22412485.381 0  22412485.986 0
 88  2 29  5 36 59.0800000  0  4  6  8 11  9
  -4936577.850 7  -3846682.811 6  20798681.038 0  20798683.219 0
     -4286.795 7     -3339.572 6  20339052.529 0  20339053.321 0
  -6735460.856 7  -5089746.522 7  21123394.797 0  21123397.116 0
  -7968831.700 7  -6114303.740 6  22395782.314 0  22395785.009 0
 88  2 29  5 37 29.0800000  0  4  6  8 11  9
  -4968125.255 7  -3871265.208 7  20792677.789 0  20792679.065 0
     31194.206 7     24307.961 7  20345803.798 0  20345805.297 0
  -6790202.690 7  -5132402.480 6  21112977.446 0  21112981.092 0
  -8056507.003 7  -6182622.148 7  22379099.693 0  22379100.129 0
 88  2 29  5 37 59.0800000  0  4  6  8 11  9
  -4999309.280 7  -3895564.437 7  20786743.283 0  20786745.644 0
     67286.137 7     52431.547 7  20352671.526 0  20352672.990 0
  -6844432.603 7  -5174659.532 6  21102658.292 0  21102661.287 0
  -8144081.878 7  -6250862.282 6  22362434.476 0  22362435.182 0
 88  2 29  5 38 29.0800000  0  4  6  8 11  9
  -5030127.389 7  -3919578.559 7  20780878.746 0  20780880.919 0
    103987.001 7     81029.637 6  20359656.415 0  20359657.550 0
  -6898149.137 7  -5216516.559 6  21092436.583 0  21092438.566 0
  -8231553.686 7  -6319022.121 7  22345787.771 0  22345790.126 0
 88  2 29  5 38 59.0800000  0  4  6  8 11  9
  -5060577.474 7  -3943305.885 7  20775085.444 0  20775086.257 0
    141294.847 7    110100.680 7  20366756.390 0  20366757.026 0
  -6951351.559 8  -5257972.973 6  21082312.539 0  21082313.902 0
  -8318920.391 7  -6387100.049 6  22329163.417 0  22329163.646 0
 88  2 29  5 39 29.0800000  0  4  6  8 11  9
  -5090657.313 7  -3966744.720 7  20769360.908 0  20769362.157 0
    179207.212 7    139642.790 6  20373969.864 0  20373970.857 0
  -7004038.673 7  -5299027.849 6  21072285.732 0  21072287.912 0
  -8406179.737 7  -6455094.337 7  22312558.363 0  22312559.249 0
 88  2 29  5 39 59.0800000  0  4  6  8 11  9
  -5120364.547 7  -3989893.216 7  20763708.002 0  20763709.533 0
    217721.588 7    169653.991 6  20381299.206 0  20381301.039 0
  -7056209.197 7  -5339680.185 6  21062358.525 0  21062360.499 0
  -8493329.358 6  -6523003.099 6  22295974.181 0  22295975.696 0
 88  2 29  5 40 29.0800000  0  4  6  8 11  9
  -5149696.887 7  -4012749.581 6  20758125.863 0  20758127.203 0
    256835.982 7    200132.743 6  20388742.775 0  20388743.732 0
  -7107862.131 7  -5379929.210 6  21052529.292 0  21052532.348 0
  -8580367.257 7  -6590824.830 7  22279411.529 0  22279412.829 0
 88  2 29  5 40 59.0800000  0  4  6  8 11  9
  -5178652.089 7  -4035312.082 7  20752616.715 0  20752616.149 0
    296547.957 7    231077.137 7  20396299.478 0  20396300.600 0
  -7158997.061 7  -5419774.597 6  21042798.615 0  21042800.217 0
  -8667290.785 7  -6658557.444 7  22262869.635 0  22262872.013 0
 88  2 29  5 41 29.0800000  0  4  6  8 11  9
  -5207227.942 7  -4057578.986 6  20747178.667 0  20747179.606 0
    336854.849 7    262485.109 6  20403969.907 0  20403970.788 0
  -7209613.051 7  -5459215.610 5  21033166.391 0  21033169.514 0
  -8754098.118 7  -6726199.485 6  22246351.215 0  22246352.432 0
 88  2 29  5 41 59.0800000  0  4  6  8 11  9
  -5235422.400 7  -4079548.683 7  20741813.742 0  20741813.785 0
    377754.483 7    294354.949 6  20411752.474 0  20411753.427 0
  -7259709.436 8  -5498251.733 6  21023633.314 0  21023635.982 0
  -8840786.628 7  -6793748.981 7  22229854.271 0  22229856.730 0
 88  2 29  5 42 29.0800000  0  4  6  8 11  9
  -5263232.682 7  -4101219.032 6  20736520.242 0  20736522.188 0
    419244.783 7    326685.050 5  20419647.616 0  20419648.887 0
  -7309284.452 7  -5536881.609 6  21014199.485 0  21014201.788 0
  -8927353.782 7  -6861203.879 7  22213382.912 0  22213383.750 0
 88  2 29  5 42 59.0800000  0  4  6  8 11  9
  -5290656.725 7  -4122588.425 7  20731301.640 0  20731303.712 0
    461322.961 6    359473.252 7  20427654.338 0  20427655.726 0
  -7358337.427 8  -5575104.683 6  21004864.483 0  21004866.626 0
  -9013797.328 7  -6928562.473 7  22196932.007 0  22196933.595 0
 88  2 29  5 43 29.0800000  0  4  6  8 11  9
  -5317692.417 7  -4143655.193 6  20726157.376 0  20726159.231 0
    503986.221 7    392717.345 6  20435772.680 0  20435775.701 0
  -7406867.426 7  -5612920.266 6  20995629.740 0  20995631.625 0
  -9100114.959 7  -6995822.962 7  22180506.347 0  22180507.951 0
 88  2 29  5 43 59.0800000  0  4  6  8 11  9
  -5344337.567 7  -4164417.648 7  20721087.369 0  20721088.643 0
    547232.673 7    426415.886 7  20444002.877 0  20444004.414 0
  -7454873.748 7  -5650327.757 6  20986494.284 0  20986496.844 0
  -9186304.689 8  -7062983.774 7  22164104.316 0  22164105.696 0
 88  2 29  5 44 29.0800000  0  4  6  8 11  9
  -5370589.800 7  -4184873.936 7  20716091.635 0  20716092.652 0
    591060.005 7    460567.037 7  20452343.177 0  20452343.717 0
  -7502355.892 7  -5687326.827 6  20977459.942 0  20977460.738 0
  -9272363.607 8  -7130042.663 7  22147728.329 0  22147729.312 0
 88  2 29  5 44 59.0800000  0  4  6  8 11  9
  -5396447.106 7  -4205022.479 6  20711171.265 0  20711172.533 0
    635465.729 7    495168.919 6  20460793.719 0  20460794.070 0
  -7549312.899 7  -5723916.687 6  20968523.498 0  20968525.550 0
  -9358290.057 7  -7196998.325 7  22131377.005 0  22131378.686 0
 88  2 29  5 45 29.0800000  0  4  6  8 11  9
  -5421906.943 7  -4224861.320 7  20706326.633 0  20706327.658 0
    680447.254 7    530219.456 6  20469351.957 0  20469353.940 0
  -7595743.615 7  -5760096.462 6  20959688.480 0  20959689.965 0
  -9444080.636 8  -7263848.122 6  22115051.901 0  22115052.919 0
 88  2 29  5 45 59.0800000  0  4  6  8 11  9
  -5446967.408 7  -4244388.961 7  20701557.325 0  20701558.593 0
    726001.589 7    565716.348 6  20478021.082 0  20478022.329 0
  -7641647.665 7  -5795865.831 6  20950953.846 0  20950955.758 0
  -9529734.218 8  -7330591.163 6  22098751.890 0  22098753.431 0
 88  2 29  5 46 29.0800000  0  4  6  8 11  9
  -5471626.011 7  -4263603.444 7  20696864.620 0  20696866.758 0
    772126.553 7    601657.880 6  20486798.816 0  20486800.090 0
  -7687024.325 8  -5831224.254 6  20942318.658 0  20942319.975 0
  -9615247.072 7  -7397224.539 7  22082479.372 0  22082480.810 0
 88  2 29  5 46 59.0800000  0  4  6  8 11  9
  -5495880.928 7  -4282503.387 7  20692249.385 0  20692250.847 0
    818819.509 7    638042.017 6  20495683.614 0  20495685.987 0
  -7731873.089 7  -5866171.335 6  20933783.670 0  20933785.256 0
  -9700617.616 7  -7463747.028 6  22066234.246 0  22066235.984 0
 88  2 29  5 47 29.0800000  0  4  6  8 11  9
  -5519729.723 7  -4301086.868 7  20687710.663 0  20687712.784 0
    866077.834 7    674866.679 6  20504677.211 0  20504679.069 0
  -7776192.865 7  -5900706.212 6  20925350.254 0  20925351.112 0
  -9785843.339 7  -7530156.685 6  22050016.352 0  22050017.765 0
 88  2 29  5 47 59.0800000  0  4  6  8 11  9
  -5543170.098 7  -4319352.082 6  20683250.868 0  20683252.408 0
    913898.984 7    712129.920 7  20513777.800 0  20513778.619 0
  -7819982.922 7  -5934828.318 6  20917017.648 0  20917019.247 0
  -9870921.200 7  -7596451.099 6  22033827.410 0  22033828.498 0
 88  2 29  5 48 29.0800000  0  4  6  8 11  9
  -5566200.151 7  -4337297.589 6  20678869.437 0  20678869.492 0
    962280.134 7    749829.508 6  20522983.890 0  20522985.275 0
  -7863243.081 7  -5968537.519 6  20908784.217 0  20908787.638 0
  -9955849.240 7  -7662628.787 7  22017665.930 0  22017667.716 0
 88  2 29  5 48 59.0800000  0  4  6  8 11  9
  -5588817.324 7  -4354921.360 7  20674564.010 0  20674565.269 0
   1011219.063 8    787963.753 6  20532296.220 0  20532297.215 0
  -7905972.066 7  -6001832.807 5  20900654.055 0  20900655.007 0
 -10040625.288 7  -7728688.040 6  22001533.795 0  22001534.692 0
 88  2 29  5 49 29.0800000  0  4  6  8 11  9
  -5611019.682 7  -4372221.895 6  20670339.607 0  20670340.429 0
   1060712.689 7    826530.209 6  20541714.308 0  20541716.444 0
  -7948169.456 7  -6034713.889 7  20892623.697 0  20892625.931 0
 -10125245.859 7  -7794626.140 6  21985430.335 0  21985431.089 0
 88  2 29  5 49 59.0800000  0  4  6  8 11  9
  -5632805.018 8  -4389197.488 7  20666194.297 0  20666194.872 0
   1110758.530 7    865526.976 6  20551238.496 0  20551239.351 0
  -7989834.689 7  -6067180.288 6  20884695.196 0  20884697.666 0
 -10209709.080 7  -7860441.623 6  21969357.393 0  21969359.198 0
 88  2 29  5 50 29.0800000  0  4  6  8 11  9
  -5654171.250 7  -4405846.506 6  20662128.501 0  20662129.368 0
   1161353.805 7    904951.873 6  20560865.824 0  20560867.519 0
  -8030967.707 7  -6099231.975 6  20876868.264 0  20876869.021 0
 -10294012.748 7  -7926132.770 7  21953315.181 0  21953316.284 0
 88  2 29  5 50 59.0800000  0  4  6  8 11  9
  -5675116.017 8  -4422167.100 7  20658142.194 0  20658143.937 0
   1212496.131 7    944803.043 6  20570598.558 0  20570599.510 0
  -8071567.530 7  -6130868.191 5  20869142.318 0  20869144.198 0
 -10378153.503 7  -7991696.983 7  21937303.190 0  21937305.252 0
 88  2 29  5 51 29.0800000  0  4  6  8 11  9
  -5695637.146 7  -4438157.592 6  20654237.164 0  20654239.079 0
   1264182.660 7    985078.261 7  20580434.287 0  20580434.982 0
  -8111633.636 7  -6162088.508 5  20861517.533 0  20861519.656 0
 -10462129.437 8  -8057132.774 6  21921323.630 0  21921324.879 0
 88  2 29  5 51 59.0800000  0  4  6  8 11  9
  -5715732.776 7  -4453816.519 7  20650413.657 0  20650414.592 0
   1316410.303 8   1025775.137 6  20590372.665 0  20590373.026 0
  -8151165.857 7  -6192892.844 6  20853995.615 0  20853997.522 0
 -10545938.234 8  -8122438.320 6  21905375.468 0  21905375.874 0
 88  2 29  5 52 29.0800000  0  4  6  8 11  9
  -5735400.877 7  -4469142.315 7  20646670.335 0  20646671.812 0
   1369176.753 7   1066891.848 7  20600412.824 0  20600414.747 0
  -8190163.423 7  -6223280.545 6  20846573.937 0  20846575.350 0
 -10629576.781 7  -8187611.195 6  21889459.944 0  21889461.275 0
 88  2 29  5 52 59.0800000  0  4  6  8 11  9
  -5754639.278 7  -4484133.282 7  20643009.551 0  20643010.639 0
   1422478.854 7   1108425.963 6  20610556.395 0  20610556.783 0
  -8228626.016 7  -6253251.389 6  20839255.983 0  20839257.616 0
 -10713043.189 7  -8252649.948 6  21873576.423 0  21873577.015 0
 88  2 29  5 53 29.0800000  0  4  6  8 11  9
  -5773445.857 7  -4498787.742 6  20639430.107 0  20639431.766 0
   1476313.638 7   1150375.140 6  20620801.558 0  20620803.110 0
  -8266553.280 7  -6282805.104 6  20832037.922 0  20832039.085 0
 -10796334.325 7  -8317552.116 7  21857726.910 0  21857727.382 0
 88  2 29  5 53 59.0800000  0  4  6  8 11  9
  -5791818.534 7  -4513104.116 7  20635934.436 0  20635935.811 0
   1530678.733 7   1192737.543 7  20631146.178 0  20631147.649 0
  -8303945.104 7  -6311941.565 6  20824921.890 0  20824924.253 0
 -10879447.913 7  -8382315.934 7  21841909.929 0  21841911.612 0
 88  2 29  5 54 29.0800000  0  4  6  8 11  9
  -5809755.041 7  -4527080.630 6  20632520.499 0  20632523.067 0
   1585571.253 7   1235510.941 6  20641592.467 0  20641593.885 0
  -8340800.706 7  -6340660.205 6  20817908.858 0  20817910.657 0
 -10962381.549 7  -8446939.542 7  21826128.408 0  21826130.321 0
 88  2 29  5 54 59.0800000  0  4  6  8 11  9
  -5827253.474 7  -4540715.780 6  20629191.205 0  20629193.072 0
   1640988.228 7   1278693.007 6  20652137.672 0  20652138.847 0
  -8377119.893 6  -6368960.853 6  20810996.804 0  20810999.232 0
 -11045131.979 7  -8511420.380 7  21810382.683 0  21810383.708 0
 88  2 29  5 55 29.0800000  0  4  6  8 11  9
  -5844311.772 6  -4554007.955 7  20625944.707 0  20625946.901 0
   1696926.885 7   1322281.575 6  20662782.212 0  20662782.734 0
  -8412902.150 7  -6396843.132 6  20804188.003 0  20804189.669 0
 -11127697.103 7  -8575756.823 6  21794670.742 0  21794671.403 0
 88  2 29  5 55 59.0800000  0  4  6  8 11  9
  -5860928.086 7  -4566955.729 7  20622782.933 0  20622784.148 0
   1753384.214 7   1366274.304 6  20673526.222 0  20673527.552 0
  -8448147.698 7  -6424307.188 6  20797480.941 0  20797482.752 0
 -11210074.560 7  -8639947.039 6  21778994.005 0  21778996.365 0
 88  2 29  5 56 29.0800000  0  4  6  8 11  9
  -5877100.313 6  -4579557.464 6  20619706.228 0  20619706.615 0
   1810357.689 7   1410669.221 6  20684367.387 0  20684370.069 0
  -8482856.208 7  -6451352.767 6  20790875.876 0  20790877.780 0
 -11292261.288 7  -8703988.631 7  21763354.806 0  21763355.407 0
 88  2 29  5 56 59.0800000  0  4  6  8 11  9
  -5892826.369 6  -4591811.552 5  20616712.669 0  20616714.761 0
   1867844.301 8   1455463.986 6  20695307.484 0  20695308.972 0
  -8517027.090 7  -6477979.418 6  20784373.410 0  20784374.967 0
 -11374254.738 7  -8767879.619 6  21747752.189 0  21747753.842 0
 88  2 29  5 57 29.0800000  0  4  6  8 11  9
  -5908104.365 7  -4603716.481 7  20613805.534 0  20613807.220 0
   1925840.915 7   1500656.171 6  20706343.151 0  20706344.172 0
  -8550660.746 7  -6504187.455 6  20777972.842 0  20777975.587 0
 -11456052.816 7  -8831618.369 6  21732186.496 0  21732187.001 0
 88  2 29  5 57 59.0800000  0  4  6  8 11  9
  -5922931.917 7  -4615270.407 6  20610984.762 0  20610986.110 0
   1984345.146 7   1546243.869 6  20717476.472 0  20717477.189 0
  -8583755.973 7  -6529975.937 6  20771675.023 0  20771677.456 0
 -11537651.907 7  -8895202.079 7  21716658.270 0  21716659.688 0
 88  2 29  5 58 29.0800000  0  4  6  8 11  9
  -5937307.442 7  -4626472.126 6  20608248.874 0  20608249.846 0
   2043353.463 7   1592224.376 7  20728704.434 0  20728706.590 0
  -8616313.383 7  -6555345.343 5  20765479.906 0  20765482.062 0
 -11619050.179 7  -8958629.291 7  21701168.491 0  21701169.903 0
 88  2 29  5 58 59.0800000  0  4  6  8 11  9
  -5951228.714 7  -4637319.862 7  20605598.759 0  20605600.874 0
   2102863.360 7   1638595.738 7  20740029.174 0  20740031.101 0
  -8648332.343 7  -6580295.157 6  20759386.953 0  20759389.666 0
 -11700244.695 7  -9021897.735 7  21685717.990 0  21685719.663 0
 88  2 29  5 59 29.0800000  0  4  6  8 11  9
  -5964694.209 7  -4647812.457 7  20603037.493 0  20603038.168 0
   2162871.467 7   1685355.289 6  20751449.118 0  20751449.412 0
  -8679813.068 7  -6604825.592 6  20753396.039 0  20753399.129 0
 -11781233.351 8  -9085005.777 7  21670306.440 0  21670308.319 0
 88  2 29  5 59 59.0800000  0  4  6  8 11  9
  -5977701.484 7  -4657947.998 7  20600562.482 0  20600562.322 0
   2223375.198 7   1732501.056 7  20762962.607 0  20762962.850 0
  -8710755.108 7  -6628936.259 6  20747508.669 0  20747510.152 0
 -11862012.636 7  -9147950.660 6  21654935.066 0  21654935.970 0
 88  2 29  6  0 29.0800000  0  4  6  8 11  9
  -5990248.559 7  -4667724.959 7  20598174.755 0  20598175.661 0
   2284371.629 8   1780030.750 6  20774569.374 0  20774570.427 0
  -8741158.604 7  -6652627.271 5  20741722.350 0  20741723.950 0
 -11942579.961 7  -9210730.379 6  21639603.490 0  21639604.958 0
 88  2 29  6  0 59.0800000  0  4  6  8 11  9
  -6002333.715 7  -4677141.960 7  20595874.900 0  20595875.960 0
   2345857.626 8   1827941.910 6  20786269.556 0  20786270.229 0
  -8771023.277 7  -6675898.441 6  20736039.228 0  20736041.312 0
 -12022933.139 8  -9273343.240 7  21624312.421 0  21624313.884 0
 88  2 29  6  1 29.0800000  0  4  6  8 11  9
  -6013955.101 7  -4686197.581 6  20593663.656 0  20593665.059 0
   2407830.128 7   1876232.173 6  20798062.141 0  20798063.165 0
  -8800349.171 7  -6698749.786 6  20730459.131 0  20730461.704 0
 -12103069.073 7  -9335786.826 6  21609063.217 0  21609064.336 0
 88  2 29  6  1 59.0800000  0  4  6  8 11  9
  -6025110.735 7  -4694890.273 7  20591540.806 0  20591541.939 0
   2470286.043 7   1924899.118 6  20809947.229 0  20809948.671 0
  -8829136.472 7  -6721181.443 5  20724980.945 0  20724983.889 0
 -12182985.165 7  -9398059.087 6  21593855.407 0  21593856.544 0
 88  2 29  6  2 29.0800000  0  4  6  8 11  9
  -6035798.593 6  -4703218.494 6  20589506.214 0  20589507.896 0
   2533222.712 7   1973940.683 6  20821924.151 0  20821925.441 0
  -8857385.133 7  -6743193.373 6  20719604.354 0  20719607.815 0
 -12262678.681 8  -9460157.931 6  21578690.264 0  21578691.464 0
 88  2 29  6  2 59.0800000  0  4  6  8 11  9
  -6046017.016 7  -4711180.902 6  20587561.293 0  20587563.720 0
   2596636.882 8   2023354.321 6  20833990.775 0  20833992.589 0
  -8885095.207 7  -6764785.638 6  20714333.195 0  20714334.938 0
 -12342147.061 7  -9522081.333 6  21563567.659 0  21563568.742 0
 88  2 29  6  3 29.0800000  0  4  6  8 11  9
  -6055764.221 7  -4718776.127 7  20585706.699 0  20585708.856 0
   2660525.497 7   2073137.659 6  20846149.191 0  20846149.740 0
  -8912266.835 7  -6785958.325 6  20709161.899 0  20709164.338 0
 -12421387.496 7  -9583827.117 7  21548488.612 0  21548489.840 0
 88  2 29  6  3 59.0800000  0  4  6  8 11  9
  -6065037.973 7  -4726002.430 6  20583942.433 0  20583943.384 0
   2724885.915 8   2123288.634 7  20858396.907 0  20858397.327 0
  -8938899.792 7  -6806711.263 6  20704093.986 0  20704096.540 0
 -12500397.072 7  -9645393.009 6  21533453.909 0  21533455.744 0
 88  2 29  6  4 29.0800000  0  4  6  8 11  9
  -6073837.005 7  -4732858.819 7  20582268.466 0  20582268.653 0
   2789714.846 8   2173804.691 6  20870733.415 0  20870733.985 0
  -8964994.304 6  -6827044.641 6  20699128.826 0  20699129.939 0
 -12579173.243 8  -9706777.043 7  21518462.743 0  21518463.731 0
 88  2 29  6  4 59.0800000  0  4  6  8 11  9
  -6082159.221 7  -4739343.667 7  20580684.316 0  20580684.462 0
   2855008.719 7   2224683.040 7  20883157.743 0  20883158.421 0
  -8990550.918 7  -6846958.881 6  20694264.507 0  20694266.936 0
 -12657713.576 8  -9767977.291 6  21503517.893 0  21503518.323 0
 88  2 29  6  5 29.0800000  0  4  6  8 11  9
  -6090003.095 6  -4745455.775 7  20579192.121 0  20579192.896 0
   2920765.033 8   2275921.724 6  20895670.885 0  20895671.380 0
  -9015569.336 7  -6866453.742 6  20689503.324 0  20689505.897 0
 -12736014.848 7  -9828991.262 7  21488616.955 0  21488618.666 0
 88  2 29  6  5 59.0800000  0  4  6  8 11  9
  -6097366.050 7  -4751193.153 7  20577791.177 0  20577791.164 0
   2986980.953 7   2327518.552 6  20908272.065 0  20908273.467 0
  -9040049.581 7  -6885529.247 7  20684845.941 0  20684847.801 0
 -12814074.420 7  -9889816.890 6  21473763.233 0  21473764.561 0
 88  2 29  6  6 29.0800000  0  4  6  8 11  9
  -6104246.705 7  -4756554.711 6  20576481.073 0  20576483.647 0
   3053653.082 8   2379470.850 6  20920958.917 0  20920960.071 0
  -9063992.169 8  -6904185.794 6  20680288.997 0  20680291.586 0
 -12891889.519 7  -9950452.011 6  21458955.087 0  21458956.608 0
 88  2 29  6  6 59.0800000  0  4  6  8 11  9
  -6110643.345 7  -4761539.108 6  20575264.706 0  20575265.117 0
   3120778.182 8   2431776.130 6  20933732.641 0  20933733.440 0
  -9087397.089 7  -6922423.375 6  20675834.563 0  20675838.312 0
 -12969457.415 7 -10010894.521 6  21444194.798 0  21444196.749 0
 88  2 29  6  7 29.0800000  0  4  6  8 11  9
  -6116554.384 7  -4766145.113 6  20574139.566 0  20574140.431 0
   3188353.227 7   2484432.014 6  20946592.265 0  20946592.646 0
  -9110264.460 7  -6940242.104 6  20671483.439 0  20671486.460 0
 -13046775.491 7 -10071142.371 6  21429481.103 0  21429482.660 0
 88  2 29  6  7 59.0800000  0  4  6  8 11  9
  -6121978.199 7  -4770371.452 6  20573107.702 0  20573109.158 0
   3256374.976 8   2537435.966 6  20959535.373 0  20959536.758 0
  -9132595.022 6  -6957642.522 6  20667234.627 0  20667236.943 0
 -13123840.975 7 -10131193.385 6  21414816.793 0  21414818.375 0
 88  2 29  6  8 29.0800000  0  4  6  8 11  9
  -6126912.682 7  -4774216.519 7  20572167.727 0  20572169.653 0
   3324840.305 8   2590785.584 6  20972563.377 0  20972565.352 0
  -9154388.774 7  -6974624.662 6  20663087.482 0  20663089.338 0
 -13200650.903 8 -10191045.281 6  21400199.781 0  21400200.894 0
 88  2 29  6  8 59.0800000  0  4  6  8 11  9
  -6131356.080 7  -4777678.921 6  20571322.895 0  20571324.898 0
   3393746.490 8   2644478.708 6  20985676.071 0  20985677.156 0
  -9175645.720 6  -6991188.517 6  20659042.992 0  20659043.617 0
 -13277202.385 7 -10250695.772 7  21385632.875 0  21385634.344 0
 88  2 29  6  9 29.0800000  0  4  6  8 11  9
  -6135307.112 7  -4780757.633 6  20570570.339 0  20570572.893 0
   3463089.631 8   2698512.335 6  20998871.970 0  20998873.023 0
  -9196366.992 7  -7007334.949 6  20655098.783 0  20655101.383 0
 -13353492.614 7 -10310142.696 6  21371114.591 0  21371116.598 0
 88  2 29  6  9 59.0800000  0  4  6  8 11  9
  -6138764.060 7  -4783451.370 6  20569912.427 0  20569914.435 0
   3532867.043 7   2752884.333 6  21012149.952 0  21012151.723 0
  -9216552.724 7  -7023064.082 6  20651258.609 0  20651261.599 0
 -13429519.264 7 -10369384.232 5  21356647.998 0  21356648.536 0
 88  2 29  6 10 29.0800000  0  4  6  8 11  9
  -6141725.236 7  -4785758.777 6  20569349.246 0  20569350.101 0
   3603075.586 7   2807592.299 6  21025510.284 0  21025510.860 0
  -9236203.207 7  -7038376.147 6  20647518.332 0  20647521.119 0
 -13505279.141 7 -10428417.893 7  21342231.455 0  21342232.166 0
 88  2 29  6 10 59.0800000  0  4  6  8 11  9
  -6144188.771 7  -4787678.428 7  20568880.804 0  20568881.978 0
   3673712.285 7   2862633.876 6  21038951.697 0  21038953.726 0
  -9255318.503 6  -7053271.174 6  20643880.713 0  20643883.211 0
 -13580769.615 7 -10487241.640 7  21327866.629 0  21327866.649 0
 88  2 29  6 11 29.0800000  0  4  6  8 11  9
  -6146153.225 7  -4789209.177 6  20568506.802 0  20568507.613 0
   3744774.087 7   2918006.718 7  21052474.657 0  21052475.408 0
  -9273899.001 7  -7067749.473 7  20640345.543 0  20640346.787 0
 -13655987.585 7 -10545853.040 6  21313551.999 0  21313553.373 0
 88  2 29  6 11 59.0800000  0  4  6  8 11  9
  -6147616.832 7  -4790349.659 6  20568227.957 0  20568228.671 0
   3816257.683 7   2973708.213 6  21066077.425 0  21066078.322 0
  -9291945.264 7  -7081811.501 6  20636911.238 0  20636913.522 0
 -13730930.276 8 -10604249.937 7  21299291.848 0  21299292.129 0
 88  2 29  6 12 29.0800000  0  4  6  8 11  9
  -6148578.233 7  -4791098.802 6  20568045.188 0  20568046.520 0
   3888159.983 7   3029735.975 7  21079759.706 0  21079762.922 0
  -9309458.094 7  -7095457.845 7  20633577.843 0  20633581.578 0
 -13805595.227 7 -10662430.414 6  21285083.064 0  21285084.108 0
 88  2 29  6 12 59.0800000  0  4  6  8 11  9
  -6149035.826 7  -4791455.373 6  20567958.180 0  20567958.839 0
   3960477.877 7   3086087.590 7  21093521.562 0  21093523.534 0
  -9326437.751 7  -7108688.735 6  20630347.917 0  20630347.954 0
 -13879979.333 8 -10720392.057 6  21270927.589 0  21270928.902 0
 88  2 29  6 13 29.0800000  0  4  6  8 11  9
  -6148987.810 7  -4791417.964 6  20567967.379 0  20567967.668 0
   4033208.515 7   3142760.809 6  21107361.564 0  21107363.430 0
  -9342884.628 7  -7121504.486 6  20627217.138 0  20627221.004 0
 -13954079.817 8 -10778132.695 7  21256826.775 0  21256828.595 0
 88  2 29  6 13 59.0800000  0  4  6  8 11  9
  -6148433.168 7  -4790985.797 6  20568071.987 0  20568073.879 0
   4106347.845 7   3199752.497 7  21121279.485 0  21121280.972 0
  -9358799.686 7  -7133905.813 6  20624188.959 0  20624191.919 0
 -14027893.960 7 -10835650.198 6  21242780.923 0  21242782.109 0
 88  2 29  6 14 29.0800000  0  4  6  8 11  9
  -6147369.941 7  -4790157.308 6  20568275.301 0  20568276.342 0
   4179893.255 7   3257060.606 6  21135275.281 0  21135276.918 0
  -9374182.981 7  -7145892.801 6  20621262.060 0  20621263.744 0
 -14101418.596 7 -10892942.114 6  21228790.516 0  21228790.728 0
 88  2 29  6 14 59.0800000  0  4  6  8 11  9
  -6145796.970 7  -4788931.614 6  20568574.228 0  20568576.439 0
   4253841.306 7   3314682.454 7  21149346.907 0  21149348.069 0
  -9389035.361 7  -7157466.058 6  20618435.568 0  20618438.798 0
 -14174651.438 7 -10950006.668 6  21214853.956 0  21214855.314 0
 88  2 29  6 15 29.0800000  0  4  6  8 11  9
  -6143712.383 7  -4787307.274 7  20568971.357 0  20568972.832 0
   4328189.123 8   3372615.829 7  21163495.057 0  21163495.944 0
  -9403357.039 7  -7168625.790 6  20615710.255 0  20615712.586 0
 -14247589.079 7 -11006841.193 6  21200973.818 0  21200975.957 0
 88  2 29  6 15 59.0800000  0  4  6  8 11  9
  -6141114.869 7  -4785283.244 6  20569465.115 0  20569466.699 0
   4402933.519 7   3430858.207 6  21177717.978 0  21177719.440 0
  -9417149.121 7  -7179372.869 7  20613085.296 0  20613088.541 0
 -14320228.745 7 -11063443.520 6  21187151.921 0  21187151.402 0
 88  2 29  6 16 29.0800000  0  4  6  8 11  9
  -6138003.186 6  -4782858.567 7  20570057.384 0  20570058.673 0
   4478070.997 7   3489406.885 6  21192015.615 0  21192018.135 0
  -9430412.017 7  -7189707.600 6  20610561.199 0  20610564.628 0
 -14392567.635 8 -11119811.488 7  21173385.565 0  21173386.936 0
 88  2 29  6 16 59.0800000  0  4  6  8 11  9
  -6134375.749 7  -4780032.001 6  20570748.195 0  20570747.974 0
   4553598.362 7   3548259.383 6  21206388.261 0  21206389.611 0
  -9443146.507 7  -7199630.580 6  20608137.910 0  20608140.683 0
 -14464603.191 8 -11175943.087 6  21159677.639 0  21159679.560 0
 88  2 29  6 17 29.0800000  0  4  6  8 11  9
  -6130231.210 7  -4776802.492 6  20571536.935 0  20571538.041 0
   4629512.533 8   3607413.276 7  21220835.007 0  21220836.406 0
  -9455353.182 7  -7209142.251 6  20605815.574 0  20605816.816 0
 -14536332.149 8 -11231835.785 6  21146028.021 0  21146028.216 0
 88  2 29  6 17 59.0800000  0  4  6  8 11  9
  -6125567.881 7  -4773168.728 7  20572423.643 0  20572424.756 0
   4705810.509 8   3666866.250 7  21235353.536 0  21235355.508 0
  -9467032.573 6  -7218243.077 6  20603592.412 0  20603596.002 0
 -14607751.766 7 -11287487.418 6  21132436.881 0  21132438.869 0
 88  2 29  6 18 29.0800000  0  4  6  8 11  9
  -6120384.784 7  -4769129.962 6  20573409.379 0  20573411.027 0
   4782488.449 7   3726615.289 6  21249945.208 0  21249947.047 0
  -9478185.845 6  -7226933.941 6  20601471.482 0  20601473.612 0
 -14678859.327 7 -11342895.907 6  21118905.674 0  21118907.223 0
 88  2 29  6 18 59.0800000  0  4  6  8 11  9
  -6114680.483 7  -4764685.058 6  20574494.792 0  20574498.225 0
   4859543.690 7   3786658.330 6  21264609.110 0  21264610.003 0
  -9488813.508 6  -7235215.225 6  20599448.750 0  20599451.008 0
 -14749651.903 7 -11398058.953 6  21105434.959 0  21105436.659 0
 88  2 29  6 19 29.0800000  0  4  6  8 11  9
  -6108453.618 7  -4759832.970 7  20575681.331 0  20575682.397 0
   4936972.803 8   3846992.708 6  21279342.567 0  21279343.262 0
  -9498916.524 6  -7243087.699 6  20597526.070 0  20597528.655 0
 -14820126.603 7 -11452974.296 7  21092023.033 0  21092025.765 0
 88  2 29  6 19 59.0800000  0  4  6  8 11  9
  -6101702.763 6  -4754572.557 7  20576965.389 0  20576966.929 0
   5014772.771 7   3907616.077 6  21294146.530 0  21294148.651 0
  -9508495.203 7  -7250551.583 6  20595702.381 0  20595705.866 0
 -14890280.536 7 -11507639.690 6  21078673.847 0  21078675.309 0
 88  2 29  6 20 29.0800000  0  4  6  8 11  9
  -6094426.520 7  -4748902.776 6  20578349.832 0  20578351.104 0
   5092940.395 8   3968525.912 7  21309022.055 0  21309023.919 0
  -9517550.404 6  -7257607.581 6  20593979.697 0  20593982.756 0
 -14960110.420 7 -11562052.583 6  21065385.410 0  21065387.280 0
 88  2 29  6 20 59.0800000  0  4  6  8 11  9
  -6086623.849 7  -4742822.776 6  20579835.057 0  20579836.327 0
   5171472.403 8   4029719.666 7  21323966.506 0  21323967.713 0
  -9526083.147 6  -7264256.465 6  20592356.008 0  20592359.210 0
 -15029613.945 7 -11616211.173 6  21052160.201 0  21052160.983 0
 88  2 29  6 21 29.0800000  0  4  6  8 11  9
  -6078293.325 7  -4736331.469 6  20581420.475 0  20581421.516 0
   5250365.813 7   4091195.065 6  21338979.237 0  21338979.910 0
  -9534094.216 7  -7270498.854 6  20590831.710 0  20590834.740 0
 -15098787.886 7 -11670112.933 6  21038996.400 0  21038996.683 0
 88  2 29  6 21 59.0800000  0  4  6  8 11  9
  -6069433.848 7  -4729427.983 6  20583105.926 0  20583107.288 0
   5329617.232 8   4152949.417 6  21354060.452 0  21354061.276 0
  -9541584.628 7  -7276335.528 6  20589406.116 0  20589409.147 0
 -15167629.749 7 -11723755.940 6  21025896.672 0  21025896.965 0
 88  2 29  6 22 29.0800000  0  4  6  8 11  9
  -6060044.278 7  -4722111.437 7  20584892.404 0  20584893.425 0
   5409223.441 7   4214980.223 7  21369208.332 0  21369209.994 0
  -9548555.043 7  -7281767.012 6  20588079.684 0  20588082.546 0
 -15236136.386 7 -11777137.735 7  21012859.476 0  21012861.066 0
 88  2 29  6 22 59.0800000  0  4  6  8 11  9
  -6050123.519 7  -4714380.986 6  20586780.686 0  20586781.930 0
   5489181.132 8   4277284.923 7  21384424.708 0  21384425.810 0
  -9555006.901 6  -7286794.418 5  20586851.932 0  20586854.159 0
 -15304304.974 7 -11830256.116 6  20999887.699 0  20999889.625 0
 88  2 29  6 23 29.0800000  0  4  6  8 11  9
  -6039670.133 7  -4706235.503 6  20588769.623 0  20588770.904 0
   5569487.344 7   4339861.193 6  21399706.172 0  21399707.031 0
  -9560940.735 6  -7291418.178 5  20585721.692 0  20585725.654 0
 -15372132.546 7 -11883108.761 6  20986980.239 0  20986981.609 0
 88  2 29  6 23 59.0800000  0  4  6  8 11  9
  -6028683.172 7  -4697674.237 6  20590860.629 0  20590860.751 0
   5650138.526 8   4402706.274 6  21415053.290 0  21415054.229 0
  -9566357.475 7  -7295639.021 6  20584691.689 0  20584694.307 0
 -15439616.413 8 -11935693.578 7  20974137.862 0  20974139.934 0
 88  2 29  6 24 29.0800000  0  4  6  8 11  9
  -6017161.535 7  -4688696.344 6  20593052.377 0  20593053.909 0
   5731131.384 8   4465817.590 6  21430466.195 0  21430467.438 0
  -9571258.382 7  -7299457.889 6  20583759.005 0  20583761.695 0
 -15506753.826 7 -11988008.454 6  20961363.202 0  20961364.401 0
 88  2 29  6 24 59.0800000  0  4  6  8 11  9
  -6005103.986 7  -4679300.859 6  20595348.458 0  20595348.412 0
   5812462.784 8   4529192.703 6  21445942.728 0  21445944.753 0
  -9575643.948 7  -7302875.216 6  20582924.625 0  20582926.811 0
 -15573541.541 7 -12040050.829 6  20948653.593 0  20948654.774 0
 88  2 29  6 25 29.0800000  0  4  6  8 11  9
  -5992509.324 7  -4669486.835 7  20597744.431 0  20597745.398 0
   5894129.829 7   4592829.360 6  21461483.615 0  21461484.534 0
  -9579515.657 7  -7305892.125 6  20582188.534 0  20582190.232 0
 -15639976.843 7 -12091818.584 7  20936012.061 0  20936012.493 0
 88  2 29  6 25 59.0800000  0  4  6  8 11  9
  -5979376.626 7  -4659253.586 7  20600242.901 0  20600244.658 0
   5976129.136 7   4656724.924 6  21477087.090 0  21477089.228 0
  -9582874.333 7  -7308509.265 6  20581548.985 0  20581550.615 0
 -15706056.785 7 -12143309.463 6  20923438.118 0  20923437.680 0
 88  2 29  6 26 29.0800000  0  4  6  8 11  9
  -5965704.991 7  -4648600.368 7  20602844.922 0  20602846.581 0
   6058457.230 7   4720876.688 6  21492753.799 0  21492754.175 0
  -9585721.268 7  -7310727.655 6  20581007.142 0  20581009.270 0
 -15771778.476 7 -12194521.153 6  20910929.982 0  20910930.693 0
 88  2 29  6 26 59.0800000  0  4  6  8 11  9
  -5951493.176 7  -4637526.234 6  20605549.384 0  20605551.310 0
   6141111.199 7   4785282.375 7  21508482.613 0  21508483.715 0
  -9588057.257 6  -7312547.900 6  20580562.858 0  20580565.061 0
 -15837138.977 8 -12245451.424 7  20898493.295 0  20898494.215 0
 88  2 29  6 27 29.0800000  0  4  6  8 11  9
  -5936740.288 7  -4626030.492 7  20608357.432 0  20608357.942 0
   6224087.736 7   4849939.411 6  21524271.032 0  21524273.691 0
  -9589883.613 6  -7313971.020 6  20580215.004 0  20580217.235 0
 -15902135.774 7 -12296098.268 6  20886124.916 0  20886125.114 0
 88  2 29  6 27 59.0800000  0  4  6  8 11  9
  -5921445.301 7  -4614112.330 7  20611267.088 0  20611269.264 0
   6307384.016 7   4914845.601 6  21540122.664 0  21540124.881 0
  -9591201.377 6  -7314997.851 6  20579964.180 0  20579966.629 0
 -15966765.671 8 -12346459.227 6  20873825.488 0  20873827.145 0
 88  2 29  6 28 29.0800000  0  4  6  8 11  9
  -5905607.133 7  -4601770.915 6  20614281.287 0  20614283.154 0
   6390996.994 7   4979998.566 7  21556034.314 0  21556034.853 0
  -9592011.402 7  -7315629.015 6  20579810.603 0  20579811.833 0
 -16031025.752 7 -12396532.005 7  20861597.289 0  20861598.247 0
 88  2 29  6 28 59.0800000  0  4  6  8 11  9
  -5889225.103 7  -4589005.695 7  20617399.575 0  20617399.510 0
   6474922.841 7   5045395.327 6  21572004.200 0  21572006.601 0
  -9592315.152 7  -7315865.692 6  20579752.184 0  20579755.455 0
 -16094913.117 7 -12446314.368 6  20849440.746 0  20849440.979 0
 88  2 29  6 29 29.0800000  0  4  6  8 11  9
  -5872298.008 7  -4575815.762 6  20620620.778 0  20620621.879 0
   6559158.654 7   5111033.623 7  21588034.187 0  21588035.660 0
  -9592113.455 6  -7315708.530 6  20579789.977 0  20579792.976 0
 -16158425.066 7 -12495804.203 6  20837353.846 0  20837355.512 0
 88  2 29  6 29 59.0800000  0  4  6  8 11  9
  -5854825.092 7  -4562200.513 7  20623945.082 0  20623946.826 0
   6643701.343 7   5176911.044 7  21604122.177 0  21604122.987 0
  -9591407.991 7  -7315158.812 7  20579925.427 0  20579926.858 0
 -16221558.483 7 -12544999.084 6  20825340.415 0  20825341.742 0
 88  2 29  6 30 29.0800000  0  4  6  8 11  9
  -5836805.554 7  -4548159.328 6  20627374.583 0  20627375.184 0
   6728547.353 7   5243024.811 6  21620268.143 0  21620269.032 0
  -9590199.733 7  -7314217.307 6  20580154.875 0  20580157.869 0
 -16284310.951 8 -12593897.096 6  20813398.915 0  20813400.650 0
 88  2 29  6 30 59.0800000  0  4  6  8 11  9
  -5818238.614 7  -4533691.585 7  20630907.580 0  20630908.529 0
   6813693.279 7   5309372.285 6  21636470.232 0  21636472.527 0
  -9588489.969 7  -7312885.006 6  20580480.186 0  20580481.428 0
 -16346679.411 7 -12642495.890 6  20801531.165 0  20801531.622 0
 88  2 29  6 31 29.0800000  0  4  6  8 11  9
  -5799123.296 7  -4518796.558 6  20634544.257 0  20634545.772 0
   6899136.256 7   5375951.219 7  21652729.926 0  21652731.563 0
  -9586279.899 7  -7311162.875 6  20580900.035 0  20580903.378 0
 -16408660.800 8 -12690793.077 6  20789735.480 0  20789737.123 0
 88  2 29  6 31 59.0800000  0  4  6  8 11  9
  -5779458.879 8  -4503473.638 7  20638287.382 0  20638286.800 0
   6984873.288 7   5442759.304 7  21669044.866 0  21669046.131 0
  -9583570.634 7  -7309051.751 6  20581415.640 0  20581419.315 0
 -16470252.493 7 -12738786.606 6  20778015.094 0  20778016.148 0
 88  2 29  6 32 29.0800000  0  4  6  8 11  9
  -5759244.435 7  -4487722.125 6  20642133.256 0  20642134.464 0
   7070901.069 7   5509793.931 6  21685415.881 0  21685416.619 0
  -9580363.300 7  -7306552.522 5  20582027.202 0  20582027.800 0
 -16531451.303 7 -12786473.990 6  20766370.096 0  20766371.053 0
 88  2 29  6 32 59.0800000  0  4  6  8 11  9
  -5738479.232 7  -4471541.468 6  20646084.625 0  20646086.629 0
   7157216.439 7   5577052.656 7  21701840.716 0  21701841.431 0
  -9576659.446 7  -7303666.392 5  20582731.863 0  20582733.849 0
 -16592254.606 7 -12833853.179 7  20754798.648 0  20754799.828 0
 88  2 29  6 33 29.0800000  0  4  6  8 11  9
  -5717162.709 7  -4454931.188 6  20650140.962 0  20650142.911 0
   7243815.873 8   5644532.738 7  21718320.929 0  21718321.466 0
  -9572460.526 7  -7300394.501 6  20583529.129 0  20583532.563 0
 -16652659.354 7 -12880921.814 6  20743303.809 0  20743306.187 0
 88  2 29  6 33 59.0800000  0  4  6  8 11  9
  -5695294.112 7  -4437890.731 7  20654302.508 0  20654302.863 0
   7330696.748 7   5712232.118 7  21734853.114 0  21734854.896 0
  -9567767.644 7  -7296737.695 6  20584424.672 0  20584425.313 0
 -16712663.109 7 -12927677.986 6  20731885.262 0  20731887.677 0
 88  2 29  6 34 29.0800000  0  4  6  8 11  9
  -5672872.332 7  -4420419.223 6  20658569.530 0  20658570.676 0
   7417855.940 7   5780148.372 6  21751439.226 0  21751439.973 0
  -9562581.869 7  -7292696.843 5  20585409.890 0  20585412.591 0
 -16772262.504 7 -12974119.071 6  20720544.114 0  20720546.050 0
 88  2 29  6 34 59.0800000  0  4  6  8 11  9
  -5649896.947 7  -4402516.331 6  20662941.745 0  20662942.661 0
   7505290.316 7   5848279.054 7  21768077.099 0  21768078.460 0
  -9556904.766 7  -7288273.118 6  20586491.396 0  20586492.595 0
 -16831454.904 7 -13020243.021 7  20709281.687 0  20709281.596 0
 88  2 29  6 35 29.0800000  0  4  6  8 11  9
  -5626367.231 7  -4384181.487 7  20667419.050 0  20667419.654 0
   7592996.795 7   5916621.774 7  21784766.761 0  21784769.089 0
  -9550737.806 6  -7283467.675 6  20587663.777 0  20587667.153 0
 -16890237.301 7 -13066047.479 6  20698094.250 0  20698096.280 0
 88  2 29  6 35 59.0800000  0  4  6  8 11  9
  -5602282.904 7  -4365414.499 6  20672002.448 0  20672002.762 0
   7680972.072 7   5985173.934 7  21801507.660 0  21801509.012 0
  -9544082.669 6  -7278281.851 7  20588931.432 0  20588933.290 0
 -16948607.384 7 -13111530.674 7  20686987.615 0  20686988.019 0
 88  2 29  6 36 29.0800000  0  4  6  8 11  9
  -5577643.133 7  -4346214.682 6  20676691.186 0  20676691.899 0
   7769212.981 7   6053933.082 7  21818300.054 0  21818301.867 0
  -9536940.477 7  -7272716.510 6  20590290.508 0  20590292.180 0
 -17006561.827 7 -13156689.960 6  20675958.930 0  20675961.360 0
 88  2 29  6 36 59.0800000  0  4  6  8 11  9
  -5552447.404 8  -4326581.658 6  20681485.224 0  20681487.259 0
   7857715.983 7   6122896.457 6  21835141.189 0  21835142.794 0
  -9529312.892 7  -7266772.927 6  20591741.049 0  20591742.591 0
 -17064098.006 7 -13201523.340 7  20665009.868 0  20665011.287 0
 88  2 29  6 37 29.0800000  0  4  6  8 11  9
  -5526695.256 6  -4306515.044 6  20686386.752 0  20686387.143 0
   7946477.898 7   6192061.584 7  21852031.960 0  21852034.324 0
  -9521201.307 7  -7260452.207 6  20593284.052 0  20593286.526 0
 -17121213.233 7 -13246028.715 6  20654141.343 0  20654143.148 0
 88  2 29  6 37 59.0800000  0  4  6  8 11  9
  -5500385.945 7  -4286014.305 6  20691392.356 0  20691395.089 0
   8035496.226 7   6261426.520 7  21868971.871 0  21868973.348 0
  -9512607.008 7  -7253755.339 7  20594919.780 0  20594922.383 0
 -17177904.510 7 -13290203.739 7  20643353.809 0  20643354.779 0
 88  2 29  6 38 29.0800000  0  4  6  8 11  9
  -5473519.166 7  -4265079.160 6  20696504.606 0  20696506.731 0
   8124767.720 7   6330988.714 7  21885959.299 0  21885960.804 0
  -9503531.374 7  -7246683.422 6  20596647.344 0  20596649.360 0
 -17234168.846 7 -13334046.069 6  20632646.783 0  20632648.140 0
 88  2 29  6 38 59.0800000  0  4  6  8 11  9
  -5446095.259 7  -4243709.882 6  20701723.663 0  20701724.942 0
   8214289.177 7   6400745.697 7  21902994.820 0  21902996.508 0
  -9493975.974 7  -7239237.638 6  20598465.576 0  20598468.089 0
 -17290003.731 7 -13377553.774 6  20622022.534 0  20622022.357 0
 88  2 29  6 39 29.0800000  0  4  6  8 11  9
  -5418111.975 7  -4221904.740 6  20707049.091 0  20707049.329 0
   8304057.817 7   6470695.283 7  21920077.633 0  21920078.336 0
  -9483942.530 6  -7231419.359 6  20600373.637 0  20600377.199 0
 -17345406.158 7 -13420724.489 7  20611479.497 0  20611480.579 0
 88  2 29  6 39 59.0800000  0  4  6  8 11  9
  -5389569.614 7  -4199663.956 6  20712479.732 0  20712482.341 0
   8394069.954 7   6540834.610 7  21937206.568 0  21937208.553 0
  -9473432.551 7  -7223229.777 6  20602374.322 0  20602377.365 0
 -17400373.507 7 -13463556.198 6  20601018.355 0  20601020.308 0
 88  2 29  6 40 29.0800000  0  4  6  8 11  9
  -5360467.901 7  -4176987.293 6  20718018.007 0  20718020.305 0
   8484322.988 7   6611161.648 6  21954380.958 0  21954382.050 0
  -9462447.314 7  -7214669.832 6  20604464.911 0  20604467.627 0
 -17454903.180 7 -13506046.835 7  20590642.582 0  20590643.693 0
 88  2 29  6 40 59.0800000  0  4  6  8 11  9
  -5330806.430 6  -4153874.481 6  20723662.587 0  20723664.070 0
   8574813.895 8   6681674.034 7  21971601.096 0  21971601.992 0
  -9450988.403 7  -7205740.810 6  20606645.321 0  20606648.291 0
 -17508992.087 7 -13548194.039 5  20580349.979 0  20580350.497 0
 88  2 29  6 41 29.0800000  0  4  6  8 11  9
  -5300585.048 7  -4130325.358 6  20729413.688 0  20729414.992 0
   8665538.886 7   6752368.821 7  21988864.537 0  21988867.552 0
  -9439057.823 7  -7196444.251 6  20608916.160 0  20608918.247 0
 -17562637.484 7 -13589995.642 6  20570142.235 0  20570142.282 0
 88  2 29  6 41 59.0800000  0  4  6  8 11  9
  -5269803.120 7  -4106339.460 6  20735271.066 0  20735271.987 0
   8756495.527 7   6823244.128 7  22006174.190 0  22006175.222 0
  -9426656.824 7  -7186781.127 6  20611275.580 0  20611277.860 0
 -17615836.717 7 -13631449.600 6  20560018.287 0  20560018.164 0
 88  2 29  6 42 29.0800000  0  4  6  8 11  9
  -5238460.287 7  -4081916.478 6  20741234.586 0  20741236.717 0
   8847681.031 8   6894297.764 6  22023525.566 0  22023526.954 0
  -9413786.912 7  -7176752.611 6  20613724.586 0  20613727.084 0
 -17668586.884 7 -13672553.627 7  20549980.382 0  20549980.720 0
 88  2 29  6 42 59.0800000  0  4  6  8 11  9
  -5206556.223 7  -4057056.185 6  20747306.373 0  20747308.551 0
   8939091.996 7   6965527.094 7  22040919.736 0  22040922.191 0
  -9400449.616 7  -7166359.926 6  20616263.295 0  20616265.680 0
 -17720885.136 7 -13713305.507 6  20540027.669 0  20540029.234 0
 88  2 29  6 43 29.0800000  0  4  6  8 11  9
  -5174091.011 7  -4031758.628 6  20753484.866 0  20753485.809 0
   9030724.949 7   7036929.394 7  22058358.014 0  22058358.537 0
  -9386646.915 7  -7155604.559 6  20618889.446 0  20618892.110 0
 -17772729.012 7 -13753703.335 6  20530162.929 0  20530161.793 0
 88  2 29  6 43 59.0800000  0  4  6  8 11  9
  -5141064.427 7  -4006023.637 6  20759769.279 0  20759770.142 0
   9122576.697 8   7108502.177 7  22075836.734 0  22075837.702 0
  -9372380.521 7  -7144487.879 6  20621603.562 0  20621606.906 0
 -17824115.907 7 -13793745.067 6  20520383.104 0  20520384.441 0
 88  2 29  6 44 29.0800000  0  4  6  8 11  9
  -5107476.049 7  -3979850.888 7  20766160.696 0  20766162.595 0
   9214644.977 7   7180243.689 6  22093356.752 0  22093358.056 0
  -9357651.803 6  -7133010.963 6  20624407.380 0  20624408.763 0
 -17875043.013 7 -13833428.529 7  20510692.623 0  20510693.221 0
 88  2 29  6 44 59.0800000  0  4  6  8 11  9
  -5073325.742 7  -3953240.262 7  20772658.837 0  20772661.643 0
   9306926.877 7   7252151.658 6  22110916.049 0  22110919.215 0
  -9342462.823 7  -7121175.392 6  20627297.481 0  20627299.535 0
 -17925507.215 7 -13872751.300 7  20501089.103 0  20501090.100 0
 88  2 29  6 45 29.0800000  0  4  6  8 11  9
  -5038613.231 7  -3926191.579 7  20779265.133 0  20779265.425 0
   9399418.590 7   7324223.123 7  22128517.925 0  22128519.308 0
  -9326814.779 7  -7108982.110 6  20630275.667 0  20630278.201 0
 -17975506.202 7 -13911711.546 6  20491574.905 0  20491576.190 0
 88  2 29  6 45 59.0800000  0  4  6  8 11  9
  -5003338.775 7  -3898704.996 6  20785977.517 0  20785979.592 0
   9492117.373 7   7396455.937 7  22146157.431 0  22146159.167 0
  -9310709.593 6  -7096432.585 6  20633339.385 0  20633341.569 0
 -18025037.334 7 -13950307.228 6  20482149.207 0  20482150.486 0
 88  2 29  6 46 29.0800000  0  4  6  8 11  9
  -4967501.781 7  -3870780.070 7  20792796.630 0  20792798.909 0
   9585020.465 7   7468847.959 7  22163836.984 0  22163837.534 0
  -9294148.760 7  -7083528.048 5  20636491.659 0  20636494.001 0
 -18074097.647 7 -13988536.038 6  20472813.685 0  20472815.831 0
 88  2 29  6 46 59.0800000  0  4  6  8 11  9
  -4931102.258 7  -3842416.812 6  20799723.188 0  20799725.284 0
   9678124.640 8   7541396.657 7  22181553.618 0  22181554.736 0
  -9277134.487 7  -7070270.160 6  20639729.214 0  20639731.257 0
 -18122684.590 7 -14026395.994 6  20463567.936 0  20463569.082 0
 88  2 29  6 47 29.0800000  0  4  6  8 11  9
  -4894140.080 7  -3813615.130 6  20806757.900 0  20806758.425 0
   9771427.173 7   7614099.928 7  22199308.602 0  22199309.446 0
  -9259668.197 7  -7056660.071 6  20643052.914 0  20643054.310 0
 -18170795.179 7 -14063884.772 6  20454413.422 0  20454414.630 0
 88  2 29  6 47 59.0800000  0  4  6  8 11  9
  -4856615.281 7  -3784375.042 7  20813898.324 0  20813899.704 0
   9864924.905 8   7686955.301 6  22217100.773 0  22217101.654 0
  -9241751.565 7  -7042699.069 6  20646462.109 0  20646464.049 0
 -18218427.200 7 -14101000.633 6  20445348.708 0  20445349.405 0
 88  2 29  6 48 29.0800000  0  4  6  8 11  9
  -4818527.991 7  -3754696.646 7  20821145.311 0  20821147.215 0
   9958614.843 7   7759960.460 7  22234929.205 0  22234930.566 0
  -9223386.761 7  -7028388.808 6  20649957.247 0  20649960.590 0
 -18265578.021 7 -14137741.527 6  20436376.081 0  20436377.096 0
 88  2 29  6 48 59.0800000  0  4  6  8 11  9
  -4779878.179 7  -3724579.917 7  20828500.503 0  20828501.626 0
  10052493.931 7   7833113.000 7  22252794.031 0  22252795.237 0
  -9204575.258 7  -7013730.495 6  20653537.007 0  20653538.947 0
 -18312244.824 7 -14174105.278 6  20427496.323 0  20427497.173 0
 88  2 29  6 49 29.0800000  0  4  6  8 11  9
  -4740665.728 8  -3694024.775 7  20835962.335 0  20835963.020 0
  10146559.304 7   7906410.684 7  22270693.501 0  22270694.139 0
  -9185318.879 7  -6998725.524 6  20657201.393 0  20657203.794 0
 -18358425.012 7 -14210089.848 5  20418707.683 0  20418709.136 0
 88  2 29  6 49 59.0800000  0  4  6  8 11  9
  -4700890.887 7  -3663031.415 6  20843531.164 0  20843532.078 0
  10240808.011 8   7979851.250 6  22288628.966 0  22288629.708 0
  -9165619.502 7  -6983375.355 6  20660950.160 0  20660952.632 0
 -18404115.972 7 -14245693.203 6  20410013.205 0  20410014.372 0
 88  2 29  6 50 29.0800000  0  4  6  8 11  9
  -4660553.842 7  -3631599.957 6  20851207.231 0  20851207.688 0
  10335236.993 8   8053432.266 6  22306598.069 0  22306598.644 0
  -9145479.129 7  -6967681.544 6  20664782.636 0  20664783.894 0
 -18449315.498 7 -14280913.596 6  20401411.243 0  20401413.323 0
 88  2 29  6 50 59.0800000  0  4  6  8 11  9
  -4619654.473 7  -3599730.330 6  20858990.367 0  20858992.506 0
  10429843.496 7   8127151.622 6  22324601.826 0  22324602.170 0
  -9124899.307 7  -6951645.316 6  20668699.020 0  20668701.032 0
 -18494020.436 7 -14315748.613 6  20392905.364 0  20392907.111 0
 88  2 29  6 51 29.0800000  0  4  6  8 11  9
  -4578192.954 7  -3567422.664 7  20866880.547 0  20866881.512 0
  10524624.482 7   8201006.934 7  22342637.427 0  22342638.501 0
  -9103882.072 7  -6935268.236 6  20672699.060 0  20672699.543 0
 -18538228.525 7 -14350196.482 7  20384493.044 0  20384493.159 0
 88  2 29  6 51 59.0800000  0  4  6  8 11  9
  -4536169.417 8  -3534677.061 6  20874877.003 0  20874877.982 0
  10619576.662 7   8274995.648 7  22360705.772 0  22360706.916 0
  -9082429.430 7  -6918551.907 6  20676780.300 0  20676783.017 0
 -18581937.113 7 -14384255.124 7  20376173.602 0  20376176.663 0
 88  2 29  6 52 29.0800000  0  4  6  8 11  9
  -4493584.243 8  -3501493.824 6  20882980.091 0  20882981.657 0
  10714697.102 7   8349115.473 6  22378806.794 0  22378807.958 0
  -9060542.965 7  -6901497.497 6  20680944.319 0  20680947.020 0
 -18625143.733 7 -14417922.626 7  20367953.110 0  20367954.051 0
 88  2 29  6 52 59.0800000  0  4  6  8 11  9
  -4450437.618 8  -3467873.080 7  20891191.563 0  20891192.844 0
  10809983.093 7   8423364.298 7  22396939.297 0  22396939.987 0
  -9038224.726 7  -6884106.669 6  20685192.675 0  20685195.021 0
 -18667845.961 7 -14451197.085 6  20359826.711 0  20359827.642 0
 88  2 29  6 53 29.0800000  0  4  6  8 11  9
  -4406729.340 8  -3433814.695 7  20899508.912 0  20899510.414 0
  10905432.573 7   8497740.509 7  22415102.076 0  22415104.402 0
  -9015476.270 7  -6866380.584 6  20689520.825 0  20689523.839 0
 -18710040.716 7 -14484076.116 6  20351797.881 0  20351798.610 0
 88  2 29  6 53 59.0800000  0  4  6  8 11  9
  -4362460.140 8  -3399319.226 6  20907933.024 0  20907933.630 0
  11001041.891 8   8572241.271 7  22433296.607 0  22433298.685 0
  -8992299.949 7  -6848321.110 6  20693931.677 0  20693933.419 0
 -18751725.950 7 -14516558.118 6  20343864.574 0  20343865.591 0
 88  2 29  6 54 29.0800000  0  4  6  8 11  9
  -4317629.888 7  -3364386.573 6  20916464.387 0  20916465.376 0
  11096808.328 7   8646864.466 7  22451520.075 0  22451521.397 0
  -8968697.236 7  -6829929.367 6  20698423.049 0  20698425.050 0
 -18792899.000 7 -14548641.027 6  20336030.145 0  20336031.477 0
 88  2 29  6 54 59.0800000  0  4  6  8 11  9
  -4272239.200 8  -3329017.207 6  20925101.615 0  20925103.312 0
  11192729.047 7   8721607.878 7  22469773.415 0  22469774.692 0
  -8944670.352 7  -6811207.130 6  20702994.695 0  20702996.495 0
 -18833557.390 6 -14580322.880 6  20328292.339 0  20328293.947 0
 88  2 29  6 55 29.0800000  0  4  6  8 11  9
  -4226288.265 8  -3293211.295 7  20933845.990 0  20933846.320 0
  11288801.089 7   8796469.201 7  22488054.318 0  22488056.228 0
  -8920220.950 7  -6792155.643 6  20707648.474 0  20707648.988 0
 -18873698.854 7 -14611601.937 6  20320654.603 0  20320655.792 0
 88  2 29  6 55 59.0800000  0  4  6  8 11  9
  -4179777.505 7  -3256969.151 6  20942696.928 0  20942696.232 0
  11385021.433 7   8871446.089 7  22506364.761 0  22506366.379 0
  -8895351.292 7  -6772776.681 6  20712379.952 0  20712382.527 0
 -18913320.725 6 -14642476.117 6  20313114.236 0  20313115.886 0
 88  2 29  6 56 29.0800000  0  4  6  8 11  9
  -4132707.391 8  -3220291.144 6  20951653.709 0  20951655.227 0
  11481387.496 7   8946536.523 7  22524703.111 0  22524704.899 0
  -8870063.173 7  -6753071.644 6  20717191.995 0  20717195.109 0
 -18952420.591 7 -14672943.552 6  20305673.901 0  20305676.037 0
 88  2 29  6 56 59.0800000  0  4  6  8 11  9
  -4085078.233 8  -3183177.526 6  20960717.083 0  20960718.070 0
  11577896.277 7   9021738.175 7  22543068.149 0  22543070.534 0
  -8844358.433 7  -6733041.973 6  20722084.352 0  20722085.564 0
 -18990996.128 6 -14703002.409 6  20298333.416 0  20298335.773 0
 88  2 29  6 57 29.0800000  0  4  6  8 11  9
  -4036890.410 7  -3145628.584 6  20969887.149 0  20969887.820 0
  11674545.043 7   9097048.887 7  22561458.468 0  22561460.898 0
  -8818239.279 7  -6712689.377 6  20727054.024 0  20727055.752 0
 -19029044.805 7 -14732650.710 6  20291092.516 0  20291095.307 0
 88  2 29  6 57 59.0800000  0  4  6  8 11  9
  -3988144.457 7  -3107644.733 7  20979162.345 0  20979164.306 0
  11771330.878 7   9172466.421 7  22579876.437 0  22579879.273 0
  -8791707.955 7  -6692015.620 6  20732102.435 0  20732105.350 0
 -19066564.278 7 -14761886.672 6  20283952.891 0  20283954.178 0
 88  2 29  6 58 29.0800000  0  4  6  8 11  9
  -3938840.686 7  -3069226.219 6  20988545.814 0  20988545.823 0
  11868251.048 7   9247988.622 7  22598320.778 0  22598322.375 0
  -8764765.922 7  -6671021.823 6  20737229.405 0  20737230.649 0
 -19103552.201 7 -14790708.420 6  20276913.917 0  20276917.216 0
 88  2 29  6 58 59.0800000  0  4  6  8 11  9
  -3888979.815 8  -3030373.600 7  20998032.842 0  20998034.540 0
  11965302.974 7   9323613.499 7  22616789.595 0  22616790.721 0
  -8737415.598 7  -6649709.877 5  20742434.407 0  20742436.018 0
 -19140006.128 7 -14819114.087 6  20269976.989 0  20269978.936 0
 88  2 29  6 59 29.0800000  0  4  6  8 11  9
  -3838562.157 8  -2991087.134 7  21007627.377 0  21007627.796 0
  12062484.176 8   9399339.108 7  22635282.699 0  22635282.935 0
  -8709658.531 7  -6628080.978 6  20747717.062 0  20747717.399 0
 -19175923.808 7 -14847101.892 6  20263142.506 0  20263145.151 0
 88  2 29  6 59 59.0800000  0  4  6  8 11  9
  -3787588.216 7  -2951367.182 6  21017328.167 0  21017328.784 0
  12159791.882 7   9475163.300 6  22653799.113 0  22653799.980 0
  -8681496.889 7  -6606136.838 6  20753075.256 0  20753077.143 0
 -19211302.539 7 -14874669.727 6  20256410.771 0  20256411.660 0
 88  2 29  7  0 29.0800000  0  4  6  8 11  9
  -3736058.804 7  -2911214.409 6  21027133.060 0  21027134.095 0
  12257223.031 7   9551083.668 7  22672340.264 0  22672341.081 0
  -8652932.950 7  -6583879.218 6  20758510.733 0  20758513.863 0
 -19246140.403 7 -14901816.120 6  20249781.343 0  20249782.379 0
 88  2 29  7  0 59.0800000  0  4  6  8 11  9
  -3683974.431 8  -2870629.195 7  21037044.579 0  21037046.201 0
  12354774.980 7   9627098.179 7  22690903.997 0  22690905.278 0
  -8623968.657 7  -6561309.635 6  20764022.464 0  20764024.790 0
 -19280435.130 7 -14928539.281 6  20243254.589 0  20243255.433 0
 88  2 29  7  1 29.0800000  0  4  6  8 11  9
  -3631335.932 7  -2829612.195 6  21047062.060 0  21047063.611 0
  12452444.745 7   9703204.498 7  22709489.401 0  22709490.346 0
  -8594606.061 3  -6538429.696 3  20769609.982 0  20769611.597 0
 -19314184.388 7 -14954837.401 6  20236833.052 0  20236833.585 0
 88  2 29  7  1 59.0800000  0  4  6  8 11  9
  -3578143.697 8  -2788163.722 7  21057183.537 0  21057184.639 0
  12550229.913 7   9779400.722 7  22728097.533 0  22728098.375 0
  -8564846.980 3  -6515240.773 3  20775272.523 0  20775274.835 0
 -19347385.621 7 -14980708.483 6  20230515.564 0  20230516.003 0
 88  2 29  7  2 29.0800000  0  4  6  8 11  9
  -3524398.384 8  -2746284.252 7  21067410.978 0  21067411.660 0
  12648127.791 7   9855684.795 7  22746726.778 0  22746728.493 0
  -8534693.783 7  -6491744.787 6  20781010.811 0  20781014.213 0
 -19380036.772 7 -15006150.941 6  20224302.222 0  20224302.273 0
 88  2 29  7  2 59.0800000  0  4  6  8 11  9
  -3470100.959 7  -2703974.580 6  21077743.143 0  21077745.464 0
  12746135.162 7   9932054.170 6  22765376.276 0  22765378.793 0
  -8504148.616 7  -6467943.346 6  20786822.902 0  20786825.945 0
 -19412135.891 7 -15031163.251 7  20218194.162 0  20218195.116 0
 88  2 29  7  3 29.0800000  0  4  6  8 11  9
  -3415251.975 8  -2661235.134 6  21088181.238 0  21088182.284 0
  12844249.613 7  10008506.992 7  22784047.439 0  22784049.144 0
  -8473213.387 7  -6443837.970 6  20792710.074 0  20792712.603 0
 -19443680.464 6 -15055743.431 6  20212192.006 0  20212192.509 0
 88  2 29  7  3 59.0800000  0  4  6  8 11  9
  -3359851.956 7  -2618066.290 6  21098723.043 0  21098724.316 0
  12942468.435 7  10085041.154 6  22802738.183 0  22802737.941 0
  -8441889.972 7  -6419430.115 6  20798670.939 0  20798673.125 0
 -19474668.152 7 -15079889.690 6  20206294.069 0  20206294.868 0
 88  2 29  7  4 29.0800000  0  4  6  8 11  9
  -3303902.104 7  -2574469.010 7  21109370.211 0  21109371.227 0
  13040789.181 7  10161654.735 7  22821447.309 0  22821448.613 0
  -8410180.760 7  -6394721.634 6  20804704.308 0  20804706.623 0
 -19505097.082 7 -15103600.536 6  20200503.770 0  20200505.907 0
 88  2 29  7  4 59.0800000  0  4  6  8 11  9
  -3247402.939 8  -2530443.697 6  21120121.342 0  21120123.490 0
  13139209.256 7  10238345.692 7  22840175.474 0  22840176.748 0
  -8378087.442 7  -6369713.847 7  20810812.271 0  20810814.500 0
 -19534964.829 7 -15126874.112 6  20194821.369 0  20194821.227 0
 88  2 29  7  5 29.0800000  0  4  6  8 11  9
  -3190355.043 8  -2485990.816 6  21130977.330 0  21130978.398 0
  13237726.367 7  10315112.269 6  22858923.127 0  22858924.880 0
  -8345612.099 7  -6344408.389 6  20816991.439 0  20816992.807 0
 -19564269.238 7 -15149708.732 6  20189243.628 0  20189244.140 0
 88  2 29  7  5 59.0800000  0  4  6  8 11  9
  -3132759.791 7  -2441111.403 7  21141937.662 0  21141938.034 0
  13336337.345 7  10391952.005 7  22877688.087 0  22877690.389 0
  -8312757.430 7  -6318807.336 6  20823244.024 0  20823246.067 0
 -19593008.391 7 -15172102.878 6  20183774.675 0  20183775.367 0
 88  2 29  7  6 29.0800000  0  4  6  8 11  9
  -3074617.740 7  -2395805.926 7  21153000.902 0  21153002.683 0
  13435039.751 6  10468862.985 7  22896471.513 0  22896472.185 0
  -8279525.170 7  -6292912.073 6  20829567.240 0  20829570.528 0
 -19621180.137 7 -15194054.881 6  20178412.919 0  20178414.133 0
 88  2 29  7  6 59.0800000  0  4  6  8 11  9
  -3015929.591 7  -2350074.913 6  21164168.503 0  21164170.285 0
  13533830.863 7  10545843.053 7  22915270.049 0  22915271.123 0
  -8245917.560 6  -6266724.310 6  20835962.320 0  20835964.990 0
 -19648782.164 6 -15215562.963 6  20173161.310 0  20173162.173 0
 88  2 29  7  7 29.0800000  0  4  6  8 11  9
  -2956696.527 7  -2303919.289 7  21175440.775 0  21175442.998 0
  13632707.924 7  10622890.116 6  22934085.914 0  22934087.972 0
  -8211936.666 7  -6240245.695 7  20842429.943 0  20842431.284 0
 -19675812.563 7 -15236625.611 6  20168017.261 0  20168018.750 0
 88  2 29  7  7 59.0800000  0  4  6  8 11  9
  -2896919.759 7  -2257340.012 6  21186815.961 0  21186817.008 0
  13731668.346 7  10700002.136 6  22952916.487 0  22952918.392 0
  -8177584.795 7  -6213478.013 7  20848967.094 0  20848967.751 0
 -19702269.606 7 -15257241.486 6  20162982.448 0  20162983.288 0
 88  2 29  7  8 29.0800000  0  4  6 13 11  9
  -2836599.986 7  -2210337.607 6  21198294.408 0  21198296.552 0
          .229 7         -.364 6  21387758.335 0          .000 0
  -8142863.972 7  -6186422.818 7  20855573.826 0  20855575.420 0
 -19728151.080 6 -15277408.883 6  20158057.047 0  20158058.337 0
 88  2 29  7  8 59.0800000  0  4  6 13 11  9
  -2775737.761 8  -2162912.511 6  21209876.152 0  21209878.011 0
    -55543.890 7  55698980.337 7  21377220.632 0  21377223.006 0
  -8107776.230 7  -6159081.702 6  20862249.808 0  20862252.389 0
 -19753454.583 7 -15297125.889 6  20153243.436 0  20153242.665 0
 88  2 29  7  9 29.0800000  0  4  6 13 11  9
  -2714334.560 7  -2115065.871 7  21221560.922 0  21221563.209 0
   -110642.034 7  55656046.721 6  21366735.070 0  21366739.276 0
  -8072323.980 7  -6131456.581 7  20868996.561 0  20868999.242 0
 -19778178.491 7 -15316391.273 6  20148538.459 0  20148539.819 0
 88  2 29  7  9 59.0800000  0  4  6 13 11  9
  -2652391.512 8  -2066798.585 6  21233347.960 0  21233350.118 0
   -165294.344 7  55613460.530 6  21356335.082 0  21356337.665 0
  -8036509.288 7  -6103549.036 6  20875811.417 0  20875814.576 0
 -19802320.864 6 -15335203.527 6  20143943.132 0  20143943.465 0
 88  2 29  7 10 29.0800000  0  4  6 13 11  9
  -2589909.479 7  -2018111.322 6  21245238.428 0  21245239.223 0
   -219500.982 7  55571221.616 6  21346020.593 0  21346022.060 0
  -8000334.235 6  -6075360.669 6  20882695.887 0  20882698.001 0
 -19825879.715 6 -15353561.083 6  20139459.774 0  20139461.524 0
 88  2 29  7 10 59.0800000  0  4  6 13 11  9
  -2526889.657 7  -1969004.973 7  21257230.801 0  21257231.671 0
   -273261.019 7  55529330.695 6  21335791.036 0  21335792.866 0
  -7963801.133 7  -6046893.308 7  20889647.751 0  20889649.685 0
 -19848853.318 7 -15371462.587 6  20135088.610 0  20135089.376 0
 88  2 29  7 11 29.0800000  0  4  6 13 11  9
  -2463333.211 7  -1919480.475 6  21269324.899 0  21269326.143 0
   -326574.846 7  55487787.471 7  21325644.839 0  21325648.464 0
  -7926912.333 7  -6018148.774 6  20896667.362 0  20896670.352 0
 -19871239.684 6 -15388906.527 6  20130829.492 0  20130829.135 0
 88  2 29  7 11 59.0800000  0  4  6 13 11  9
  -2399240.917 7  -1869538.449 7  21281521.610 0  21281523.208 0
   -379441.740 7  55446592.506 6  21315584.585 0  21315587.297 0
  -7889669.629 7  -5989128.499 6  20903754.592 0  20903757.197 0
 -19893036.569 6 -15405891.102 5  20126681.327 0  20126682.109 0
 88  2 29  7 12 29.0800000  0  4  6 13 11  9
  -2334614.491 7  -1819180.204 7  21293819.515 0  21293821.072 0
   -431861.917 7  55405745.633 7  21305609.991 0  21305612.474 0
  -7852075.538 7  -5959834.386 7  20910907.510 0  20910911.834 0
 -19914242.638 7 -15422415.330 6  20122645.256 0  20122647.381 0
 88  2 29  7 12 59.0800000  0  4  6 13 11  9
  -2269454.500 7  -1768406.206 7  21306218.700 0  21306219.843 0
   -483834.836 7  55365247.271 6  21295719.812 0  21295721.864 0
  -7814131.587 7  -5930267.670 7  20918128.873 0  20918130.713 0
 -19934855.472 7 -15438477.281 6  20118723.434 0  20118724.882 0
 88  2 29  7 13 29.0800000  0  4  6 13 11  9
  -2203762.479 8  -1717217.636 6  21318720.039 0  21318721.839 0
   -535360.696 7  55325097.268 6  21285914.423 0  21285915.789 0
  -7775840.506 7  -5900430.475 6  20925415.270 0  20925417.987 0
 -19954873.530 7 -15454075.768 6  20114914.402 0  20114916.001 0
 88  2 29  7 13 59.0800000  0  4  6 13 11  9
  -2137539.365 7  -1665615.204 6  21331322.185 0  21331323.168 0
   -586438.969 7  55285296.039 6  21276194.444 0  21276197.171 0
  -7737204.237 7  -5870324.291 7  20932767.848 0  20932769.576 0
 -19974294.996 6 -15469209.376 6  20111217.872 0  20111219.422 0
 88  2 29  7 14 29.0800000  0  4  6 13 11  9
  -2070786.556 8  -1613600.051 6  21344024.311 0  21344026.155 0
   -637070.243 7  55245843.108 6  21266559.183 0  21266562.273 0
  -7698225.330 7  -5839951.114 6  20940184.401 0  20940187.409 0
 -19993118.362 6 -15483876.937 6  20107636.708 0  20107637.005 0
 88  2 29  7 14 59.0800000  0  4  6 13 11  9
  -2003505.474 8  -1561173.247 6  21356827.171 0  21356829.414 0
   -687253.973 7  55206738.919 6  21257009.715 0  21257012.175 0
  -7658906.116 7  -5809312.759 6  20947667.057 0  20947670.609 0
 -20011341.638 6 -15498076.898 6  20104167.336 0  20104168.561 0
 88  2 29  7 15 29.0800000  0  4  6 13 11  9
  -1935697.388 7  -1508335.790 6  21369730.884 0  21369733.186 0
   -736990.327 7  55167983.325 6  21247546.306 0  21247547.524 0
  -7619248.338 7  -5778410.603 7  20955214.383 0  20955216.653 0
 -20028963.176 7 -15511807.980 6  20100814.713 0  20100815.911 0
 88  2 29  7 15 59.0800000  0  4  6 13 11  9
  -1867363.262 8  -1455088.440 7  21382735.048 0  21382735.748 0
   -786279.073 8  55129576.531 6  21238166.465 0  21238167.383 0
  -7579254.232 7  -5747246.354 6  20962824.995 0  20962826.522 0
 -20045981.379 6 -15525068.917 6  20097577.162 0  20097577.824 0
 88  2 29  7 16 29.0800000  0  4  6 13 11  9
  -1798504.857 8  -1401432.539 6  21395838.231 0  21395838.473 0
   -835120.026 7  55091518.653 6  21228871.992 0  21228874.281 0
  -7538926.186 7  -5715821.906 7  20970498.752 0  20970501.165 0
 -20062394.426 6 -15537858.316 6  20094453.627 0  20094454.548 0
 88  2 29  7 16 59.0800000  0  4  6 13 11  9
  -1729123.286 7  -1347369.002 7  21409041.035 0  21409041.707 0
   -883513.062 7  55053809.813 6  21219663.061 0  21219664.783 0
  -7498266.449 7  -5684139.003 6  20978236.104 0  20978239.148 0
 -20078200.613 7 -15550174.812 5  20091445.683 0  20091446.571 0
 88  2 29  7 17 29.0800000  0  4  6 13 11  9
  -1659220.136 7  -1292899.020 6  21422343.188 0  21422343.586 0
   -931458.761 7  55016449.541 6  21210538.968 0  21210542.129 0
  -7457277.123 7  -5652199.259 7  20986036.307 0  20986039.236 0
 -20093398.866 7 -15562017.624 6  20088553.403 0  20088553.978 0
 88  2 29  7 17 59.0800000  0  4  6 13 11  9
  -1588796.979 7  -1238023.838 6  21435744.374 0  21435745.057 0
   -978957.226 7  54979437.773 6  21201500.944 0  21201501.723 0
  -7415960.648 7  -5620004.595 6  20993898.678 0  20993900.861 0
 -20107987.341 7 -15573385.266 6  20085777.181 0  20085778.519 0
 88  2 29  7 18 29.0800000  0  4  6 13 11  9
  -1517854.495 7  -1182744.002 6  21449244.093 0  21449245.494 0
  -1026007.653 7  54942775.110 7  21192547.307 0  21192549.746 0
  -7374318.824 7  -5587556.417 6  21001822.203 0  21001824.519 0
 -20121964.097 6 -15584276.247 6  20083117.223 0  20083119.182 0
 88  2 29  7 18 59.0800000  0  4  6 13 11  9
  -1446394.690 8  -1127061.051 6  21462842.618 0  21462845.292 0
  -1072610.824 7  54906460.971 7  21183678.706 0  21183681.473 0
  -7332354.327 7  -5554856.809 6  21009808.296 0  21009810.783 0
 -20135327.533 7 -15594689.315 6  20080574.264 0  20080575.163 0
 88  2 29  7 19 29.0800000  0  4  6 13 11  9
  -1374418.734 7  -1070975.896 7  21476538.561 0  21476539.845 0
  -1118767.165 7  54870495.010 6  21174896.424 0  21174897.103 0
  -7290068.846 7  -5521907.093 7  21017854.703 0  21017858.035 0
 -20148076.381 7 -15604623.478 7  20078147.988 0  20078149.345 0
 88  2 29  7 19 59.0800000  0  4  6 13 11  9
  -1301928.239 8  -1014489.800 6  21490334.151 0  21490334.420 0
  -1164476.332 7  54834877.487 6  21166196.912 0  21166200.332 0
  -7247465.199 7  -5488709.438 6  21025961.760 0  21025965.125 0
 -20160209.052 7 -15614077.532 6  20075839.133 0  20075840.506 0
 88  2 29  7 20 29.0800000  0  4  6 13 11  9
  -1228924.972 8   -957604.150 6  21504225.529 0  21504226.155 0
  -1209738.107 7  54799608.583 7  21157584.738 0  21157587.477 0
  -7204545.484 7  -5455265.510 7  21034129.525 0  21034132.020 0
 -20171724.495 7 -15623050.595 6  20073648.006 0  20073648.272 0
 88  2 29  7 20 59.0800000  0  4  6 13 11  9
  -1155409.937 7   -900319.727 6  21518215.094 0  21518217.195 0
  -1254552.660 7  54764688.169 6  21149056.542 0  21149058.538 0
  -7161311.761 7  -5421576.885 7  21042356.504 0  21042359.147 0
 -20182620.467 6 -15631540.947 6  20071575.307 0  20071574.886 0
 88  2 29  7 21 29.0800000  0  4  6 13 11  9
  -1081384.918 7   -842637.902 6  21532301.776 0  21532303.334 0
  -1298920.575 7  54730115.781 6  21140613.725 0  21140615.313 0
  -7117766.030 7  -5387645.145 7  21050643.262 0  21050645.785 0
 -20192896.010 6 -15639547.899 6  20069618.864 0  20069621.118 0
 88  2 29  7 21 59.0800000  0  4  6 13 11  9
  -1006851.561 7   -784559.980 6  21546484.430 0  21546486.031 0
  -1342842.106 7  54695891.225 6  21132255.332 0  21132257.613 0
  -7073910.937 7  -5353472.352 7  21058988.520 0  21058989.757 0
 -20202549.650 6 -15647070.222 6  20067782.539 0  20067783.291 0
 88  2 29  7 22 29.0800000  0  4  6 13 11  9
   -931811.449 7   -726087.188 7  21560763.929 0  21560765.402 0
  -1386316.834 7  54662014.838 6  21123982.634 0  21123985.116 0
  -7029748.754 8  -5319060.247 7  21067391.815 0  21067393.714 0
 -20211580.191 7 -15654107.001 6  20066063.841 0  20066065.761 0
 88  2 29  7 22 59.0800000  0  4  6 13 11  9
   -856266.047 8   -667220.657 6  21575140.323 0  21575142.071 0
  -1429345.349 7  54628486.129 6  21115794.199 0  21115795.622 0
  -6985281.338 7  -5284410.322 7  21075853.948 0  21075856.768 0
 -20219985.918 6 -15660656.919 6  20064464.758 0  20064466.519 0
 88  2 29  7 23 29.0800000  0  4  6 13 11  9
   -780216.981 7   -607961.661 6  21589611.830 0  21589612.995 0
  -1471927.838 7  54595304.983 6  21107691.444 0  21107694.127 0
  -6940511.124 7  -5249524.432 7  21084373.691 0  21084375.132 0
 -20227765.674 6 -15666719.065 6  20062984.533 0  20062985.130 0
 88  2 29  7 23 59.0800000  0  4  6 13 11  9
   -703666.004 7   -548311.559 7  21604178.328 0  21604181.182 0
  -1514064.189 7  54562471.464 7  21099673.403 0  21099675.398 0
  -6895440.418 7  -5214404.404 7  21092951.403 0  21092952.206 0
 -20234918.147 7 -15672292.429 6  20061621.914 0  20061625.302 0
 88  2 29  7 24 29.0800000  0  4  6 13 11  9
   -626614.826 7   -488271.698 6  21618840.512 0  21618842.377 0
  -1555754.832 7  54529985.257 7  21091739.697 0  21091740.106 0
  -6850071.387 7  -5179051.917 6  21101584.201 0  21101585.334 0
 -20241442.348 6 -15677376.229 6  20060380.937 0  20060382.298 0
 88  2 29  7 24 59.0800000  0  4  6 13 11  9
   -549065.114 7   -427843.356 6  21633599.205 0  21633599.705 0
  -1597000.938 7  54497845.454 7  21083890.390 0  21083892.687 0
  -6804406.701 7  -5143469.045 7  21110273.612 0  21110275.859 0
 -20247336.919 6 -15681969.411 6  20059260.157 0  20059262.315 0
 88  2 29  7 25 29.0800000  0  4  6 13 11  9
   -471018.550 7   -367027.868 7  21648450.985 0  21648451.549 0
  -1637801.758 7  54466052.619 7  21076126.763 0  21076129.620 0
  -6758448.256 8  -5107657.266 6  21119019.106 0  21119020.701 0
 -20252600.407 6 -15686070.821 6  20058257.914 0  20058259.539 0
 88  2 29  7 25 59.0800000  0  4  6 13 11  9
   -392476.947 7   -305826.627 7  21663396.335 0  21663398.275 0
  -1678157.992 7  54434606.219 6  21068447.017 0  21068449.786 0
  -6712198.065 8  -5071618.146 6  21127820.646 0  21127821.983 0
 -20257231.642 7 -15689679.586 6  20057377.184 0  20057378.631 0
 88  2 29  7 26 29.0800000  0  4  6 13 11  9
   -313441.855 8   -244240.852 7  21678434.965 0  21678437.632 0
  -1718069.922 7  54403506.022 6  21060851.411 0  21060854.751 0
  -6665658.683 7  -5035353.703 6  21136676.511 0  21136678.335 0
 -20261229.577 6 -15692794.874 6  20056615.654 0  20056617.890 0
 88  2 29  7 26 59.0800000  0  4  6 13 11  9
   -233915.248 7   -182272.081 6  21693570.197 0  21693570.989 0
  -1757537.963 7  54372751.724 6  21053341.460 0  21053342.799 0
  -6618832.648 7  -4998865.862 6  21145586.877 0  21145589.467 0
 -20264593.338 6 -15695415.986 6  20055975.655 0  20055978.219 0
 88  2 29  7 27 29.0800000  0  4  6 13 11  9
   -153898.836 8   -119921.648 6  21708796.212 0  21708798.201 0
  -1796562.462 7  54342343.040 6  21045915.730 0  21045918.072 0
  -6571721.826 7  -4962156.138 7  21154551.739 0  21154553.248 0
 -20267321.432 7 -15697541.785 6  20055457.400 0  20055458.551 0
 88  2 29  7 27 59.0800000  0  4  6 13 11  9
    -73394.540 7    -57191.040 6  21724115.181 0  21724116.498 0
  -1835143.550 7  54312279.876 6  21038573.339 0  21038575.595 0
  -6524328.564 8  -4925226.331 6  21163570.396 0  21163572.406 0
 -20269412.966 6 -15699171.548 6  20055057.741 0  20055059.897 0
 88  2 29  7 28 29.0800000  0  4  6 13 11  9
      7595.902 7      5918.380 6  21739527.374 0  21739528.611 0
  -1873282.005 7  54282561.607 6  21031316.718 0  21031319.473 0
  -6476654.770 7  -4888077.905 7  21172642.676 0  21172644.782 0
 -20270866.808 6 -15700304.414 6  20054781.936 0  20054782.346 0
 88  2 29  7 28 59.0800000  0  4  6 13 11  9
     89070.492 7     69405.060 6  21755032.257 0  21755032.704 0
  -1910978.248 7  54253187.932 7  21024143.175 0  21024145.616 0
  -6428703.071 7  -4850712.946 6  21181767.354 0  21181768.818 0
 -20271682.214 6 -15700939.808 6  20054626.197 0  20054629.448 0
 88  2 29  7 29 29.0800000  0  4  6 13 11  9
    171027.525 7    133267.668 7  21770628.208 0  21770628.958 0
  -1948232.599 7  54224158.584 6  21017053.456 0  21017056.439 0
  -6380475.119 8  -4813132.718 7  21190945.493 0  21190946.210 0
 -20271857.730 6 -15701076.579 5  20054593.712 0  20054595.233 0
 88  2 29  7 29 59.0800000  0  4  6 13 11  9
    253465.177 7    197504.789 6  21786314.222 0  21786316.467 0
  -1985045.129 7  54195473.505 6  21010048.677 0  21010050.815 0
  -6331973.325 7  -4775339.117 7  21200174.197 0  21200175.713 0
 -20271392.319 6 -15700713.916 6  20054680.983 0  20054684.593 0
 88  2 29  7 30 29.0800000  0  4  6 13 11  9
    336381.480 8    262114.881 6  21802093.940 0  21802094.290 0
  -2021416.890 7  54167131.896 7  21003127.289 0  21003128.885 0
  -6283200.307 8  -4737334.166 6  21209455.588 0  21209457.060 0
 -20270285.461 6 -15699851.440 6  20054893.396 0  20054894.518 0
 88  2 29  7 30 59.0800000  0  4  6 13 11  9
    419774.291 8    327096.278 7  21817963.441 0  21817964.269 0
  -2057348.160 7  54139133.516 6  20996289.325 0  20996291.766 0
  -6234158.474 8  -4699119.751 7  21218787.856 0  21218790.036 0
 -20268536.434 6 -15698488.576 6  20055225.167 0  20055227.494 0
 88  2 29  7 31 29.0800000  0  4  6 13 11  9
    503641.817 8    392447.584 7  21833923.016 0  21833923.459 0
  -2092839.111 7  54111478.228 6  20989535.357 0  20989538.111 0
  -6184849.984 7  -4660697.543 7  21228170.763 0  21228173.808 0
 -20266144.074 6 -15696624.409 6  20055681.008 0  20055682.221 0
 88  2 29  7 31 59.0800000  0  4  6 13 11  9
    587982.342 8    458167.464 7  21849972.313 0  21849972.834 0
  -2127890.742 8  54084165.295 6  20982866.615 0  20982868.681 0
  -6135276.674 8  -4622068.983 7  21237605.097 0  21237607.842 0
 -20263107.403 6 -15694258.160 6  20056258.512 0  20056260.717 0
 88  2 29  7 32 29.0800000  0  4  6 13 11  9
    672793.623 8    524254.151 7  21866110.869 0  21866112.048 0
  -2162503.440 7  54057194.379 6  20976280.121 0  20976280.042 0
  -6085440.991 8  -4583235.990 6  21247088.142 0  21247090.442 0
 -20259425.488 6 -15691389.154 6  20056957.861 0  20056960.449 0
 88  2 29  7 32 59.0800000  0  4  6 13 11  9
    758073.890 8    590706.300 7  21882338.516 0  21882340.145 0
  -2196677.675 7  54030565.131 6  20969776.076 0  20969777.670 0
  -6035345.168 7  -4544200.283 6  21256621.118 0  21256623.807 0
 -20255097.700 6 -15688016.855 5  20057782.873 0  20057786.236 0
 88  2 29  7 33 29.0800000  0  4  6 13 11  9
    843821.256 7    657522.407 7  21898655.808 0  21898657.058 0
  -2230413.639 7  54004277.369 7  20963355.539 0  20963358.250 0
  -5984991.037 8  -4504963.294 6  21266202.850 0  21266205.140 0
 -20250122.853 6 -15684140.349 7  20058729.824 0  20058730.535 0
 88  2 29  7 33 59.0800000  0  4  6 13 11  9
    930033.592 8    724700.838 7  21915062.469 0  21915063.862 0
  -2263712.029 7  53978330.592 7  20957019.714 0  20957022.498 0
  -5934380.734 7  -4465526.694 6  21275834.234 0  21275836.564 0
 -20244500.648 6 -15679759.436 6  20059800.165 0  20059800.385 0
 88  2 29  7 34 29.0800000  0  4  6 13 11  9
   1016708.575 7    792239.769 7  21931556.187 0  21931557.243 0
  -2296574.046 7  53952723.853 7  20950766.338 0  20950768.593 0
  -5883517.169 7  -4425892.754 7  21285513.081 0  21285515.159 0
 -20238230.383 6 -15674873.523 6  20060993.073 0  20060994.392 0
 88  2 29  7 34 59.0800000  0  4  6 13 11  9
   1103844.302 8    860137.718 7  21948136.675 0  21948138.550 0
  -2329000.057 8  53927456.828 6  20944595.784 0  20944597.594 0
  -5832402.425 7  -4386063.072 6  21295239.479 0  21295242.261 0
 -20231311.353 6 -15669482.080 6  20062309.183 0  20062309.640 0
 88  2 29  7 35 29.0800000  0  4  6 13 11  9
   1191438.348 7    928392.806 7  21964805.045 0  21964806.982 0
  -2360990.975 7  53902528.861 7  20938507.851 0  20938510.964 0
  -5781038.899 7  -4346039.544 6  21305013.835 0  21305015.517 0
 -20223743.044 6 -15663584.715 6  20063749.874 0  20063750.429 0
 88  2 29  7 35 59.0800000  0  4  6 13 11  9
   1279488.800 7    997003.521 7  21981561.037 0  21981562.100 0
  -2392546.796 7  53877939.924 7  20932502.940 0  20932504.793 0
  -5729428.430 8  -4305823.592 7  21314834.575 0  21314837.209 0
 -20215524.535 6 -15657180.677 6  20065313.803 0  20065314.685 0
 88  2 29  7 36 29.0800000  0  4  6 13 11  9
   1367993.781 7   1065968.433 6  21998402.617 0  21998403.674 0
  -2423668.551 7  53853689.220 6  20926581.280 0  20926582.847 0
  -5677573.182 7  -4265416.908 7  21324703.513 0  21324704.563 0
 -20206655.582 7 -15650269.815 6  20067001.323 0  20067003.157 0
 88  2 29  7 36 59.0800000  0  4  6 13 11  9
   1456951.046 7   1135285.757 7  22015330.969 0  22015332.469 0
  -2454356.995 7  53829776.156 6  20920740.610 0  20920743.021 0
  -5625475.554 7  -4224821.348 6  21334616.637 0  21334617.688 0
 -20197135.415 6 -15642851.503 6  20068814.076 0  20068814.221 0
 88  2 29  7 37 29.0800000  0  4  6 13 11  9
   1546358.332 8   1204953.766 7  22032344.562 0  22032346.041 0
  -2484612.495 7  53806200.452 6  20914983.562 0  20914986.644 0
  -5573137.873 8  -4184038.748 7  21344576.431 0  21344578.065 0
 -20186963.582 6 -15634925.408 5  20070748.670 0  20070750.061 0
 88  2 29  7 37 59.0800000  0  4  6 13 11  9
   1636213.604 7   1274970.834 6  22049443.652 0  22049444.873 0
  -2514435.643 7  53782961.654 6  20909308.592 0  20909309.745 0
  -5520562.108 7  -4143070.619 7  21354581.035 0  21354582.655 0
 -20176139.458 6 -15626491.029 6  20072808.319 0  20072811.230 0
 88  2 29  7 38 29.0800000  0  4  6 13 11  9
   1726514.467 8   1345335.140 6  22066627.066 0  22066629.904 0
  -2543827.552 7  53760058.898 6  20903715.814 0  20903717.166 0
  -5467750.596 7  -4101918.791 7  21364630.087 0  21364632.872 0
 -20164662.721 6 -15617548.139 6  20074992.560 0  20074994.206 0
 88  2 29  7 38 59.0800000  0  4  6 13 11  9
   1817258.806 7   1416044.992 7  22083895.640 0  22083895.230 0
  -2572789.027 7  53737491.525 7  20898203.712 0  20898206.639 0
  -5414705.372 7  -4060584.847 7  21374723.869 0  21374726.463 0
 -20152532.931 6 -15608096.351 6  20077300.619 0  20077301.096 0
 88  2 29  7 39 29.0800000  0  4  6 13 11  9
   1908444.297 7   1487098.599 7  22101246.793 0  22101249.468 0
  -2601320.942 7  53715258.873 6  20892774.117 0  20892776.998 0
  -5361428.801 7  -4019070.634 6  21384862.210 0  21384865.032 0
 -20139749.649 7 -15598135.363 5  20079732.777 0  20079734.982 0
 88  2 29  7 39 59.0800000  0  4  6 13 11  9
   2000068.679 8   1558494.207 7  22118682.815 0  22118683.958 0
  -2629424.105 7  53693360.317 6  20887426.112 0  20887429.111 0
  -5307923.173 7  -3977377.939 7  21395044.416 0  21395046.354 0
 -20126312.670 7 -15587665.014 6  20082291.992 0  20082291.065 0
 88  2 29  7 40 29.0800000  0  4  6 13 11  9
   2092129.884 7   1630230.191 7  22136202.344 0  22136203.932 0
  -2657098.748 7  53671795.690 6  20882160.528 0  20882163.412 0
  -5254190.438 7  -3935508.274 7  21405269.231 0  21405271.536 0
 -20112221.351 6 -15576684.775 6  20084971.143 0  20084972.458 0
 88  2 29  7 40 59.0800000  0  4  6 13 11  9
   2184625.645 8   1702304.799 6  22153802.729 0  22153805.372 0
  -2684346.220 7  53650563.904 6  20876975.104 0  20876976.930 0
  -5200233.021 7  -3893463.522 7  21415537.481 0  21415540.045 0
 -20097475.404 6 -15565194.426 6  20087776.426 0  20087778.628 0
 88  2 29  7 41 29.0800000  0  4  6 13 11  9
   2277553.394 8   1774716.025 6  22171486.134 0  22171487.978 0
  -2711167.575 7  53629664.169 6  20871871.414 0  20871874.269 0
  -5146053.219 7  -3851245.511 7  21425846.960 0  21425849.560 0
 -20082074.928 7 -15553194.065 6  20090707.839 0  20090709.271 0
 88  2 29  7 41 59.0800000  0  4  6 13 11  9
   2370911.275 8   1847462.413 7  22189251.910 0  22189254.019 0
  -2737563.110 7  53609096.227 6  20866848.115 0  20866851.483 0
  -5091652.915 7  -3808855.660 7  21436199.920 0  21436201.848 0
 -20066019.092 6 -15540683.019 6  20093763.054 0  20093764.751 0
 88  2 29  7 42 29.0800000  0  4  6 13 11  9
   2464696.902 8   1920542.096 7  22207098.297 0  22207100.799 0
  -2763533.522 7  53588859.551 6  20861906.690 0  20861908.914 0
  -5037034.328 8  -3766295.717 6  21446593.327 0  21446595.196 0
 -20049307.832 6 -15527661.270 6  20096942.170 0  20096944.728 0
 88  2 29  7 42 59.0800000  0  4  6 13 11  9
   2558907.933 7   1993953.281 7  22225026.964 0  22225027.856 0
  -2789079.459 7  53568953.638 6  20857045.199 0  20857047.007 0
  -4982199.183 7  -3723567.044 7  21457027.894 0  21457030.595 0
 -20031940.786 6 -15514128.526 6  20100248.615 0  20100249.850 0
 88  2 29  7 43 29.0800000  0  4  6 13 11  9
   2653541.960 8   2067694.067 7  22243034.480 0  22243036.866 0
  -2814202.006 7  53549377.643 6  20852264.040 0  20852266.921 0
  -4927149.630 7  -3680671.282 7  21467503.495 0  21467505.595 0
 -20013917.896 6 -15500084.728 6  20103677.706 0  20103680.167 0
 88  2 29  7 43 59.0800000  0  4  6 13 11  9
   2748596.534 7   2141762.550 6  22261122.793 0  22261124.493 0
  -2838902.643 7  53530130.395 6  20847563.323 0  20847566.151 0
  -4871888.137 7  -3637610.381 6  21478019.609 0  21478021.278 0
 -19995239.297 6 -15485529.997 6  20107232.728 0  20107233.473 0
 88  2 29  7 44 29.0800000  0  4  6 13 11  9
   2844069.339 7   2216156.935 7  22279291.066 0  22279291.626 0
  -2863181.989 7  53511211.443 6  20842945.145 0  20842946.083 0
  -4816417.168 7  -3594386.250 7  21488575.021 0  21488577.675 0
 -19975904.713 6 -15470464.097 5  20110911.605 0  20110913.760 0
 88  2 29  7 44 59.0800000  0  4  6 13 11  9
   2939958.038 8   2290875.390 7  22297538.482 0  22297540.998 0
  -2887041.094 7  53492619.944 6  20838403.693 0  20838405.904 0
  -4760738.783 7  -3551000.502 6  21499170.497 0  21499172.566 0
 -19955914.025 6 -15454886.947 6  20114716.837 0  20114717.470 0
 88  2 29  7 45 29.0800000  0  4  6 13 11  9
   3036260.335 7   2365916.120 7  22315863.260 0  22315864.910 0
  -2910480.335 7  53474355.624 6  20833944.661 0  20833945.440 0
  -4704855.095 7  -3507454.774 7  21509804.659 0  21509808.131 0
 -19935267.174 6 -15438798.503 6  20118645.582 0  20118646.756 0
 88  2 29  7 45 59.0800000  0  4  6 13 11  9
   3132973.701 8   2441277.193 7  22334268.373 0  22334269.129 0
  -2933501.096 7  53456417.391 6  20829563.012 0  20829564.465 0
  -4648768.081 7  -3463750.602 6  21520477.810 0  21520479.612 0
 -19913964.074 5 -15422198.680 6  20122698.435 0  20122700.853 0
 88  2 29  7 46 29.0800000  0  4  6 13 11  9
   3230095.664 7   2516956.599 7  22352751.211 0  22352751.252 0
  -2956104.215 7  53438804.579 6  20825261.211 0  20825264.237 0
  -4592479.902 7  -3419889.686 6  21531188.930 0  21531191.355 0
 -19892004.824 6 -15405087.602 6  20126877.789 0  20126878.892 0
 88  2 29  7 46 59.0800000  0  4  6 13 11  9
   3327623.876 7   2592952.604 7  22371306.518 0  22371311.017 0
  -2978290.530 7  53421516.559 6  20821039.568 0  20821041.794 0
  -4535992.614 7  -3375873.619 7  21541937.873 0  21541940.608 0
 -19869389.419 7 -15387465.205 6  20131180.446 0  20131182.407 0
 88  2 29  7 47 29.0800000  0  4  6 13 11  9
   3425555.537 7   2669262.973 7  22389944.962 0  22389946.084 0
  -3000061.281 7  53404552.343 6  20816896.455 0  20816899.438 0
  -4479308.500 7  -3331704.180 7  21552724.228 0  21552727.549 0
 -19846118.247 6 -15369331.837 6  20135609.691 0  20135611.396 0
 88  2 29  7 47 59.0800000  0  4  6 13 11  9
   3523888.547 7   2745886.078 7  22408657.664 0  22408658.960 0
  -3021417.478 7  53387911.179 7  20812833.073 0  20812834.810 0
  -4422429.480 7  -3287382.873 6  21563549.162 0  21563550.882 0
 -19822190.966 6 -15350687.213 6  20140162.433 0  20140164.581 0
 88  2 29  7 48 29.0800000  0  4  6 13 11  9
   3622620.380 7   2822819.963 7  22427443.386 0  22427446.275 0
  -3042360.107 7  53371592.255 7  20808847.303 0  20808850.472 0
  -4365357.866 7  -3242911.482 7  21574409.298 0  21574410.493 0
 -19797607.852 7 -15331531.548 6  20144840.941 0  20144842.160 0
 88  2 29  7 48 59.0800000  0  4  6 13 11  9
   3721748.787 8   2900062.869 7  22446308.224 0  22446311.906 0
  -3062889.768 7  53355595.131 6  20804940.691 0  20804942.101 0
  -4308095.372 8  -3198291.360 6  21585305.751 0  21585308.279 0
 -19772368.818 6 -15311864.781 6  20149642.998 0  20149645.419 0
 88  2 29  7 49 29.0800000  0  4  6 13 11  9
   3821271.038 7   2977612.640 6  22465246.016 0  22465246.707 0
  -3083007.777 7  53339918.770 6  20801112.839 0  20801114.578 0
  -4250644.324 7  -3153524.301 6  21596237.651 0  21596240.040 0
 -19746474.352 6 -15291687.286 6  20154570.782 0  20154572.675 0
 88  2 29  7 49 59.0800000  0  4  6 13 11  9
   3921184.686 7   3055467.416 7  22484259.097 0  22484261.055 0
  -3102715.559 7  53324562.075 6  20797361.939 0  20797365.267 0
  -4193006.564 7  -3108611.762 7  21607207.036 0  21607208.262 0
 -19719924.577 7 -15270999.163 6  20159623.623 0  20159624.933 0
 88  2 29  7 50 29.0800000  0  4  6 13 11  9
   4021487.178 7   3133625.184 7  22503346.957 0  22503348.571 0
  -3122014.143 7  53309524.228 6  20793690.286 0  20793691.326 0
  -4135184.776 7  -3063555.838 6  21618209.933 0  21618211.728 0
 -19692719.907 6 -15249800.729 6  20164799.608 0  20164801.210 0
 88  2 29  7 50 59.0800000  0  4  6 13 11  9
   4122175.719 7   3212083.764 7  22522505.684 0  22522509.071 0
  -3140904.107 7  53294804.782 6  20790095.186 0  20790098.199 0
  -4077180.780 8  -3018357.916 6  21629246.899 0  21629250.574 0
 -19664860.628 6 -15228092.203 6  20170101.379 0  20170103.104 0
 88  2 29  7 51 29.0800000  0  4  6 13 11  9
   4223247.997 7   3290841.363 7  22541738.410 0  22541740.990 0
  -3159387.135 7  53280402.426 6  20786577.556 0  20786580.195 0
  -4018996.654 7  -2973019.628 6  21640319.440 0  21640322.652 0
 -19636346.695 7 -15205873.562 7  20175527.921 0  20175528.437 0
 88  2 29  7 51 59.0800000  0  4  6 13 11  9
   4324701.361 7   3369895.909 6  22561046.080 0  22561048.310 0
  -3177463.958 8  53266316.618 6  20783137.883 0  20783140.708 0
  -3960634.228 7  -2927542.418 6  21651425.244 0  21651427.710 0
 -19607178.859 6 -15183145.399 6  20181077.808 0  20181078.293 0
 88  2 29  7 52 29.0800000  0  4  6 13 11  9
   4426533.443 7   3449245.582 7  22580423.494 0  22580425.181 0
  -3195135.465 7  53252546.620 6  20779775.622 0  20779777.045 0
  -3902095.670 7  -2881927.955 7  21662564.976 0  21662566.448 0
 -19577357.077 6 -15159907.650 6  20186753.828 0  20186754.991 0
 88  2 29  7 52 59.0800000  0  4  6 13 11  9
   4528741.485 7   3528888.206 7  22599874.378 0  22599874.905 0
  -3212403.336 7  53239091.148 6  20776488.628 0  20776490.523 0
  -3843382.941 7  -2836177.771 7  21673737.627 0  21673740.667 0
 -19546882.118 6 -15136160.923 5  20192551.844 0  20192554.192 0
 88  2 29  7 53 29.0800000  0  4  6 13 11  9
   4631322.689 8   3608821.566 7  22619394.634 0  22619396.529 0
  -3229268.652 7  53225949.368 6  20773279.304 0  20773281.341 0
  -3784498.594 8  -2790293.871 7  21684942.804 0  21684945.661 0
 -19515754.586 6 -15111905.726 6  20198475.384 0  20198477.212 0
 88  2 29  7 53 59.0800000  0  4  6 13 11  9
   4734274.546 7   3689043.804 7  22638984.303 0  22638987.006 0
  -3245732.289 7  53213120.567 6  20770146.075 0  20770149.087 0
  -3725444.562 8  -2744277.750 6  21696180.661 0  21696182.853 0
 -19483974.612 6 -15087142.140 6  20204522.330 0  20204524.538 0
 88  2 29  7 54 29.0800000  0  4  6 13 11  9
   4837594.519 7   3769552.843 7  22658647.257 0  22658647.863 0
  -3261795.686 7  53200603.659 6  20767090.203 0  20767092.142 0
  -3666222.598 8  -2698130.768 7  21707450.248 0  21707451.903 0
 -19451542.970 6 -15061870.731 6  20210694.654 0  20210695.091 0
 88  2 29  7 54 59.0800000  0  4  6 13 11  9
   4941279.972 8   3850346.688 7  22678376.076 0  22678380.445 0
  -3277460.491 7  53188397.313 7  20764108.938 0  20764110.949 0
  -3606834.696 7  -2651854.479 7  21718752.067 0  21718753.298 0
 -19418459.930 6 -15036091.764 6  20216989.939 0  20216991.937 0
 88  2 29  7 55 29.0800000  0  4  6 13 11  9
   5045328.200 7   3931423.227 7  22698177.593 0  22698179.401 0
  -3292727.128 7  53176501.253 7  20761203.914 0  20761205.895 0
  -3547282.696 8  -2605450.329 6  21730083.901 0  21730085.561 0
 -19384726.189 7 -15009805.734 6  20223409.062 0  20223411.019 0
 88  2 29  7 55 59.0800000  0  4  6 13 11  9
   5149736.558 7   4012780.349 7  22718046.134 0  22718047.228 0
  -3307596.735 6  53164914.546 6  20758373.927 0  20758376.022 0
  -3487568.895 7  -2558920.086 6  21741446.708 0  21741448.810 0
 -19350342.405 6 -14983013.189 6  20229952.921 0  20229953.423 0
 88  2 29  7 56 29.0800000  0  4  3 13 11  9
         -.212 5          .349 7  23792847.787 0          .000 0
  -3322070.605 7  53153636.226 6  20755620.355 0  20755621.723 0
  -3427695.464 8  -2512265.465 7  21752840.537 0  21752842.380 0
 -19315309.204 6 -14955714.603 5  20236619.395 0  20236620.085 0
 88  2 29  7 56 59.0800000  0  4  3 13 11  9
    -78315.473 7  84366313.272 7  24077776.926 0  24077778.855 0
  -3336150.252 7  53142665.077 7  20752939.870 0  20752942.610 0
  -3367664.407 8  -2465488.021 7  21764264.241 0  21764265.791 0
 -19279627.174 7 -14927910.423 6  20243408.318 0  20243410.074 0
 88  2 29  7 57 29.0800000  0  4  3 13 11  9
   -156405.420 6  84305463.972 7  24062916.939 0  24062918.577 0
  -3349836.578 7  53132000.429 7  20750337.199 0  20750338.709 0
  -3307477.569 7  -2418589.190 6  21775716.892 0  21775719.716 0
 -19243296.899 7 -14899601.149 6  20250322.299 0  20250324.918 0
 88  2 29  7 57 59.0800000  0  4  3 13 11  9
   -234269.871 7  84244790.407 7  24048098.289 0  24048102.460 0
  -3363131.159 7  53121641.024 6  20747806.617 0  20747808.327 0
  -3247136.798 7  -2371570.418 7  21787198.825 0  21787202.438 0
 -19206318.982 6 -14870787.212 6  20257360.740 0  20257360.290 0
 88  2 29  7 58 29.0800000  0  4  3 13 11  9
   -311908.680 7  84184292.599 6  24033326.542 0  24033328.246 0
  -3376035.046 7  53111586.064 6  20745350.529 0  20745353.069 0
  -3186644.206 7  -2324433.338 6  21798711.251 0  21798713.440 0
 -19168694.349 7 -14841469.310 6  20264518.710 0  20264521.517 0
 88  2 29  7 58 59.0800000  0  4  3 13 11  9
   -389321.530 6  84123970.949 6  24018592.882 0  24018599.308 0
  -3388549.828 7  53101834.289 6  20742970.220 0  20742972.291 0
  -3126001.834 7  -2277179.535 7  21810250.749 0  21810253.947 0
 -19130423.933 7 -14811648.232 6  20271802.115 0  20271803.433 0
 88  2 29  7 59 29.0800000  0  4  3 13 11  9
   -466507.830 7  84063825.850 7  24003909.540 0  24003909.461 0
  -3400676.797 7  53092384.725 6  20740662.433 0  20740664.217 0
  -3065211.559 7  -2229810.485 7  21821818.279 0  21821819.775 0
 -19091508.155 6 -14781324.255 6  20279206.756 0  20279209.067 0
 88  2 29  7 59 59.0800000  0  4  3 13 11  9
   -543467.117 7  84003857.557 7  23989261.979 0  23989265.181 0
  -3412417.184 7  53083236.387 6  20738428.053 0  20738431.050 0
  -3004275.080 7  -2182327.528 6  21833414.409 0  21833417.245 0
 -19051948.158 7 -14750498.299 6  20286734.482 0  20286736.477 0
 88  2 29  8  0 29.0800000  0  4  3 13 11  9
   -620199.390 6  83944066.178 6  23974657.465 0  23974662.845 0
  -3423772.112 7  53074388.400 6  20736266.704 0  20736268.530 0
  -2943194.552 7  -2134732.310 7  21845037.989 0  21845039.307 0
 -19011744.580 7 -14719170.833 6  20294385.580 0  20294387.635 0
 88  2 29  8  0 59.0800000  0  4  3 13 11  9
   -696704.817 7  83884451.592 7  23960105.194 0  23960106.075 0
  -3434742.955 7  53065839.694 7  20734178.849 0  20734181.791 0
  -2881972.107 7  -2087026.523 6  21856687.579 0  21856690.420 0
 -18970898.725 7 -14687342.923 6  20302159.240 0  20302160.722 0
 88  2 29  8  1 29.0800000  0  4  3 13 11  9
   -772982.492 7  83825014.509 7  23945586.585 0  23945590.407 0
  -3445331.325 7  53057589.039 6  20732163.541 0  20732166.154 0
  -2820609.872 8  -2039211.790 7  21868365.235 0  21868366.238 0
 -18929411.338 7 -14655015.089 6  20310053.812 0  20310055.393 0
 88  2 29  8  1 59.0800000  0  4  3 13 11  9
   -849031.740 7  83765755.326 6  23931114.271 0  23931116.279 0
  -3455538.172 7  53049635.662 6  20730222.126 0  20730224.195 0
  -2759109.468 7  -1991289.398 7  21880068.484 0  21880069.911 0
 -18887283.237 6 -14622188.007 6  20318070.129 0  20318071.167 0
 88  2 29  8  2 29.0800000  0  4  3 13 11  9
   -924852.317 7  83706674.401 7  23916686.823 0  23916689.538 0
  -3465365.120 7  53041978.306 6  20728351.772 0  20728354.726 0
  -2697472.516 7  -1943260.608 7  21891796.990 0  21891798.984 0
 -18844515.372 7 -14588862.408 6  20326208.128 0  20326210.045 0
 88  2 29  8  2 59.0800000  0  4  3 13 11  9
  -1000443.807 6  83647771.990 7  23902299.124 0  23902306.265 0
  -3474813.207 7  53034616.168 7  20726553.648 0  20726555.215 0
  -2635700.901 7  -1895126.874 7  21903551.541 0  21903553.425 0
 -18801108.816 7 -14555039.140 6  20334468.745 0  20334469.969 0
 88  2 29  8  3 29.0800000  0  4  3 13 11  9
  -1075806.118 7  83589048.106 7  23887957.329 0  23887965.204 0
  -3483884.147 7  53027547.905 7  20724828.129 0  20724829.525 0
  -2573796.981 7  -1846890.068 6  21915331.237 0  21915334.174 0
 -18757064.714 7 -14520719.067 5  20342849.876 0  20342850.682 0
 88  2 29  8  3 59.0800000  0  4  3 13 11  9
  -1150938.602 7  83530503.360 7  23873666.272 0  23873667.465 0
  -3492578.665 7  53020772.972 6  20723173.441 0  20723174.639 0
  -2511762.434 7  -1798551.463 7  21927136.243 0  21927138.470 0
 -18712383.982 6 -14485902.906 6  20351352.693 0  20351352.155 0
 88  2 29  8  4 29.0800000  0  4  3 13 11  9
  -1225841.040 7  83472137.855 7  23859409.410 0  23859410.902 0
  -3500898.471 7  53014290.016 6  20721590.071 0  20721591.853 0
  -2449598.878 7  -1750112.315 7  21938965.897 0  21938967.581 0
 -18667067.449 7 -14450591.350 5  20359974.727 0  20359976.566 0
 88  2 29  8  4 59.0800000  0  4  3 13 11  9
  -1300513.160 6  83413951.823 6  23845198.769 0  23845203.671 0
  -3508845.676 7  53008097.408 6  20720077.618 0  20720079.143 0
  -2387308.593 7  -1701574.434 7  21950819.980 0  21950821.035 0
 -18621116.561 7 -14414785.468 6  20368720.027 0  20368721.791 0
 88  2 29  8  5 29.0800000  0  4  3 13 11  9
  -1374955.272 7  83355944.940 7  23831035.781 0  23831037.956 0
  -3516421.350 7  53002194.290 6  20718636.136 0  20718638.992 0
  -2324893.765 7  -1652939.507 7  21962696.513 0  21962698.231 0
 -18574532.811 7 -14378486.445 5  20377584.688 0  20377586.880 0
 88  2 29  8  5 59.0800000  0  4  3 13 11  9
  -1449166.713 7  83298117.902 7  23816912.872 0  23816916.064 0
  -3523626.117 7  52996580.208 6  20717266.030 0  20717267.627 0
  -2262355.298 7  -1604208.232 7  21974597.364 0  21974599.081 0
 -18527316.783 7 -14341694.748 6  20386569.689 0  20386570.337 0
 88  2 29  8  6 29.0800000  0  4  3 13 11  9
  -1523147.108 6  83240470.886 6  23802833.255 0  23802838.428 0
  -3530462.027 7  52991253.534 6  20715963.922 0  20715967.179 0
  -2199695.680 7  -1555382.560 7  21986520.587 0  21986522.477 0
 -18479470.084 8 -14304411.628 6  20395675.259 0  20395675.063 0
 88  2 29  8  6 59.0800000  0  4  3 13 11  9
  -1596896.218 6  83183004.087 6  23788797.984 0  23788804.330 0
  -3536930.851 7  52986212.895 7  20714733.846 0  20714736.142 0
  -2136916.345 7  -1506463.601 7  21998467.332 0  21998468.481 0
 -18430993.793 7 -14266637.896 5  20404899.578 0  20404900.840 0
 88  2 29  8  7 29.0800000  0  4  3 13 11  9
  -1670413.745 7  83125717.695 7  23774814.710 0  23774814.117 0
  -3543033.465 7  52981457.627 6  20713572.623 0  20713573.833 0
  -2074019.482 7  -1457453.057 6  22010436.037 0  22010437.823 0
 -18381888.995 7 -14228374.439 5  20414243.826 0  20414245.006 0
 88  2 29  8  7 59.0800000  0  4  3 13 11  9
  -1743699.675 7  83068611.798 7  23760863.834 0  23760867.111 0
  -3548770.978 7  52976986.844 7  20712479.774 0  20712482.414 0
  -2011006.843 7  -1408352.291 6  22022427.140 0  22022428.766 0
 -18332157.168 7 -14189622.382 5  20423707.711 0  20423708.772 0
 88  2 29  8  8 29.0800000  0  4  3 13 11  9
  -1816753.470 7  83011686.809 6  23746960.944 0  23746966.282 0
  -3554145.367 8  52972799.010 7  20711457.009 0  20711458.832 0
  -1947879.901 7  -1359162.467 6  22034440.188 0  22034440.553 0
 -18281799.532 7 -14150382.662 6  20433290.155 0  20433291.574 0
 88  2 29  8  8 59.0800000  0  4  3 13 11  9
  -1889575.470 7  82954942.437 7  23733107.026 0  23733108.214 0
  -3559158.074 7  52968893.030 6  20710502.927 0  20710506.484 0
  -1884640.754 7  -1309885.209 6  22046473.834 0  22046476.591 0
 -18230817.559 7 -14110656.460 6  20442991.875 0  20442992.749 0
 88  2 29  8  9 29.0800000  0  4  3 13 11  9
  -1962164.889 7  82898379.267 6  23719291.887 0  23719294.934 0
  -3563810.653 7  52965267.653 6  20709617.645 0  20709620.127 0
  -1821291.478 7  -1260522.138 6  22058528.881 0  22058530.528 0
 -18179212.723 7 -14070444.902 6  20452811.504 0  20452814.296 0
 88  2 29  8  9 59.0800000  0  4  3 13 11  9
  -2034522.289 7  82841996.902 6  23705522.002 0  23705525.307 0
  -3568104.900 7  52961921.494 6  20708800.674 0  20708803.188 0
  -1757833.749 7  -1211074.567 7  22070604.736 0  22070607.866 0
 -18126986.399 7 -14029749.099 5  20462749.472 0  20462750.657 0
 88  2 29  8 10 29.0800000  0  4  3 13 11  9
  -2106647.115 7  82785795.784 7  23691796.911 0  23691801.867 0
  -3572041.973 7  52958853.659 6  20708051.587 0  20708053.913 0
  -1694269.096 8  -1161543.657 7  22082700.447 0  22082701.991 0
 -18074140.244 7 -13988570.272 6  20472806.424 0  20472807.656 0
 88  2 29  8 10 59.0800000  0  4  3 13 11  9
  -2178539.071 7  82729776.071 6  23678118.344 0  23678121.312 0
  -3575622.518 7  52956063.631 7  20707370.525 0  20707372.064 0
  -1630599.164 7  -1111930.735 7  22094816.997 0  22094817.548 0
 -18020675.040 7 -13946909.089 6  20482980.288 0  20482981.514 0
 88  2 29  8 11 29.0800000  0  4  3 13 11  9
  -2250198.215 7  82673937.848 6  23664480.280 0  23664481.441 0
  -3578848.848 7  52953549.625 6  20706756.002 0  20706759.831 0
  -1566825.944 7  -1062237.313 7  22106952.173 0  22106954.442 0
 -17966592.588 8 -13904766.923 6  20493272.865 0  20493272.851 0
 88  2 29  8 11 59.0800000  0  4  3 13 11  9
  -2321624.376 8  82618281.103 7  23650889.502 0  23650891.627 0
  -3581722.195 8  52951310.656 6  20706209.161 0  20706212.330 0
  -1502951.126 7  -1012464.722 7  22119107.109 0  22119109.226 0
 -17911894.662 7 -13862145.184 6  20503680.427 0  20503681.580 0
 88  2 29  8 12 29.0800000  0  4  3 13 11  9
  -2392817.029 7  82562806.284 6  23637341.250 0  23637343.555 0
  -3584244.618 7  52949345.142 6  20705729.916 0  20705732.140 0
  -1438976.398 7   -962614.286 6  22131281.848 0  22131282.799 0
 -17856582.534 7 -13819044.829 6  20514206.506 0  20514207.629 0
 88  2 29  8 12 59.0800000  0  4  3 13 11  9
  -2463776.218 7  82507513.506 7  23623841.908 0  23623841.187 0
  -3586417.523 7  52947651.981 6  20705316.609 0  20705318.131 0
  -1374903.496 7   -912687.350 6  22143473.862 0  22143475.851 0
 -17800657.736 7 -13775467.070 5  20524848.822 0  20524850.078 0
 88  2 29  8 13 29.0800000  0  4  3 13 11  9
  -2534501.894 7  82452402.594 7  23610379.475 0  23610383.626 0
  -3588242.273 7  52946230.101 6  20704968.808 0  20704971.306 0
  -1310734.132 7   -862685.255 6  22155684.869 0  22155686.489 0
 -17744122.140 7 -13731413.365 6  20535606.501 0  20535607.720 0
 88  2 29  8 13 59.0800000  0  4  3 13 11  9
  -2604993.951 7  82397473.764 6  23596967.097 0  23596967.261 0
  -3589719.851 7  52945078.749 6  20704687.917 0  20704689.557 0
  -1246469.876 8   -812609.215 7  22167913.716 0  22167916.073 0
 -17686977.064 7 -13686884.743 6  20546481.308 0  20546482.874 0
 88  2 29  8 14 29.0800000  0  4  3 13 11  9
  -2675252.061 6  82342727.182 7  23583592.474 0  23583597.625 0
  -3590852.143 7  52944196.458 6  20704472.019 0  20704473.746 0
  -1182112.442 8   -762460.569 7  22180160.498 0  22180163.553 0
 -17629223.954 7 -13641882.336 6  20557472.092 0  20557472.096 0
 88  2 29  8 14 59.0800000  0  4  3 13 11  9
  -2745276.426 7  82288162.756 7  23570271.752 0  23570275.401 0
  -3591641.497 7  52943581.385 6  20704321.742 0  20704323.066 0
  -1117663.750 7   -712240.824 7  22192424.238 0  22192426.853 0
 -17570865.322 7 -13596408.082 6  20568576.673 0  20568577.072 0
 88  2 29  8 15 29.0800000  0  4  3 13 11  9
  -2815066.666 7  82233780.807 6  23556990.674 0  23556991.196 0
  -3592088.666 7  52943232.945 6  20704237.176 0  20704238.543 0
  -1053125.311 7   -661951.121 6  22204706.351 0  22204708.669 0
 -17511902.193 7 -13550462.806 6  20579796.519 0  20579797.234 0
 88  2 29  8 15 59.0800000  0  4  3 13 11  9
  -2884623.067 7  82179581.048 7  23543751.639 0  23543756.317 0
  -3592195.468 6  52943149.739 6  20704216.539 0  20704217.636 0
   -988498.760 7   -611592.786 6  22217004.428 0  22217006.485 0
 -17452336.159 7 -13504047.717 6  20591131.708 0  20591133.679 0
 88  2 29  8 16 29.0800000  0  4  3 13 11  9
  -2953945.340 7  82125563.673 6  23530563.955 0  23530565.028 0
  -3591963.794 7  52943330.270 6  20704260.754 0  20704263.181 0
   -923786.150 7   -561167.377 7  22229318.552 0  22229320.682 0
 -17392169.650 7 -13457164.743 5  20602581.146 0  20602582.810 0
 88  2 29  8 16 59.0800000  0  4  3 13 11  9
  -3023033.965 7  82071728.433 6  23517413.648 0  23517417.599 0
  -3591394.862 8  52943773.596 6  20704369.416 0  20704370.856 0
   -858988.790 7   -510675.923 7  22241648.749 0  22241650.413 0
 -17331403.859 7 -13409814.762 6  20614144.177 0  20614144.963 0
 88  2 29  8 17 29.0800000  0  4  3 13 11  9
  -3091888.979 7  82018075.201 6  23504313.634 0  23504314.637 0
  -3590489.983 7  52944478.706 6  20704540.612 0  20704543.926 0
   -794108.482 7   -460119.842 7  22253994.470 0  22253997.452 0
 -17270041.161 7 -13361999.712 6  20625821.861 0  20625822.720 0
 88  2 29  8 17 59.0800000  0  4  3 13 11  9
  -3160509.595 6  81964604.620 6  23491253.470 0  23491256.518 0
  -3589251.303 7  52945443.914 7  20704776.628 0  20704779.495 0
   -729147.050 7   -409500.556 7  22266357.120 0  22266358.721 0
 -17208083.147 8 -13313720.743 6  20637611.205 0  20637612.671 0
 88  2 29  8 18 29.0800000  0  4  3 13 11  9
  -3228896.270 7  81911316.307 6  23478240.590 0  23478243.228 0
  -3587679.937 7  52946668.363 6  20705076.343 0  20705078.057 0
   -664105.795 7   -358819.068 7  22278734.418 0  22278737.101 0
 -17145531.176 7 -13264978.951 5  20649514.887 0  20649514.482 0
 88  2 29  8 18 59.0800000  0  4  3 13 11  9
  -3297048.936 7  81858210.378 7  23465272.188 0  23465275.294 0
  -3585777.997 7  52948150.399 7  20705437.651 0  20705440.321 0
   -598986.266 7   -308076.583 6  22291125.177 0  22291128.395 0
 -17082387.922 7 -13215776.432 6  20661530.758 0  20661530.909 0
 88  2 29  8 19 29.0800000  0  4  3 13 11  9
  -3364967.515 7  81805286.794 7  23452346.044 0  23452348.985 0
  -3583546.527 7  52949889.213 7  20705862.234 0  20705865.274 0
   -533790.110 8   -257274.385 7  22303532.058 0  22303533.317 0
 -17018654.726 7 -13166114.219 7  20673658.361 0  20673660.204 0
 88  2 29  8 19 59.0800000  0  4  3 13 11  9
  -3432652.020 7  81752545.639 7  23439466.831 0  23439470.610 0
  -3580987.459 7  52951883.300 7  20706349.117 0  20706351.414 0
   -468518.840 7   -206413.664 7  22315952.845 0  22315954.361 0
 -16954333.576 7 -13115993.846 6  20685898.371 0  20685900.195 0
 88  2 29  8 20 29.0800000  0  4  3 13 11  9
  -3500102.581 6  81699986.770 6  23426631.765 0  23426635.093 0
  -3578102.681 7  52954131.184 6  20706898.187 0  20706901.300 0
   -403174.702 8   -155496.151 7  22328387.640 0  22328389.835 0
 -16889426.931 7 -13065417.240 6  20698249.169 0  20698251.187 0
 88  2 29  8 20 59.0800000  0  4  3 13 11  9
  -3567319.253 7  81647610.177 7  23413841.258 0  23413844.549 0
  -3574893.219 7  52956632.072 7  20707509.046 0  20707510.329 0
   -337758.863 8   -104522.771 7  22340835.685 0  22340837.647 0
 -16823936.400 7 -13014385.681 6  20710712.436 0  20710713.022 0
 88  2 29  8 21 29.0800000  0  4  3 13 11  9
  -3634301.864 7  81595415.940 7  23401095.731 0  23401096.337 0
  -3571360.567 7  52959384.796 6  20708181.148 0  20708183.703 0
   -272272.564 7    -53494.489 7  22353297.542 0  22353299.882 0
 -16757863.913 7 -12962900.626 6  20723285.165 0  20723287.066 0
 88  2 29  8 21 59.0800000  0  4  3 13 11  9
  -3701050.483 7  81543404.036 7  23388393.624 0  23388393.674 0
  -3567506.651 7  52962387.857 6  20708915.036 0  20708917.348 0
   -206717.544 7     -2412.663 6  22365772.509 0  22365774.574 0
 -16691211.454 7 -12910963.657 6  20735969.190 0  20735969.592 0
 88  2 29  8 22 29.0800000  0  4  3 13 11  9
  -3767565.316 7  81491574.316 7  23375733.693 0  23375737.773 0
  -3563333.477 7  52965639.687 6  20709708.536 0  20709710.591 0
   -141095.482 7     48721.415 7  22378259.356 0  22378261.290 0
 -16623981.169 7 -12858576.436 6  20748762.881 0  20748764.014 0
 88  2 29  8 22 59.0800000  0  4  3 13 11  9
  -3833846.190 8  81439926.901 6  23363121.416 0  23363125.242 0
  -3558842.300 7  52969139.311 6  20710564.341 0  20710565.795 0
    -75407.850 7     99906.581 6  22390759.496 0  22390760.251 0
 -16556175.311 7 -12805740.728 6  20761666.144 0  20761666.886 0
 88  2 29  8 23 29.0800000  0  4  3 13 11  9
  -3899892.983 6  81388461.883 6  23350554.451 0  23350556.842 0
  -3554034.787 7  52972885.449 7  20711478.411 0  20711480.764 0
     -9656.134 7    151141.686 7  22403272.141 0  22403273.354 0
 -16487795.779 7 -12752457.978 6  20774678.102 0  20774679.637 0
 88  2 29  8 23 59.0800000  0  4  3 13 11  9
  -3965706.078 7  81337178.944 6  23338029.908 0  23338032.455 0
  -3548912.601 7  52976876.754 7  20712452.979 0  20712454.449 0
     56157.997 8    202425.429 7  22415795.306 0  22415797.692 0
 -16418844.769 7 -12698729.940 6  20787799.163 0  20787799.500 0
 88  2 29  8 24 29.0800000  0  4  3 13 11  9
  -4031285.700 6  81286077.973 7  23325550.138 0  23325553.972 0
  -3543477.590 7  52981111.829 6  20713487.133 0  20713489.029 0
    122033.176 7    253756.738 7  22428330.677 0  22428333.918 0
 -16349324.092 7 -12644557.997 6  20801028.151 0  20801029.709 0
 88  2 29  8 24 59.0800000  0  4  3 13 11  9
  -4096631.779 7  81235158.971 6  23313116.350 0  23313118.347 0
  -3537730.881 7  52985589.792 6  20714581.012 0  20714582.767 0
    187968.512 7    305134.928 7  22440878.732 0  22440880.250 0
 -16279236.062 7 -12589943.967 7  20814365.522 0  20814366.754 0
 88  2 29  8 25 29.0800000  0  4  3 13 11  9
  -4161744.726 7  81184421.626 8  23300725.814 0  23300727.517 0
  -3531674.121 7  52990309.354 7  20715733.274 0  20715735.528 0
    253961.725 7    356558.208 6  22453436.154 0  22453437.936 0
 -16208583.082 7 -12534889.712 7  20827809.965 0  20827811.716 0
 88  2 29  8 25 59.0800000  0  4  3 13 11  9
  -4226624.555 7  81133865.918 6  23288379.534 0  23288381.908 0
  -3525309.205 7  52995269.046 6  20716944.346 0  20716946.913 0
    320011.555 7    408025.614 6  22466004.945 0  22466007.853 0
 -16137367.336 7 -12479396.943 6  20841362.454 0  20841364.508 0
 88  2 29  8 26 29.0800000  0  4  3 13 11  9
  -4291271.449 7  81083491.728 6  23276076.862 0  23276079.931 0
  -3518637.969 8  53000467.414 6  20718214.057 0  20718215.924 0
    386116.714 7    459536.133 7  22478585.108 0  22478586.083 0
 -16065591.187 7 -12423467.482 6  20855020.890 0  20855021.955 0
 88  2 29  8 26 59.0800000  0  4  3 13 11  9
  -4355685.358 7  81033299.079 7  23263817.911 0  23263821.347 0
  -3511662.039 7  53005903.223 6  20719541.375 0  20719544.132 0
    452275.556 7    511088.488 6  22491174.265 0  22491175.919 0
 -15993256.626 7 -12367102.911 6  20868785.469 0  20868787.201 0
 88  2 29  8 27 29.0800000  0  4  3 13 11  9
  -4419866.390 7  80983287.903 6  23251605.173 0  23251609.394 0
  -3504383.441 7  53011574.863 7  20720925.817 0  20720928.788 0
    518486.713 7    562681.582 7  22503774.232 0  22503776.316 0
 -15920366.046 7 -12310305.064 6  20882655.354 0  20882658.469 0
 88  2 29  8 27 59.0800000  0  4  3 13 11  9
  -4483814.334 7  80933458.345 7  23239436.893 0  23239440.977 0
  -3496803.207 7  53017481.544 6  20722368.670 0  20722370.855 0
    584748.977 7    614314.522 6  22516384.148 0  22516385.049 0
 -15846921.220 7 -12253075.340 6  20896632.231 0  20896633.401 0
 88  2 29  8 28 29.0800000  0  4  3 13 11  9
  -4547529.953 7  80883809.824 7  23227311.078 0  23227314.721 0
  -3488923.399 7  53023621.657 6  20723867.987 0  20723869.783 0
    651060.791 7    665986.054 6  22529002.449 0  22529005.115 0
 -15772925.097 8 -12195416.045 6  20910713.075 0  20910715.288 0
 88  2 29  8 28 59.0800000  0  4  3 13 11  9
  -4611012.977 7  80834342.539 6  23215233.258 0  23215234.488 0
  -3480745.371 7  53029994.156 6  20725424.339 0  20725427.008 0
    717421.043 7    717695.359 7  22541629.752 0  22541631.436 0
 -15698379.748 8 -12137328.760 6  20924898.917 0  20924900.629 0
 88  2 29  8 29 29.0800000  0  4  3 13 11  9
  -4674263.903 7  80785056.103 6  23203196.020 0  23203199.026 0
  -3472270.865 7  53036597.681 6  20727037.013 0  20727038.552 0
    783827.714 7    769440.819 6  22554266.920 0  22554268.452 0
 -15623287.926 7 -12078815.663 6  20939188.106 0  20939190.755 0
 88  2 29  8 29 59.0800000  0  4  3 13 11  9
  -4737282.731 7  80735950.548 7  23191203.679 0  23191206.512 0
  -3463501.715 7  53043430.789 7  20728706.466 0  20728707.047 0
    850279.678 7    821221.569 6  22566912.307 0  22566913.334 0
 -15547651.534 8 -12019878.216 6  20953581.375 0  20953582.140 0
 88  2 29  8 30 29.0800000  0  4  3 13 11  9
  -4800070.152 7  80687025.298 6  23179257.077 0  23179258.921 0
  -3454439.352 7  53050492.373 7  20730430.522 0  20730433.333 0
    916775.540 7    873036.526 7  22579566.246 0  22579567.378 0
 -15471473.253 8 -11960518.526 6  20968077.557 0  20968079.609 0
 88  2 29  8 30 59.0800000  0  4  3 13 11  9
  -4862626.139 7  80638280.395 6  23167352.307 0  23167354.346 0
  -3445085.618 7  53057781.003 6  20732210.985 0  20732212.926 0
    983314.046 8    924884.711 6  22592227.297 0  22592230.637 0
 -15394755.462 7 -11900738.452 6  20982676.803 0  20982678.273 0
 88  2 29  8 31 29.0800000  0  4  3 13 11  9
  -4924950.669 7  80589715.846 7  23155492.662 0  23155494.501 0
  -3435442.269 7  53065295.301 6  20734045.680 0  20734047.249 0
   1049894.014 7    976765.216 7  22604897.564 0  22604899.199 0
 -15317500.380 7 -11840539.680 6  20997377.549 0  20997379.722 0
 88  2 29  8 31 59.0800000  0  4  3 13 11  9
  -4987043.956 7  80541331.496 6  23143676.345 0  23143678.321 0
  -3425511.511 7  53073033.558 7  20735935.407 0  20735937.218 0
   1116513.800 7   1028676.718 7  22617574.908 0  22617576.260 0
 -15239710.514 7 -11779924.217 6  21012180.742 0  21012181.109 0
 88  2 29  8 32 29.0800000  0  4  3 13 11  9
  -5048906.566 7  80493126.890 7  23131904.229 0  23131906.941 0
  -3415294.342 8  53080994.997 6  20737879.568 0  20737881.322 0
   1183172.070 7   1080618.235 7  22630259.369 0  22630261.196 0
 -15161388.789 8 -11718894.319 5  21027084.853 0  21027086.359 0
 88  2 29  8 32 59.0800000  0  4  3 13 11  9
  -5110538.529 7  80445102.000 6  23120177.201 0  23120177.895 0
  -3404791.965 7  53089178.672 6  20739878.445 0  20739880.987 0
   1249867.631 7   1132588.799 6  22642950.688 0  22642953.547 0
 -15082537.178 7 -11657451.515 6  21042089.954 0  21042090.412 0
 88  2 29  8 33 29.0800000  0  4  3 13 11  9
  -5171940.080 7  80397256.633 7  23108491.077 0  23108494.072 0
  -3394006.620 7  53097582.848 6  20741930.786 0  20741933.142 0
   1316599.020 7   1184587.285 7  22655649.539 0  22655652.370 0
 -15003158.541 7 -11595598.018 6  21057195.393 0  21057196.821 0
 88  2 29  8 33 59.0800000  0  4  3 13 11  9
  -5233111.153 8  80349590.895 7  23096851.763 0  23096854.097 0
  -3382939.915 7  53106206.264 6  20744036.582 0  20744039.023 0
   1383365.275 7   1236612.928 7  22668355.270 0  22668356.819 0
 -14923255.227 8 -11533335.716 6  21072399.535 0  21072400.579 0
 88  2 29  8 34 29.0800000  0  4  3 13 11  9
  -5294052.278 7  80302104.318 7  23085255.658 0  23085256.239 0
  -3371594.050 7  53115047.207 6  20746196.039 0  20746197.862 0
   1450164.782 7   1288664.477 7  22681065.836 0  22681067.740 0
 -14842829.895 7 -11470666.624 6  21087704.849 0  21087706.948 0
 88  2 29  8 34 59.0800000  0  4  3 13 11  9
  -5354763.975 7  80254796.512 7  23073701.629 0  23073705.142 0
  -3359970.454 7  53124104.558 7  20748407.496 0  20748410.795 0
   1516996.512 7   1340741.144 7  22693783.813 0  22693785.959 0
 -14761885.028 7 -11407592.710 6  21103107.368 0  21103109.979 0
 88  2 29  8 35 29.0800000  0  4  3 13 11  9
  -5415246.330 7  80207667.412 7  23062192.237 0  23062193.008 0
  -3348070.243 7  53133377.458 6  20750672.755 0  20750674.363 0
   1583859.386 7   1392842.081 6  22706507.606 0  22706509.814 0
 -14680423.046 7 -11344115.869 6  21118610.343 0  21118611.881 0
 88  2 29  8 35 59.0800000  0  4  3 13 11  9
  -5475499.425 8  80160716.974 6  23050726.044 0  23050728.362 0
  -3335895.428 7  53142864.336 6  20752988.352 0  20752990.406 0
   1650751.978 7   1444966.176 7  22719237.230 0  22719238.737 0
 -14598446.608 8 -11280238.117 6  21134209.083 0  21134211.038 0
 88  2 29  8 36 29.0800000  0  4  3 13 11  9
  -5535523.754 6  80113944.788 7  23039303.810 0  23039306.198 0
  -3323447.690 8  53152563.879 6  20755357.131 0  20755360.043 0
   1717672.730 7   1497112.205 7  22731971.396 0  22731973.775 0
 -14515958.633 7 -11215961.773 6  21149905.910 0  21149907.708 0
 88  2 29  8 36 59.0800000  0  4  3 13 11  9
  -5595319.825 7  80067350.482 6  23027925.892 0  23027928.074 0
  -3310728.950 7  53162474.594 6  20757778.202 0  20757779.578 0
   1784620.814 6   1549279.531 6  22744710.495 0  22744713.264 0
 -14432961.602 7 -11151288.767 6  21165700.136 0  21165702.536 0
 88  2 29  8 37 29.0800000  0  4  3 13 11  9
  -5654887.517 7  80020934.118 7  23016589.532 0  23016592.145 0
  -3297740.869 7  53172595.178 7  20760248.776 0  20760251.889 0
   1851594.990 6   1601467.199 7  22757456.489 0  22757457.981 0
 -14349458.111 7 -11086221.137 5  21181590.363 0  21181590.576 0
 88  2 29  8 37 59.0800000  0  4  3 13 11  9
  -5714227.510 7  79974695.186 7  23005296.917 0  23005299.757 0
  -3284485.325 7  53182924.196 6  20762771.948 0  20762773.965 0
   1918593.810 7   1653674.067 6  22770205.176 0  22770207.523 0
 -14265451.119 7 -11020761.151 6  21197576.593 0  21197578.434 0
 88  2 29  8 38 29.0800000  0  4  3 13 11  9
  -5773339.967 7  79928633.543 6  22994048.490 0  22994051.195 0
  -3270963.526 8  53193460.661 6  20765344.966 0  20765347.220 0
   1985616.511 7   1705899.536 7  22782958.854 0  22782961.090 0
 -14180942.704 7 -10954910.438 6  21213657.733 0  21213658.590 0
 88  2 29  8 38 59.0800000  0  4  3 13 11  9
  -5832225.617 7  79882748.651 7  22982841.795 0  22982845.672 0
  -3257177.412 7  53204203.089 6  20767968.232 0  20767971.239 0
   2052661.321 6   1758142.249 7  22795718.324 0  22795719.652 0
 -14095936.317 7 -10888671.714 6  21229832.870 0  21229835.701 0
 88  2 29  8 39 29.0800000  0  4  3 13 11  9
  -5890884.249 8  79837040.650 6  22971681.268 0  22971682.920 0
  -3243128.638 8  53215150.192 6  20770641.393 0  20770642.935 0
   2119727.353 7   1810401.482 6  22808479.884 0  22808481.898 0
 -14010434.505 8 -10822046.930 6  21246104.422 0  21246105.936 0
 88  2 29  8 39 59.0800000  0  4  3 13 11  9
  -5949316.597 7  79791508.969 7  22960562.216 0  22960564.232 0
  -3228818.770 7  53226300.749 6  20773364.553 0  20773366.456 0
   2186813.267 7   1862676.210 7  22821245.809 0  22821247.512 0
 -13924440.011 7 -10755038.248 6  21262468.301 0  21262471.044 0
 88  2 29  8 40 29.0800000  0  4  3 13 11  9
  -6007523.021 7  79746153.332 7  22949484.711 0  22949487.038 0
  -3214249.788 7  53237653.209 6  20776137.058 0  20776139.263 0
   2253918.195 7   1914965.759 7  22834015.543 0  22834018.315 0
 -13837955.583 8 -10687647.791 6  21278925.530 0  21278928.502 0
 88  2 29  8 40 59.0800000  0  4  3 13 11  9
  -6065503.627 7  79700973.657 7  22938452.043 0  22938454.229 0
  -3199422.908 7  53249206.629 7  20778958.122 0  20778960.384 0
   2321040.863 7   1967269.128 7  22846789.283 0  22846790.877 0
 -13750983.727 7 -10619877.526 7  21295475.754 0  21295477.827 0
 88  2 29  8 41 29.0800000  0  4  3 13 11  9
  -6123259.438 7  79655969.127 7  22927461.647 0  22927464.249 0
  -3184340.275 7  53260959.338 6  20781829.210 0  20781830.574 0
   2388179.968 7   2019585.309 7  22859564.806 0  22859567.039 0
 -13663527.463 8 -10551729.790 6  21312118.703 0  21312120.360 0
 88  2 29  8 41 59.0800000  0  4  3 13 11  9
  -6180790.039 7  79611140.131 6  22916511.621 0  22916515.815 0
  -3169003.424 7  53272910.127 6  20784747.583 0  20784748.876 0
   2455334.743 7   2071913.711 7  22872343.765 0  22872346.023 0
 -13575589.651 7 -10483206.840 6  21328852.184 0  21328853.900 0
 88  2 29  8 42 29.0800000  0  4  3 13 11  9
  -6238096.231 7  79566485.962 7  22905609.855 0  22905609.564 0
  -3153414.480 7  53285057.362 7  20787713.856 0  20787716.112 0
   2522503.853 7   2124253.266 6  22885125.677 0  22885128.273 0
 -13487173.055 7 -10414310.797 6  21345678.577 0  21345678.846 0
 88  2 29  8 42 59.0800000  0  4  3 13 11  9
  -6295177.881 7  79522006.780 6  22894743.941 0  22894748.497 0
  -3137575.056 7  53297399.783 7  20790727.744 0  20790729.509 0
   2589686.318 7   2176603.235 6  22897909.775 0  22897912.682 0
 -13398280.523 7 -10345043.911 7  21362593.687 0  21362594.686 0
 88  2 29  8 43 29.0800000  0  4  3 13 11  9
  -6352036.023 7  79477701.770 7  22883926.534 0  22883928.073 0
  -3121486.293 7  53309936.474 6  20793789.768 0  20793790.487 0
   2656880.784 8   2228962.555 7  22910696.787 0  22910698.534 0
 -13308915.089 7 -10275408.512 6  21379599.315 0  21379600.271 0
 88  2 29  8 43 59.0800000  0  4  3 13 11  9
  -6408670.692 7  79433570.845 6  22873149.473 0  22873150.805 0
  -3105149.571 7  53322666.396 6  20796898.221 0  20796900.741 0
   2724086.166 7   2281330.382 6  22923485.572 0  22923486.969 0
 -13219079.678 7 -10205406.896 6  21396694.392 0  21396695.606 0
 88  2 29  8 44 29.0800000  0  4  3 13 11  9
  -6465082.684 7  79389613.476 7  22862413.291 0  22862416.900 0
  -3088566.981 7  53335587.905 6  20800053.815 0  20800055.577 0
   2791301.696 7   2333706.118 6  22936276.271 0  22936279.019 0
 -13128776.854 8 -10135041.067 6  21413877.799 0  21413880.801 0
 88  2 29  8 44 59.0800000  0  4  3 13 11  9
  -6521272.273 7  79345829.414 7  22851722.136 0  22851724.877 0
  -3071740.618 7  53348699.361 6  20803255.321 0  20803258.097 0
   2858526.279 6   2386088.907 6  22949068.761 0  22949071.347 0
 -13038009.713 7 -10064313.444 7  21431150.638 0  21431152.365 0
 88  2 29  8 45 29.0800000  0  4  3 13 11  9
  -6577239.847 7  79302218.319 7  22841071.076 0  22841073.272 0
  -3054671.789 7  53361999.755 6  20806504.475 0  20806505.049 0
   2925758.787 7   2438477.871 6  22961863.102 0  22961864.239 0
 -12946780.800 8  -9993225.994 6  21448511.205 0  21448513.193 0
 88  2 29  8 45 59.0800000  0  4  3 13 11  9
  -6632985.840 7  79258779.901 6  22830463.569 0  22830465.435 0
  -3037361.896 7  53375487.983 7  20809797.796 0  20809799.156 0
   2992998.407 7   2490872.373 6  22974657.788 0  22974660.136 0
 -12855093.614 7  -9921781.438 6  21465958.431 0  21465960.303 0
 88  2 29  8 46 29.0800000  0  4  3 13 11  9
  -6688510.865 7  79215513.643 6  22819897.875 0  22819900.001 0
  -3019813.379 7  53389162.155 6  20813137.393 0  20813139.129 0
   3060243.847 7   2543271.417 7  22987454.616 0  22987456.863 0
 -12762950.991 7  -9849982.005 6  21483492.857 0  21483495.213 0
 88  2 29  8 46 59.0800000  0  4  3 13 11  9
  -6743815.454 7  79172419.185 7  22809372.498 0  22809375.882 0
  -3002027.597 7  53403021.210 6  20816521.727 0  20816523.466 0
   3127493.960 7   2595674.112 7  23000251.428 0  23000253.402 0
 -12670355.707 7  -9777829.848 6  21501113.309 0  21501115.495 0
 88  2 29  8 47 29.0800000  0  4  3 13 11  9
  -6798899.819 7  79129496.315 6  22798891.379 0  22798892.457 0
  -2984005.862 7  53417064.121 7  20819950.658 0  20819952.928 0
   3194747.979 7   2648079.842 7  23013049.494 0  23013051.331 0
 -12577310.730 7  -9705327.289 7  21518818.844 0  21518819.972 0
 88  2 29  8 47 59.0800000  0  4  3 13 11  9
  -6853763.848 7  79086745.145 6  22788449.372 0  22788453.888 0
  -2965749.483 7  53431289.875 7  20823425.232 0  20823426.832 0
   3262005.228 7   2700488.077 6  23025848.169 0  23025850.773 0
 -12483818.864 7  -9632476.490 7  21536609.577 0  21536610.932 0
 88  2 29  8 48 29.0800000  0  4  3 13 11  9
  -6908408.831 7  79044164.661 7  22778051.670 0  22778053.324 0
  -2947260.999 7  53445696.501 7  20826943.789 0  20826945.550 0
   3329264.435 7   2752897.860 6  23038647.572 0  23038648.787 0
 -12389883.335 7  -9559279.973 7  21554484.946 0  21554487.633 0
 88  2 29  8 48 59.0800000  0  4  3 13 11  9
  -6962835.073 7  79001754.615 7  22767695.470 0  22767697.001 0
  -2928542.238 8  53460282.546 6  20830505.350 0  20830507.155 0
   3396524.666 8   2805308.409 7  23051446.049 0  23051449.087 0
 -12295507.159 7  -9485740.114 6  21572443.940 0  21572446.527 0
 88  2 29  8 49 29.0800000  0  4  3 13 11  9
  -7017042.960 7  78959514.716 6  22757380.016 0  22757382.185 0
  -2909594.201 7  53475047.246 6  20834111.712 0  20834113.370 0
   3463784.949 7   2857719.025 6  23064245.429 0  23064247.719 0
 -12200692.864 7  -9411858.857 7  21590486.685 0  21590488.470 0
 88  2 29  8 49 59.0800000  0  4  3 13 11  9
  -7071032.810 7  78917444.712 6  22747105.650 0  22747107.016 0
  -2890418.470 7  53489989.379 6  20837760.203 0  20837761.956 0
   3531044.258 7   2910128.872 6  23077043.529 0  23077046.851 0
 -12105444.158 7  -9337639.107 7  21608612.767 0  21608613.922 0
 88  2 29  8 50 29.0800000  0  4  3 13 11  9
  -7124805.756 7  78875543.731 7  22736872.381 0  22736875.064 0
  -2871017.291 7  53505107.179 7  20841452.414 0  20841454.639 0
   3598301.484 7   2962537.098 6  23089842.607 0  23089845.412 0
 -12009764.306 8  -9263083.398 6  21626819.067 0  21626821.426 0
 88  2 29  8 50 59.0800000  0  4  3 13 11  9
  -7178362.049 7  78833811.577 7  22726681.444 0  22726684.320 0
  -2851391.986 7  53520399.640 6  20845186.661 0  20845188.579 0
   3665555.840 7   3014943.091 7  23102640.759 0  23102643.542 0
 -11913656.111 7  -9188193.898 6  21645107.986 0  21645110.458 0
 88  2 29  8 51 29.0800000  0  4  3 13 11  9
  -7231701.865 7  78792248.105 6  22716531.384 0  22716534.259 0
  -2831544.217 7  53535865.433 6  20848963.709 0  20848965.433 0
   3732806.745 7   3067346.364 6  23115438.591 0  23115441.111 0
 -11817122.065 7  -9112972.589 7  21663478.012 0  21663480.113 0
 88  2 29  8 51 59.0800000  0  4  3 13 11  9
  -7284825.543 7  78750853.043 6  22706420.815 0  22706423.304 0
  -2811475.233 7  53551503.604 7  20852782.979 0  20852784.252 0
   3800053.331 7   3119746.305 6  23128235.028 0  23128237.772 0
 -11720165.740 7  -9037422.233 6  21681928.211 0  21681929.783 0
 88  2 29  8 52 29.0800000  0  4  3 13 11  9
  -7337733.594 8  78709626.011 7  22696353.690 0  22696356.688 0
  -2791187.029 8  53567312.576 6  20856643.227 0  20856645.103 0
   3867294.811 7   3172142.261 6  23141031.310 0  23141033.093 0
 -11622790.024 7  -8961545.068 6  21700458.285 0  21700460.728 0
 88  2 29  8 52 59.0800000  0  4  3 13 11  9
  -7390426.972 7  78668566.252 6  22686326.866 0  22686328.677 0
  -2770681.203 7  53583291.155 6  20860545.052 0  20860546.469 0
   3934529.926 7   3224533.265 7  23153824.232 0  23153828.709 0
 -11524997.866 7  -8885343.402 7  21719067.345 0  21719069.803 0
 88  2 29  8 53 29.0800000  0  4  3 13 11  9
  -7442905.956 7  78627673.563 6  22676341.430 0  22676342.574 0
  -2749959.544 8  53599437.889 7  20864488.541 0  20864490.320 0
   4001758.216 7   3276918.936 6  23166618.359 0  23166620.574 0
 -11426792.698 7  -8808819.922 6  21737754.777 0  21737756.750 0
 88  2 29  8 53 59.0800000  0  4  3 13 11  9
  -7495171.369 7  78586947.275 6  22666394.846 0  22666397.571 0
  -2729023.348 7  53615751.819 6  20868472.106 0  20868474.280 0
   4068977.942 6   3329297.943 6  23179409.190 0  23179411.349 0
 -11328177.898 7  -8731977.245 7  21756520.723 0  21756523.511 0
 88  2 29  8 54 29.0800000  0  4  3 13 11  9
  -7547223.601 7  78546387.122 6  22656489.050 0  22656491.640 0
  -2707874.415 7  53632231.510 6  20872496.436 0  20872499.343 0
   4136188.830 7   3381670.061 6  23192199.854 0  23192202.498 0
 -11229156.131 7  -8654817.438 7  21775364.268 0  21775365.569 0
 88  2 29  8 54 59.0800000  0  4  3 13 11  9
  -7599063.169 7  78505992.671 6  22646625.023 0  22646626.267 0
  -2686514.405 7  53648875.673 6  20876561.910 0  20876563.892 0
   4203390.419 7   3434034.915 7  23204987.548 0  23204990.039 0
 -11129730.628 7  -8577343.044 6  21794284.338 0  21794285.867 0
 88  2 29  8 55 29.0800000  0  4  3 13 11  9
  -7650690.931 6  78465763.261 6  22636799.601 0  22636803.306 0
  -2664944.993 7  53665683.007 6  20880666.902 0  20880668.913 0
   4270581.525 7   3486391.611 6  23217774.151 0  23217775.977 0
 -11029904.653 7  -8499556.595 7  21813280.047 0  21813281.834 0
 88  2 29  8 55 59.0800000  0  4  3 13 11  9
  -7702107.133 7  78425698.734 6  22627017.585 0  22627017.658 0
  -2643167.941 7  53682652.138 7  20884810.163 0  20884812.965 0
   4337761.279 7   3538739.473 6  23230557.429 0  23230559.465 0
 -10929681.554 7  -8421460.690 7  21832351.695 0  21832353.810 0
 88  2 29  8 56 29.0800000  0  4  3 13 11  9
  -7753312.634 7  78385798.333 7  22617272.417 0  22617272.769 0
  -2621184.582 7  53699782.019 7  20888994.035 0  20888995.634 0
   4404928.729 7   3591077.740 7  23243339.877 0  23243341.254 0
 -10829064.233 7  -8343057.592 7  21851499.339 0  21851502.027 0
 88  2 29  8 56 59.0800000  0  4  3 13 11  9
  -7804307.460 7  78346062.145 7  22607568.151 0  22607571.892 0
  -2598996.197 7  53717071.663 7  20893215.971 0  20893218.671 0
   4472083.463 7   3643406.107 7  23256118.056 0  23256120.854 0
 -10728055.995 7  -8264349.909 7  21870719.931 0  21870721.274 0
 88  2 29  8 57 29.0800000  0  4  3 13 11  9
  -7855092.653 7  78306489.289 6  22597903.084 0  22597904.895 0
  -2576604.867 7  53734519.465 6  20897477.230 0  20897477.852 0
   4539224.182 7   3695723.538 6  23268894.835 0  23268897.234 0
 -10626659.843 8  -8185339.919 6  21890014.044 0  21890017.705 0
 88  2 29  8 57 59.0800000  0  4  3 13 11  9
  -7905669.074 7  78267079.100 6  22588279.465 0  22588281.741 0
  -2554012.284 7  53752124.067 6  20901776.500 0  20901778.026 0
   4606350.455 7   3748029.714 7  23281667.537 0  23281671.234 0
 -10524879.374 7  -8106030.465 7  21909383.997 0  21909385.882 0
 88  2 29  8 58 29.0800000  0  4  3 13 11  9
  -7956036.562 7  78227831.734 6  22578695.582 0  22578698.431 0
  -2531219.775 8  53769884.478 7  20906113.289 0  20906115.560 0
   4673461.716 7   3800324.194 6  23294438.551 0  23294442.130 0
 -10422717.435 7  -8026423.779 7  21928824.850 0  21928825.147 0
 88  2 29  8 58 59.0800000  0  4  3 13 11  9
  -8006195.514 7  78188746.858 6  22569148.352 0  22569151.515 0
  -2508228.726 7  53787799.571 6  20910488.830 0  20910490.316 0
   4740557.139 7   3852606.344 7  23307207.010 0  23307209.372 0
 -10320177.076 7  -7946522.214 7  21948337.178 0  21948340.311 0
 88  2 29  8 59 29.0800000  0  4  3 13 11  9
  -8056147.683 7  78149823.114 6  22559644.589 0  22559647.134 0
  -2485041.484 7  53805867.555 6  20914900.519 0  20914902.785 0
   4807635.548 7   3904875.212 6  23319971.765 0  23319973.834 0
 -10217261.703 7  -7866328.417 6  21967922.425 0  21967924.384 0
 88  2 29  8 59 59.0800000  0  4  3 13 11  9
  -8105892.950 7  78111060.601 7  22550179.021 0  22550180.831 0
  -2461658.737 7  53824087.873 7  20919350.070 0  20919353.042 0
   4874696.551 7   3957130.533 7  23332733.132 0  23332736.247 0
 -10113974.871 7  -7785845.198 6  21987576.858 0  21987577.258 0
 88  2 29  9  0 29.0800000  0  4  3 13 11  9
  -8155431.999 7  78072458.754 6  22540750.220 0  22540754.041 0
  -2438082.669 7  53842458.834 6  20923836.852 0  20923838.698 0
   4941739.645 7   4009371.907 7  23345490.664 0  23345493.457 0
 -10010319.601 7  -7705074.867 7  22007301.061 0  22007302.620 0
 88  2 29  9  0 59.0800000  0  4  3 13 11  9
  -8204765.422 7  78034017.162 7  22531363.469 0  22531365.085 0
  -2414314.258 7  53860979.677 7  20928359.936 0  20928362.184 0
   5008763.967 7   4061598.640 7  23358245.344 0  23358247.498 0
  -9906299.333 7  -7624020.123 7  22027096.141 0  22027097.813 0
 88  2 29  9  1 29.0800000  0  4  3 13 11  9
  -8253893.895 7  77995735.267 7  22522014.308 0  22522016.419 0
  -2390355.368 7  53879648.941 7  20932919.160 0  20932920.961 0
   5075768.657 7   4113810.087 7  23370994.910 0  23370997.928 0
  -9801917.046 7  -7542683.297 6  22046959.515 0  22046961.546 0
 88  2 29  9  1 59.0800000  0  4  3 13 11  9
  -8302817.860 7  77957612.705 7  22512704.323 0  22512705.813 0
  -2366207.673 8  53898465.334 6  20937514.373 0  20937515.059 0
   5142753.277 7   4166005.886 7  23383742.251 0  23383745.059 0
  -9697175.753 7  -7461066.714 7  22066890.087 0  22066891.846 0
 88  2 29  9  2 29.0800000  0  4  3 13 11  9
  -8351538.190 7  77919648.837 6  22503433.278 0  22503436.410 0
  -2341872.392 7  53917427.886 6  20942145.139 0  20942147.338 0
   5209717.432 7   4218185.737 7  23396485.094 0  23396487.958 0
  -9592079.518 7  -7379173.556 7  22086890.546 0  22086891.459 0
 88  2 29  9  2 59.0800000  0  4  3 13 11  9
  -8400055.426 7  77881843.231 6  22494200.328 0  22494202.887 0
  -2317350.684 7  53936535.712 6  20946810.829 0  20946813.460 0
   5276660.396 7   4270349.082 7  23409223.915 0  23409225.745 0
  -9486630.417 7  -7297005.448 6  22106956.539 0  22106957.238 0
 88  2 29  9  3 29.0800000  0  4  3 13 11  9
  -8448370.537 7  77844195.106 6  22485006.985 0  22485007.730 0
  -2292645.465 7  53955786.536 7  20951512.808 0  20951514.391 0
   5343581.079 7   4322495.056 7  23421958.489 0  23421962.070 0
  -9380832.697 7  -7214565.667 7  22127089.257 0  22127089.755 0
 88  2 29  9  3 59.0800000  0  4  3 13 11  9
  -8496483.441 7  77806704.542 6  22475851.213 0  22475854.596 0
  -2267756.725 7  53975180.367 7  20956248.556 0  20956251.010 0
   5410478.994 7   4374623.300 6  23434688.652 0  23434692.035 0
  -9274689.308 7  -7131856.559 7  22147287.538 0  22147288.092 0
 88  2 29  9  4 29.0800000  0  4  3 13 11  9
  -8544395.280 7  77769370.707 7  22466735.276 0  22466735.203 0
  -2242687.035 7  53994715.201 7  20961020.102 0  20961021.494 0
   5477353.594 7   4426733.384 7  23447414.275 0  23447418.200 0
  -9168203.944 7  -7048880.968 7  22167550.799 0  22167552.313 0
 88  2 29  9  4 59.0800000  0  4  3 13 11  9
  -8592106.592 7  77732193.030 7  22457653.917 0  22457656.700 0
  -2217437.794 7  54014389.943 7  20965823.815 0  20965824.998 0
   5544204.525 7   4478825.003 7  23460137.215 0  23460138.798 0
  -9061379.752 7  -6965641.342 7  22187878.335 0  22187880.979 0
 88  2 29  9  5 29.0800000  0  4  3 13 11  9
  -8639617.745 7  77695171.420 6  22448615.516 0  22448617.162 0
  -2192010.096 8  54034203.725 6  20970663.277 0  20970665.153 0
   5611030.977 7   4530897.556 6  23472853.453 0  23472854.743 0
  -8954219.422 8  -6882139.804 7  22208270.680 0  22208272.380 0
 88  2 29  9  5 59.0800000  0  4  3 13 11  9
  -8686929.896 7  77658304.814 6  22439609.108 0  22439609.352 0
  -2166405.757 8  54054155.156 7  20975535.394 0  20975537.399 0
   5677832.560 7   4582950.731 7  23485564.493 0  23485568.588 0
  -8846726.693 7  -6798379.241 6  22228726.641 0  22228726.796 0
 88  2 29  9  6 29.0800000  0  4  3 13 11  9
  -8734043.576 7  77621592.874 6  22430645.137 0  22430648.713 0
  -2140625.801 8  54074243.435 6  20980440.353 0  20980442.417 0
   5744608.500 6   4634983.922 6  23498271.386 0  23498274.292 0
  -8738904.892 7  -6714362.269 6  22249243.448 0  22249245.261 0
 88  2 29  9  6 59.0800000  0  4  3 13 11  9
  -8780958.950 7  77585035.488 7  22421717.652 0  22421719.542 0
  -2114671.880 7  54094467.263 7  20985379.779 0  20985382.193 0
   5811358.207 7   4686996.689 7  23510973.503 0  23510976.693 0
  -8630757.352 7  -6630091.477 6  22269823.055 0  22269826.373 0
 88  2 29  9  7 29.0800000  0  4  3 13 11  9
  -8827676.637 7  77548632.091 6  22412826.780 0  22412828.802 0
  -2088545.515 7  54114825.469 7  20990351.835 0  20990353.213 0
   5878081.166 7   4738988.591 7  23523670.507 0  23523673.676 0
  -8522287.528 8  -6545569.551 6  22290464.736 0  22290465.491 0
 88  2 29  9  7 59.0800000  0  4  3 13 11  9
  -8874198.155 7  77512381.603 6  22403975.111 0  22403976.723 0
  -2062248.395 7  54135316.734 7  20995356.027 0  20995358.626 0
   5944776.592 7   4790959.054 7  23536363.177 0  23536365.468 0
  -8413498.842 7  -6460799.175 7  22311167.231 0  22311168.259 0
 88  2 29  9  8 29.0800000  0  4  3 13 11  9
  -8920523.697 7  77476283.788 7  22395157.622 0  22395160.799 0
  -2035781.798 7  54155940.046 7  21000391.575 0  21000393.436 0
   6011444.182 7   4842907.818 7  23549048.846 0  23549051.765 0
  -8304394.211 7  -6375782.593 6  22331928.651 0  22331930.067 0
 88  2 29  9  8 59.0800000  0  4  3 13 11  9
  -8966653.884 7  77440338.219 7  22386381.672 0  22386381.120 0
  -2009147.698 7  54176693.903 7  21005460.517 0  21005463.482 0
   6078083.366 7   4894834.443 6  23561729.930 0  23561732.832 0
  -8194977.270 7  -6290522.653 6  22352749.642 0  22352751.257 0
 88  2 29  9  9 29.0800000  0  4  3 13 11  9
  -9012589.612 7  77404544.141 7  22377638.984 0  22377641.672 0
  -1982347.187 7  54197577.406 7  21010560.087 0  21010562.243 0
   6144693.574 7   4946738.488 7  23574405.634 0  23574407.624 0
  -8085251.543 7  -6205022.106 6  22373628.096 0  22373631.914 0
 88  2 29  9  9 59.0800000  0  4  3 13 11  9
  -9058331.696 7  77368901.013 6  22368933.794 0  22368938.393 0
  -1955381.959 8  54218589.262 6  21015691.739 0  21015693.399 0
   6211274.364 7   4998619.628 6  23587076.434 0  23587077.469 0
  -7975220.143 7  -6119283.368 7  22394567.352 0  22394570.269 0
 88  2 29  9 10 29.0800000  0  4  3 13 11  9
  -9103880.506 7  77333408.445 7  22360267.301 0  22360268.139 0
  -1928253.478 8  54239728.347 6  21020853.672 0  21020857.172 0
   6277825.135 7   5050477.359 6  23599739.229 0  23599742.061 0
  -7864886.742 7  -6033309.303 6  22415563.515 0  22415565.659 0
 88  2 29  9 10 59.0800000  0  4  3 13 11  9
  -9149236.952 7  77298065.765 6  22351635.459 0  22351638.551 0
  -1900962.793 7  54260993.813 7  21026047.603 0  21026049.311 0
   6344345.604 6   5102311.472 7  23612397.731 0  23612400.574 0
  -7754254.486 7  -5947102.372 7  22436617.918 0  22436617.971 0
 88  2 29  9 11 29.0800000  0  4  3 13 11  9
  -9194401.901 7  77262872.337 6  22343041.228 0  22343042.788 0
  -1873511.326 7  54282384.556 7  21031271.263 0  21031272.886 0
   6410834.705 7   5154121.158 7  23625051.360 0  23625053.129 0
  -7643326.933 7  -5860665.358 6  22457726.993 0  22457726.862 0
 88  2 29  9 11 59.0800000  0  4  3 13 11  9
  -9239375.705 6  77227827.816 6  22334482.293 0  22334484.703 0
  -1845900.531 7  54303899.473 7  21036524.829 0  21036527.023 0
   6477292.763 7   5205906.645 6  23637697.231 0  23637699.278 0
  -7532107.074 7  -5774000.551 7  22478888.956 0  22478891.272 0
 88  2 29  9 12 29.0800000  0  4  3 13 11  9
  -9284158.777 7  77192931.967 7  22325961.269 0  22325964.188 0
  -1818132.234 7  54325537.112 6  21041809.643 0  21041810.549 0
   6543719.096 7   5257667.430 6  23650337.516 0  23650340.510 0
  -7420598.367 7  -5687110.669 6  22500108.101 0  22500110.974 0
 88  2 29  9 12 59.0800000  0  4  3 13 11  9
  -9328752.169 7  77158183.878 6  22317474.807 0  22317475.774 0
  -1790207.546 7  54347296.605 6  21047124.182 0  21047124.985 0
   6610113.204 7   5309403.088 7  23662971.731 0  23662974.148 0
  -7308804.355 7  -5599998.459 6  22521381.876 0  22521383.532 0
 88  2 29  9 13 29.0800000  0  4  3 13 11  9
  -9373156.648 7  77123582.991 6  22309023.927 0  22309028.714 0
  -1762127.411 7  54369177.224 6  21052466.563 0  21052468.948 0
   6676474.530 7   5361113.205 7  23675600.018 0  23675602.578 0
  -7196728.386 7  -5512666.540 6  22542710.657 0  22542712.242 0
 88  2 29  9 13 59.0800000  0  4  3 13 11  9
  -9417372.748 7  77089128.924 6  22300611.646 0  22300614.243 0
  -1733893.574 7  54391177.615 7  21057839.223 0  21057842.077 0
   6742802.759 7   5412797.529 7  23688222.445 0  23688224.917 0
  -7084373.604 7  -5425117.384 7  22564091.638 0  22564093.148 0
 88  2 29  9 14 29.0800000  0  4  3 13 11  9
  -9461401.120 7  77054821.125 6  22292232.047 0  22292235.551 0
  -1705507.368 8  54413296.734 7  21063241.144 0  21063243.576 0
   6809097.885 7   5464456.061 7  23700837.962 0  23700839.189 0
  -6971743.501 8  -5337353.690 6  22585522.727 0  22585525.659 0
 88  2 29  9 14 59.0800000  0  4  3 13 11  9
  -9505242.729 8  77020658.844 6  22283891.217 0  22283891.703 0
  -1676970.060 7  54435533.609 7  21068671.889 0  21068672.860 0
   6875359.101 7   5516088.173 6  23713446.231 0  23713449.030 0
  -6858841.547 7  -5249378.164 7  22607007.805 0  22607009.707 0
 88  2 29  9 15 29.0800000  0  4  3 13 11  9
  -9548897.941 7  76986641.838 7  22275581.876 0  22275585.148 0
  -1648283.951 7  54457886.428 7  21074131.279 0  21074133.118 0
   6941585.866 7   5567693.438 7  23726047.782 0  23726052.051 0
  -6745671.023 7  -5161193.361 6  22628543.384 0  22628545.470 0
 88  2 29  9 15 59.0800000  0  4  3 13 11  9
  -9592367.594 7  76952769.387 6  22267309.838 0  22267313.038 0
  -1619449.465 7  54480354.857 7  21079617.515 0  21079619.521 0
   7007778.235 7   5619271.897 7  23738645.184 0  23738647.726 0
  -6632235.522 7  -5072802.068 7  22650128.798 0  22650131.430 0
 88  2 29  9 16 29.0800000  0  4  3 13 11  9
  -9635652.112 8  76919041.225 6  22259074.290 0  22259076.851 0
  -1590468.116 7  54502937.734 7  21085132.476 0  21085134.454 0
   7073935.698 7   5670823.160 7  23751234.469 0  23751237.065 0
  -6518538.333 7  -4984206.867 6  22671765.098 0  22671767.503 0
 88  2 29  9 16 59.0800000  0  4  3 13 11  9
  -9678752.447 7  76885456.576 6  22250872.977 0  22250873.964 0
  -1561340.947 7  54525634.237 6  21090675.625 0  21090677.348 0
   7140057.890 7   5722346.942 6  23763817.210 0  23763820.155 0
  -6404582.497 7  -4895410.122 7  22693451.614 0  22693452.950 0
 88  2 29  9 17 29.0800000  0  4  3 13 11  9
  -9721669.747 7  76852014.549 6  22242704.551 0  22242707.112 0
  -1532069.647 7  54548443.041 6  21096245.450 0  21096247.930 0
   7206144.061 7   5773842.646 7  23776392.919 0  23776395.967 0
  -6290372.157 8  -4806415.081 6  22715184.472 0  22715185.875 0
 88  2 29  9 17 59.0800000  0  4  3 13 11  9
  -9764404.588 7  76818714.698 6  22234574.947 0  22234575.855 0
  -1502655.885 8  54571362.867 6  21101842.748 0  21101844.313 0
   7272194.078 6   5825310.170 7  23788961.390 0  23788964.790 0
  -6175910.510 7  -4717224.203 6  22736963.309 0  22736967.525 0
 88  2 29  9 18 29.0800000  0  4  3 13 11  9
  -9806957.767 7  76785556.391 6  22226475.049 0  22226476.595 0
  -1473100.832 7  54594392.778 6  21107467.347 0  21107468.111 0
   7338207.540 7   5876749.234 7  23801523.732 0  23801524.962 0
  -6061200.830 7  -4627840.029 7  22758792.852 0  22758795.724 0
 88  2 29  9 18 59.0800000  0  4  3 13 11  9
  -9849329.507 7  76752539.477 6  22218412.900 0  22218414.008 0
  -1443405.978 7  54617531.628 7  21113118.362 0  21113119.569 0
   7404184.404 6   5928159.776 6  23814079.458 0  23814081.179 0
  -5946246.561 7  -4538265.303 6  22780669.554 0  22780671.728 0
 88  2 29  9 19 29.0800000  0  4  3 13 11  9
  -9891520.902 7  76719663.087 7  22210383.554 0  22210385.371 0
  -1413571.888 8  54640778.977 6  21118794.504 0  21118796.165 0
   7470124.506 7   5979541.665 7  23826626.556 0  23826629.785 0
  -5831051.127 7  -4448502.631 6  22802590.647 0  22802591.675 0
 88  2 29  9 19 59.0800000  0  4  3 13 11  9
  -9933532.899 7  76686926.501 6  22202389.300 0  22202391.313 0
  -1383600.002 7  54664133.692 7  21124498.490 0  21124499.940 0
   7536026.930 7   6030894.213 6  23839167.041 0  23839170.455 0
  -5715617.827 7  -4358554.623 7  22824555.802 0  22824558.555 0
 88  2 29  9 20 29.0800000  0  4  3 13 11  9
  -9975365.930 7  76654329.361 7  22194428.746 0  22194430.634 0
  -1353491.916 8  54687594.536 7  21130228.005 0  21130229.468 0
   7601891.596 7   6082217.316 7  23851701.917 0  23851703.451 0
  -5599949.815 7  -4268423.697 7  22846565.589 0  22846569.546 0
 88  2 29  9 20 59.0800000  0  4  3 13 11  9
 -10017021.131 7  76621870.791 6  22186501.624 0  22186502.719 0
  -1323249.538 8  54711160.025 6  21135983.218 0  21135983.940 0
   7667718.067 7   6133510.674 6  23864227.018 0  23864228.823 0
  -5484051.290 7  -4178113.164 7  22868622.758 0  22868624.053 0
 88  2 29  9 21 29.0800000  0  4  3 13 11  9
 -10058498.924 7  76589550.450 6  22178608.394 0  22178610.126 0
  -1292873.721 7  54734829.509 6  21141763.159 0  21141764.781 0
   7733506.271 7   6184774.210 6  23876747.205 0  23876748.641 0
  -5367925.670 7  -4087625.690 7  22890719.580 0  22890723.233 0
 88  2 29  9 21 59.0800000  0  4  3 13 11  9
 -10099799.651 7  76557368.103 7  22170750.609 0  22170750.644 0
  -1262365.211 8  54758602.363 6  21147568.854 0  21147570.134 0
   7799256.258 7   6236007.963 6  23889259.053 0  23889260.159 0
  -5251575.349 7  -3996963.116 6  22912860.548 0  22912863.038 0
 88  2 29  9 22 29.0800000  0  4  3 13 11  9
 -10140924.386 7  76525322.867 7  22162922.671 0  22162925.678 0
  -1231725.401 7  54782477.554 6  21153399.364 0  21153400.986 0
   7864967.622 7   6287211.602 7  23901763.474 0  23901765.934 0
  -5135004.225 7  -3906128.483 7  22935043.879 0  22935045.969 0
 88  2 29  9 22 59.0800000  0  4  3 13 11  9
 -10181873.839 7  76493414.239 6  22155131.402 0  22155133.168 0
  -1200955.587 7  54806454.027 6  21159254.370 0  21159255.477 0
   7930640.118 7   6338384.970 7  23914259.197 0  23914263.027 0
  -5018215.889 7  -3815124.588 7  22957266.453 0  22957268.987 0
 88  2 29  9 23 29.0800000  0  4  3 13 11  9
 -10222648.629 7  76461641.689 6  22147372.857 0  22147373.192 0
  -1170057.154 7  54830530.731 6  21165134.103 0  21165135.009 0
   7996273.773 7   6389528.096 7  23926750.596 0  23926752.552 0
  -4901213.086 7  -3723953.595 6  22979533.499 0  22979534.170 0
 88  2 29  9 23 59.0800000  0  4  3 13 11  9
 -10263249.693 7  76430004.534 6  22139645.227 0  22139647.953 0
  -1139030.996 8  54854706.944 6  21171038.475 0  21171040.912 0
   8061868.278 7   6440640.682 7  23939231.799 0  23939234.378 0
  -4784000.029 8  -3632618.725 7  23001837.123 0  23001839.745 0
 88  2 29  9 24 29.0800000  0  4  3 13 11  9
 -10303677.732 7  76398502.176 6  22131952.661 0  22131954.517 0
  -1107878.802 8  54878981.384 6  21176966.115 0  21176967.921 0
   8127422.943 7   6491722.231 6  23951707.727 0  23951708.861 0
  -4666580.046 7  -3541122.667 6  23024182.691 0  23024183.772 0
 88  2 29  9 24 59.0800000  0  4  3 13 11  9
 -10343933.384 7  76367134.142 6  22124292.110 0  22124294.940 0
  -1076601.604 8  54903353.232 6  21182917.537 0  21182919.974 0
   8192937.559 7   6542772.572 7  23964173.653 0  23964176.947 0
  -4548956.235 7  -3449467.739 7  23046563.922 0  23046566.983 0
 88  2 29  9 25 29.0800000  0  4  3 13 11  9
 -10384017.424 7  76335899.848 6  22116665.262 0  22116664.813 0
  -1045200.672 7  54927821.482 7  21188893.485 0  21188894.706 0
   8258412.135 7   6593791.696 7  23976632.609 0  23976634.265 0
  -4431132.422 7  -3357657.001 6  23068986.626 0  23068987.160 0
 88  2 29  9 25 59.0800000  0  4  3 13 11  9
 -10423930.450 7  76304798.823 6  22109069.177 0  22109071.434 0
  -1013676.958 8  54952385.423 6  21194891.841 0  21194894.877 0
   8323846.895 7   6644779.835 7  23989085.910 0  23989087.591 0
  -4313111.612 7  -3265692.743 7  23091444.075 0  23091445.819 0
 88  2 29  9 26 29.0800000  0  4  3 13 11  9
 -10463673.238 8  76273830.420 6  22101506.163 0  22101508.144 0
   -982031.758 8  54977044.011 6  21200913.835 0  21200916.759 0
   8389241.705 7   6695736.818 7  24001529.126 0  24001531.397 0
  -4194897.161 7  -3173577.606 7  23113939.294 0  23113941.452 0
 88  2 29  9 26 59.0800000  0  4  3 13 11  9
 -10503246.925 7  76242993.796 6  22093975.857 0  22093976.079 0
   -950266.684 8  55001796.022 5  21206958.896 0  21206960.932 0
   8454595.932 7   6746662.166 7  24013966.631 0  24013966.812 0
  -4076492.944 7  -3081314.589 6  23136471.233 0  23136473.965 0
 88  2 29  9 27 29.0800000  0  4  3 13 11  9
 -10542652.212 7  76212288.398 6  22086476.959 0  22086480.100 0
   -918382.215 7  55026641.061 5  21213026.136 0  21213028.174 0
   8519909.637 7   6797556.000 7  24026393.905 0  24026395.903 0
  -3957901.829 7  -2988905.924 7  23159039.527 0  23159040.369 0
 88  2 29  9 27 59.0800000  0  4  3 13 11  9
 -10581889.697 8  76181713.745 6  22079010.750 0  22079010.955 0
   -886379.935 7  55051577.915 6  21219116.385 0  21219117.879 0
   8585182.223 7   6848417.735 6  24038815.400 0  24038818.633 0
  -3839127.721 7  -2896354.704 7  23181640.330 0  23181643.341 0
 88  2 29  9 28 29.0800000  0  4  3 13 11  9
 -10620960.007 7  76151269.341 6  22071575.680 0  22071578.384 0
   -854260.890 7  55076605.730 7  21225228.414 0  21225229.306 0
   8650414.032 6   6899247.714 6  24051226.725 0  24051229.972 0
  -3720173.852 7  -2803663.351 7  23204277.146 0  23204277.949 0
 88  2 29  9 28 59.0800000  0  4  3 13 11  9
 -10659863.697 7  76120954.805 6  22064173.090 0  22064174.357 0
   -822026.148 8  55101723.711 6  21231362.363 0  21231363.285 0
   8715604.870 7   6950045.777 6  24063635.989 0  24063636.660 0
  -3601043.304 7  -2710834.397 7  23226947.669 0  23226950.012 0
 88  2 29  9 29 29.0800000  0  4  3 13 11  9
 -10698601.887 7  76090769.216 7  22056800.678 0  22056802.813 0
   -789676.959 8  55126930.872 6  21237517.864 0  21237520.214 0
   8780754.387 7   7000811.620 6  24076030.916 0  24076035.419 0
  -3481739.861 7  -2617870.652 7  23249649.559 0  23249651.027 0
 88  2 29  9 29 59.0800000  0  4  3 13 11  9
 -10737175.368 7  76060711.962 6  22049460.571 0  22049462.267 0
   -757214.454 7  55152226.322 7  21243695.826 0  21243697.291 0
   8845862.291 7   7051545.058 7  24088421.808 0  24088422.776 0
  -3362267.006 8  -2524774.934 6  23272384.644 0  23272386.050 0
 88  2 29  9 30 29.0800000  0  4  3 13 11  9
 -10775584.809 7  76030782.543 7  22042151.000 0  22042152.502 0
   -724640.035 8  55177608.987 6  21249894.082 0  21249895.291 0
   8910928.742 7   7102246.201 6  24100803.775 0  24100803.746 0
  -3242628.177 7  -2431549.875 6  23295150.421 0  23295151.161 0
 88  2 29  9 30 59.0800000  0  4  3 13 11  9
 -10813831.057 7  76000980.299 7  22034873.601 0  22034874.866 0
   -691954.665 8  55203078.104 7  21256114.002 0  21256115.293 0
   8975954.019 7   7152915.244 6  24113175.347 0  24113179.098 0
  -3122826.486 7  -2338197.925 7  23317947.610 0  23317950.226 0
 88  2 29  9 31 29.0800000  0  4  3 13 11  9
 -10851914.240 8  75971305.092 7  22027627.204 0  22027628.003 0
   -659159.067 8  55228633.131 6  21262354.727 0  21262356.608 0
   9040937.728 7   7203551.916 7  24125544.860 0  24125544.925 0
  -3002865.180 7  -2244721.610 6  23340776.759 0  23340777.725 0
 88  2 29  9 31 59.0800000  0  4  3 13 11  9
 -10889835.731 7  75941755.888 6  22020410.046 0  22020412.472 0
   -626254.154 7  55254273.325 7  21268617.086 0  21268618.093 0
   9105879.804 7   7254156.134 7  24137900.962 0  24137903.385 0
  -2882748.227 7  -2151123.978 6  23363633.792 0  23363635.251 0
 88  2 29  9 32 29.0800000  0  4  3 13 12  9
 -10927596.386 7  75912332.027 6  22013224.506 0  22013226.773 0
   -593241.757 8  55279997.266 6  21274898.724 0  21274900.304 0
         -.251 8          .134 7  21045275.600 0          .000 0
  -2762478.462 7  -2057407.315 6  23386520.310 0  23386522.220 0
 88  2 29  9 32 59.0800000  0  4  3 13 12  9
 -10965196.825 7  75883032.983 6  22006070.802 0  22006072.070 0
   -560122.671 7  55305804.336 6  21281201.064 0  21281202.830 0
     49482.373 7 120334784.236 6  21054726.492 0  21054729.354 0
  -2642059.929 7  -1963574.688 7  23409434.092 0  23409436.880 0
 88  2 29  9 33 29.0800000  0  4  3 13 12  9
 -11002637.697 7  75853858.304 6  21998945.126 0  21998946.337 0
   -526897.890 7  55331693.780 7  21287523.495 0  21287525.203 0
     99545.908 7 120373794.772 6  21064253.410 0  21064255.520 0
  -2521495.403 7  -1869628.302 7  23432377.772 0  23432380.747 0
 88  2 29  9 33 59.0800000  0  4  3 13 12  9
 -11039919.417 7  75824807.622 6  21991849.815 0  21991851.483 0
   -493568.128 7  55357665.025 6  21293865.042 0  21293867.880 0
    150188.389 7 120413256.416 7  21073891.077 0  21073893.162 0
  -2400788.668 7  -1775571.136 6  23455347.267 0  23455349.992 0
 88  2 29  9 34 29.0800000  0  4  3 13 12  9
 -11077042.843 8  75795880.310 6  21984786.819 0  21984788.390 0
   -460134.689 7  55383717.054 7  21300227.854 0  21300230.321 0
    201407.789 7 120453167.618 6  21083637.094 0  21083639.812 0
  -2279942.603 7  -1681405.363 7  23478344.704 0  23478345.492 0
 88  2 29  9 34 59.0800000  0  4  3 13 12  9
 -11114008.257 7  75767076.076 7  21977750.327 0  21977752.878 0
   -426598.749 7  55409848.951 7  21306609.495 0  21306611.489 0
    253202.551 8 120493527.160 7  21093493.202 0  21093495.739 0
  -2158960.700 7  -1587133.768 7  23501367.085 0  23501368.181 0
 88  2 29  9 35 29.0800000  0  4  3 13 12  9
 -11150816.835 7  75738394.102 7  21970747.089 0  21970749.027 0
   -392961.046 8  55436060.150 7  21313010.225 0  21313011.190 0
    305569.683 7 120534332.703 6  21103458.559 0  21103461.173 0
  -2037846.514 7  -1492759.103 6  23524413.365 0  23524413.671 0
 88  2 29  9 35 59.0800000  0  4  3 13 12  9
 -11187469.276 7  75709833.781 7  21963771.944 0  21963774.852 0
   -359222.414 7  55462349.988 6  21319430.616 0  21319432.568 0
    358507.762 7 120575583.137 6  21113532.018 0  21113534.976 0
  -1916603.430 7  -1398283.954 7  23547484.868 0  23547486.728 0
 88  2 29  9 36 29.0800000  0  4  3 13 12  9
 -11223966.225 7  75681394.592 6  21956828.130 0  21956827.809 0
   -325384.125 8  55488717.486 7  21325869.839 0  21325872.020 0
    412014.685 7 120617276.820 6  21123714.484 0  21123717.374 0
  -1795234.381 7  -1303710.729 7  23570582.057 0  23570582.722 0
 88  2 29  9 36 59.0800000  0  4  3 13 12  9
 -11260308.770 7  75653075.743 7  21949910.482 0  21949914.445 0
   -291447.055 7  55515161.951 6  21332327.748 0  21332329.816 0
    466088.276 7 120659412.069 7  21134004.472 0  21134006.053 0
  -1673743.169 7  -1209042.221 7  23593701.668 0  23593702.227 0
 88  2 29  9 37 29.0800000  0  4  3 13 12  9
 -11296497.788 7  75624876.523 6  21943025.753 0  21943026.055 0
   -257412.547 7  55541682.343 6  21338805.061 0  21338805.810 0
    520725.919 7 120701986.841 7  21144401.797 0  21144403.667 0
  -1552133.198 7  -1114281.224 7  23616842.033 0  23616845.104 0
 88  2 29  9 37 59.0800000  0  4  3 13 12  9
 -11332533.538 7  75596796.729 6  21936166.867 0  21936168.653 0
   -223281.371 8  55568278.055 6  21345299.861 0  21345301.768 0
    575925.851 8 120744999.759 6  21154905.759 0  21154908.016 0
  -1430408.125 7  -1019430.529 6  23640005.870 0  23640007.234 0
 88  2 29  9 38 29.0800000  0  4  3 13 12  9
 -11368416.858 7  75568835.708 7  21929338.440 0  21929340.931 0
   -189053.890 7  55594948.831 6  21351813.231 0  21351814.470 0
    631685.809 8 120788449.060 6  21165515.751 0  21165518.415 0
  -1308570.590 7   -924492.182 6  23663188.135 0  23663191.096 0
 88  2 29  9 38 59.0800000  0  4  3 13 12  9
 -11404148.350 7  75540992.995 6  21922540.408 0  21922540.856 0
   -154731.566 7  55621693.506 6  21358343.832 0  21358346.673 0
    688003.538 7 120832332.984 6  21176233.262 0  21176235.451 0
  -1186624.399 7   -829469.194 7  23686396.477 0  23686399.372 0
 88  2 29  9 39 29.0800000  0  4  3 13 12  9
 -11439728.955 8  75513267.859 6  21915768.207 0  21915771.229 0
   -120315.514 7  55648511.189 6  21364893.721 0  21364895.373 0
    744876.782 7 120876649.781 6  21187056.298 0  21187058.225 0
  -1064572.659 7   -734363.977 6  23709620.136 0  23709623.067 0
 88  2 29  9 39 59.0800000  0  4  3 13 12  9
 -11475159.134 7  75485659.952 6  21909026.595 0  21909028.366 0
    -85805.937 7  55675401.765 7  21371460.468 0  21371462.449 0
    802303.762 8 120921398.060 6  21197983.753 0  21197986.905 0
   -942418.591 7   -639178.965 6  23732866.741 0  23732867.322 0
 88  2 29  9 40 29.0800000  0  4  3 13 12  9
 -11510440.221 7  75458168.216 7  21902313.728 0  21902316.309 0
    -51204.649 7  55702363.818 6  21378044.672 0  21378046.193 0
    860281.590 7 120966575.580 7  21209016.183 0  21209019.613 0
   -820166.071 7   -543917.272 7  23756128.960 0  23756131.770 0
 88  2 29  9 40 59.0800000  0  4  3 13 12  9
 -11545572.454 7  75430792.459 6  21895627.749 0  21895627.675 0
    -16512.284 7  55729396.837 7  21384646.501 0  21384648.912 0
    918808.392 8 121012180.854 6  21220153.797 0  21220156.364 0
   -697818.137 7   -448581.258 6  23779412.122 0  23779414.101 0
 88  2 29  9 41 29.0800000  0  4  3 13 12  9
 -11580556.240 7  75403532.368 6  21888969.690 0  21888971.793 0
     18270.009 7  55756499.913 6  21391265.791 0  21391266.669 0
    977881.572 7 121058211.885 6  21231395.524 0  21231398.370 0
   -575377.979 7   -353173.311 7  23802711.637 0  23802713.031 0
 88  2 29  9 41 59.0800000  0  4  3 13 12  9
 -11615392.798 7  75376387.022 6  21882341.273 0  21882343.008 0
     53141.434 8  55783672.459 6  21397900.420 0  21397902.645 0
   1037498.477 8 121104666.595 6  21242739.386 0  21242742.530 0
   -452849.041 7   -257696.264 7  23826028.797 0  23826030.384 0
 88  2 29  9 42 29.0800000  0  4  3 13 12  9
 -11650082.756 7  75349355.885 6  21875739.523 0  21875741.728 0
     88101.645 7  55810914.179 6  21404553.449 0  21404556.088 0
   1097657.454 8 121151543.710 6  21254187.254 0  21254191.212 0
   -330234.629 7   -162152.560 6  23849362.449 0  23849363.134 0
 88  2 29  9 42 59.0800000  0  4  3 13 12  9
 -11684627.149 7  75322438.192 7  21869166.036 0  21869168.134 0
    123148.960 7  55838223.778 6  21411223.107 0  21411225.374 0
   1158355.533 7 121198840.908 6  21265738.634 0  21265740.599 0
   -207538.574 7    -66545.235 6  23872708.715 0  23872710.095 0
 88  2 29  9 43 29.0800000  0  4  3 13 12  9
 -11719025.761 7  75295634.095 6  21862620.590 0  21862622.574 0
    158283.378 8  55865601.260 6  21417909.105 0  21417909.426 0
   1219590.548 7 121246556.495 6  21277391.681 0  21277392.658 0
    -84763.517 7     29123.616 7  23896072.901 0  23896073.943 0
 88  2 29  9 43 59.0800000  0  4  3 13 12  9
 -11753279.918 7  75268942.544 6  21856101.497 0  21856103.079 0
    193503.693 8  55893045.658 6  21424610.957 0  21424613.341 0
   1281360.280 7 121294688.727 6  21289144.842 0  21289147.972 0
     38086.924 7    124851.252 6  23919451.288 0  23919451.348 0
 88  2 29  9 44 29.0800000  0  4  3 13 12  9
 -11787390.000 8  75242363.285 6  21849611.073 0  21849613.928 0
    228809.234 8  55920556.469 6  21431330.012 0  21431331.018 0
   1343661.626 8 121343235.219 6  21301000.171 0  21301002.257 0
    161009.775 6    220635.273 7  23942842.229 0  23942843.538 0
 88  2 29  9 44 59.0800000  0  4  3 13 12  9
 -11821356.750 8  75215895.697 6  21843147.059 0  21843148.246 0
    264198.943 8  55948132.859 6  21438064.489 0  21438066.212 0
   1406492.710 8 121392194.495 6  21312956.779 0  21312960.246 0
    284001.161 7    316472.724 6  23966247.374 0  23966248.836 0
 88  2 29  9 45 29.0800000  0  4  3 13 12  9
 -11855181.269 7  75189538.944 6  21836710.507 0  21836712.029 0
    299671.734 7  55975773.997 6  21444814.707 0  21444816.889 0
   1469850.876 8 121441564.475 7  21325013.710 0  21325017.484 0
    407058.331 7    412361.408 6  23989661.536 0  23989664.032 0
 88  2 29  9 45 59.0800000  0  4  3 13 12  9
 -11888863.877 6  75163292.760 6  21830301.535 0  21830303.363 0
    335227.095 7  56003479.463 5  21451580.150 0  21451581.776 0
   1533733.652 7 121491343.250 6  21337169.739 0  21337172.843 0
    530177.742 7    508298.630 6  24013092.750 0  24013092.536 0
 88  2 29  9 46 29.0800000  0  4  3 13 12  9
 -11922405.504 7  75137156.441 6  21823917.590 0  21823920.623 0
    370864.396 7  56031248.793 6  21458362.448 0  21458363.073 0
   1598138.342 8 121541528.697 6  21349425.783 0  21349429.507 0
    653356.328 7    604281.934 6  24036531.548 0  24036534.602 0
 88  2 29  9 46 59.0800000  0  4  3 13 12  9
 -11955807.016 7  75111129.298 6  21817562.097 0  21817563.777 0
    406583.229 7  56059081.658 6  21465158.542 0  21465160.623 0
   1663062.580 7 121592119.010 6  21361779.387 0  21361783.675 0
    776590.593 7    700308.615 7  24059982.370 0  24059986.119 0
 88  2 29  9 47 29.0800000  0  4  3 13 12  9
 -11989068.531 7  75085211.252 6  21811233.044 0  21811235.129 0
    442382.450 7  56086977.151 6  21471971.292 0  21471972.628 0
   1728503.740 8 121643112.107 7  21374234.162 0  21374236.340 0
    899876.983 7    796375.919 7  24083442.535 0  24083445.677 0
 88  2 29  9 47 59.0800000  0  4  3 13 12  9
 -12022191.373 7  75059401.259 7  21804928.574 0  21804930.392 0
    478260.536 7  56114934.098 6  21478799.065 0  21478799.930 0
   1794459.200 7 121694505.946 7  21386784.824 0  21386787.053 0
   1023212.444 7    892481.507 6  24106913.841 0  24106916.606 0
 88  2 29  9 48 29.0800000  0  4  3 13 12  9
 -12055175.984 7  75033698.978 6  21798653.568 0  21798655.499 0
    514217.422 7  56142952.448 6  21485641.063 0  21485641.512 0
   1860926.249 7 121746298.429 6  21399432.703 0  21399435.383 0
   1146594.161 7    988623.050 6  24130392.731 0  24130393.545 0
 88  2 29  9 48 59.0800000  0  4  3 13 12  9
 -12088022.396 7  75008104.372 7  21792401.775 0  21792403.797 0
    550252.763 8  56171031.944 6  21492498.200 0  21492500.152 0
   1927902.979 7 121798488.088 7  21412178.451 0  21412180.757 0
   1270018.659 7   1084798.009 7  24153879.335 0  24153882.876 0
 88  2 29  9 49 29.0800000  0  4  3 13 12  9
 -12120731.548 7  74982616.732 6  21786178.022 0  21786179.280 0
    586365.273 7  56199171.556 6  21499370.217 0  21499371.797 0
   1995385.661 7 121851071.965 7  21425019.417 0  21425022.834 0
   1393482.547 6   1181003.656 6  24177373.151 0  24177376.009 0
 88  2 29  9 49 59.0800000  0  4  3 13 12  9
 -12153304.479 8  74957235.237 7  21779980.031 0  21779982.292 0
    622554.124 7  56227370.654 6  21506257.461 0  21506258.782 0
   2063371.840 7 121904048.199 7  21437956.956 0  21437959.645 0
   1516982.426 7   1277237.305 6  24200872.263 0  24200876.686 0
 88  2 29  9 50 29.0800000  0  4  3 13 12  9
 -12185741.985 8  74931959.264 6  21773806.801 0  21773808.632 0
    658818.752 7  56255628.803 6  21513157.382 0  21513158.702 0
   2131859.219 7 121957414.972 7  21450989.255 0  21450991.941 0
   1640515.157 7   1373496.571 6  24224383.565 0  24224382.692 0
 88  2 29  9 50 59.0800000  0  4  3 13 12  9
 -12218044.055 7  74906788.819 7  21767660.534 0  21767662.140 0
    695158.532 8  56283945.518 7  21520073.042 0  21520075.180 0
   2200845.013 7 122011170.113 7  21464117.470 0  21464120.515 0
   1764077.661 7   1469779.051 6  24247896.522 0  24247897.597 0
 88  2 29  9 51 29.0800000  0  4  3 13 12  9
 -12250211.645 7  74881723.175 6  21761538.762 0  21761540.740 0
    731572.519 7  56312320.047 6  21527001.209 0  21527005.222 0
   2270325.877 7 122065311.029 6  21477339.505 0  21477342.049 0
   1887666.512 7   1566082.037 7  24271412.763 0  24271416.100 0
 88  2 29  9 51 59.0800000  0  4  3 13 12  9
 -12282245.734 7  74856761.555 6  21755443.088 0  21755445.311 0
    768060.266 7  56340752.064 6  21533945.173 0  21533947.640 0
   2340299.851 7 122119836.196 6  21490656.033 0  21490657.359 0
   2011278.532 7   1662403.132 6  24294935.182 0  24294939.016 0
 88  2 29  9 52 29.0800000  0  4  3 13 12  9
 -12314146.624 7  74831903.719 6  21749372.502 0  21749374.420 0
    804621.213 7  56369241.118 6  21540903.533 0  21540904.342 0
   2410764.020 7 122174743.307 6  21504063.080 0  21504066.464 0
   2134910.872 6   1758740.027 6  24318462.667 0  24318464.365 0
 88  2 29  9 52 59.0800000  0  4  3 13 12  9
 -12345914.835 7  74807149.288 7  21743326.947 0  21743329.064 0
    841254.715 7  56397786.687 6  21547874.600 0  21547875.565 0
   2481715.704 7 122230030.331 6  21517565.495 0  21517567.788 0
   2258559.958 7   1855089.932 7  24341991.073 0  24341995.688 0
 88  2 29  9 53 29.0800000  0  4  3 13 12  9
 -12377551.174 7  74782497.592 7  21737307.319 0  21737309.286 0
    877960.171 7  56426388.347 6  21554859.202 0  21554860.452 0
   2553151.821 7 122285694.816 6  21531159.757 0  21531161.863 0
   2382222.606 8   1951450.462 6  24365524.281 0  24365528.128 0
 88  2 29  9 53 59.0800000  0  4  3 13 12  9
 -12409056.068 7  74757948.335 7  21731311.777 0  21731313.292 0
    914736.880 7  56455045.513 6  21561856.685 0  21561859.266 0
   2625069.488 7 122341734.547 7  21544844.686 0  21544847.272 0
   2505895.551 7   2047818.986 6  24389060.278 0  24389061.747 0
 88  2 29  9 54 29.0800000  0  4  3 13 12  9
 -12440430.576 7  74733500.665 6  21725341.528 0  21725343.105 0
    951583.718 7  56483757.325 6  21568868.474 0  21568871.499 0
   2697465.854 7 122398147.286 6  21558621.075 0  21558625.063 0
   2629575.629 7   2144193.058 6  24412595.689 0  24412597.535 0
 88  2 29  9 54 59.0800000  0  4  3 13 12  9
 -12471675.250 7  74709154.182 6  21719395.891 0  21719398.392 0
    988500.524 8  56512523.673 6  21575894.230 0  21575896.411 0
   2770338.215 8 122454930.926 7  21572489.105 0  21572490.990 0
   2753259.438 7   2240570.109 6  24436133.463 0  24436132.137 0
 88  2 29  9 55 29.0800000  0  4  3 13 12  9
 -12502790.538 7  74684908.517 6  21713474.514 0  21713477.069 0
   1025486.846 7  56541344.183 7  21582932.177 0  21582933.954 0
   2843684.081 7 122512083.538 7  21586445.948 0  21586447.302 0
   2876944.347 6   2336947.936 6  24459664.782 0  24459669.508 0
 88  2 29  9 55 59.0800000  0  4  3 13 12  9
 -12533777.078 8  74660763.168 6  21707578.543 0  21707579.415 0
   1062541.308 8  56570217.784 6  21589984.033 0  21589985.914 0
   2917500.323 7 122569602.680 6  21600492.256 0  21600495.408 0
   3000626.701 7   2433323.791 6  24483202.560 0  24483202.565 0
 88  2 29  9 56 29.0800000  0  4  3 13 12  9
 -12564635.629 8  74636717.552 7  21701705.907 0  21701707.467 0
   1099663.936 8  56599144.504 7  21597047.478 0  21597049.730 0
   2991783.711 7 122627485.816 6  21614629.478 0  21614631.230 0
   3124303.563 7   2529695.428 6  24506738.175 0  24506737.952 0
 88  2 29  9 56 59.0800000  0  4  3 13 12  9
 -12595366.651 8  74612771.304 7  21695858.080 0  21695859.578 0
   1136853.978 7  56628123.762 6  21604124.948 0  21604127.115 0
   3066531.851 7 122685731.098 6  21628852.400 0  21628855.294 0
   3247971.690 7   2626060.212 6  24530275.453 0  24530274.856 0
 88  2 29  9 57 29.0800000  0  4  3 13 12  9
 -12625970.597 7  74588924.085 6  21690033.773 0  21690035.927 0
   1174111.050 7  56657155.243 7  21611214.894 0  21611216.416 0
   3141741.495 7 122744336.010 6  21643164.159 0  21643166.044 0
   3371628.123 7   2722415.786 6  24553802.620 0  24553803.343 0
 88  2 29  9 57 59.0800000  0  4  3 13 12  9
 -12656448.329 7  74565175.217 6  21684233.799 0  21684237.074 0
   1211434.366 7  56686238.347 6  21618316.804 0  21618318.543 0
   3217409.412 7 122803297.990 6  21657563.419 0  21657566.999 0
   3495269.653 7   2818759.919 6  24577330.597 0  24577333.455 0
 88  2 29  9 58 29.0800000  0  4  3 13 12  9
 -12686800.395 7  74541524.263 5  21678459.313 0  21678461.005 0
   1248823.563 7  56715372.791 6  21625431.849 0  21625433.159 0
   3293533.188 7 122862615.209 6  21672050.310 0  21672051.098 0
   3618892.680 7   2915089.505 5  24600852.485 0  24600854.816 0
 88  2 29  9 58 59.0800000  0  4  3 13 12  9
 -12717027.352 7  74517970.798 7  21672705.717 0  21672709.683 0
   1286278.093 8  56744558.143 6  21632558.686 0  21632561.342 0
   3370109.413 7 122922284.969 5  21686622.160 0  21686623.874 0
   3742494.494 7   3011402.600 6  24624372.208 0  24624376.158 0
 88  2 29  9 59 29.0800000  0  4  3 13 12  9
 -12747130.085 7  74494514.132 6  21666978.905 0  21666979.588 0
   1323797.182 8  56773793.796 6  21639698.658 0  21639701.125 0
   3447134.746 7 122982304.686 6  21701278.477 0  21701282.222 0
   3866071.699 7   3107696.553 6  24647892.180 0  24647890.660 0
 88  2 29  9 59 59.0800000  0  4  3 13 12  9
 -12777108.828 7  74471154.084 7  21661273.815 0  21661275.816 0
   1361380.676 7  56803079.624 6  21646850.392 0  21646852.972 0
   3524606.793 7 123042672.502 7  21716020.593 0  21716023.470 0
   3989621.580 6   3203969.114 6  24671403.513 0  24671404.679 0
 88  2 29 10  0 29.0800000  0  4  3 13 12  9
 -12806964.026 7  74447890.321 6  21655592.398 0  21655594.976 0
   1399027.752 7  56832415.023 6  21654013.488 0  21654016.168 0
   3602522.648 7 123103386.136 6  21730848.926 0  21730852.672 0
   4113140.963 7   3300218.032 6  24694906.623 0  24694909.079 0
 88  2 29 10  0 59.0800000  0  4  3 13 12  9
 -12836696.450 7  74424722.206 6  21649935.297 0  21649935.862 0
   1436737.991 7  56861799.612 7  21661190.576 0  21661192.387 0
   3680879.207 7 123164443.168 6  21745759.448 0  21745761.748 0
   4236626.268 7   3396440.364 6  24718409.552 0  24718408.283 0
 88  2 29 10  1 29.0800000  0  4  3 13 12  9
 -12866306.681 8  74401649.300 6  21644299.180 0  21644299.843 0
   1474511.026 7  56891233.140 6  21668378.371 0  21668381.366 0
   3759673.185 7 123225841.063 7  21760753.169 0  21760755.841 0
   4360074.748 5   3492633.933 6  24741893.086 0  24741901.748 0
 88  2 29 10  1 59.0800000  0  4  3 13 12  9
 -12895795.252 7  74378671.207 6  21638688.500 0  21638689.256 0
   1512346.433 7  56920715.283 6  21675578.470 0  21675581.468 0
   3838901.500 7 123287577.388 6  21775830.512 0  21775832.413 0
   4483483.367 7   3588796.525 6  24765379.773 0  24765382.318 0
 88  2 29 10  2 29.0800000  0  4  3 13 12  9
 -12925162.650 7  74355787.531 6  21633100.352 0  21633101.110 0
   1550243.033 8  56950245.097 6  21682790.187 0  21682791.583 0
   3918561.143 7 123349649.806 7  21790987.393 0  21790990.491 0
   4606849.069 7   3684925.654 7  24788856.755 0  24788861.741 0
 88  2 29 10  2 59.0800000  0  4  3 13 12  9
 -12954409.681 6  74332997.643 6  21627534.252 0  21627536.356 0
   1588200.832 7  56979822.607 6  21690013.096 0  21690015.306 0
   3998649.027 7 123412055.945 6  21806227.641 0  21806230.801 0
   4730168.366 7   3781018.616 7  24812324.797 0  24812325.547 0
 88  2 29 10  3 29.0800000  0  4  3 13 12  9
 -12983536.574 8  74310301.372 6  21621992.135 0  21621993.040 0
   1626219.396 7  57009447.459 5  21697247.680 0  21697249.961 0
   4079162.391 8 123474793.601 7  21821550.252 0  21821552.615 0
   4853438.608 7   3877073.354 5  24835781.325 0  24835780.357 0
 88  2 29 10  3 59.0800000  0  4  3 13 12  9
 -13012544.011 7  74287698.193 7  21616471.714 0  21616473.831 0
   1664298.615 7  57039119.579 6  21704493.368 0  21704496.408 0
   4160097.432 7 123537859.865 7  21836951.620 0  21836953.070 0
   4976656.395 7   3973087.158 6  24859230.399 0  24859232.303 0
 88  2 29 10  4 29.0800000  0  4  3 13 12  9
 -13041432.488 7  74265187.693 6  21610974.135 0  21610975.735 0
   1702437.897 8  57068838.498 6  21711751.420 0  21711752.901 0
   4241451.293 7 123601252.449 6  21852432.398 0  21852434.619 0
   5099819.118 8   4069058.234 6  24882668.735 0  24882669.107 0
 88  2 29 10  4 59.0800000  0  4  3 13 12  9
 -13070202.602 7  74242769.426 6  21605498.436 0  21605501.649 0
   1740636.566 7  57098603.688 6  21719020.803 0  21719022.184 0
   4323220.799 7 123664968.946 6  21867992.620 0  21867995.515 0
   5222923.119 6   4164983.405 6  24906091.297 0  24906094.428 0
 88  2 29 10  5 29.0800000  0  4  3 13 12  9
 -13098854.759 7  74220443.096 6  21600047.518 0  21600048.507 0
   1778894.560 8  57128415.104 6  21726301.864 0  21726303.074 0
   4405403.105 8 123729007.081 6  21883631.628 0  21883634.288 0
   5345965.794 7   4260860.756 6  24929503.760 0  24929508.994 0
 88  2 29 10  5 59.0800000  0  4  3 13 12  9
 -13127389.235 7  74198208.424 6  21594616.910 0  21594618.996 0
   1817211.031 8  57158272.092 6  21733591.683 0  21733594.580 0
   4487995.221 7 123793364.561 6  21899347.356 0  21899351.408 0
   5468944.206 7   4356688.131 6  24952907.619 0  24952911.373 0
 88  2 29 10  6 29.0800000  0  3  3 13 12
 -13155807.133 7  74176064.620 7  21589209.817 0  21589211.607 0
   1855585.918 7  57188174.596 6  21740895.694 0  21740896.346 0
   4307995.221 7 123860087.217 2          .000 0  21915624.775 0
 88  2 29 10  6 59.0800000  0  3  3 13 12
 -13184108.245 7  74154011.812 6  21583824.506 0  21583826.306 0
   1894019.239 7  57218122.639 7  21748208.862 0  21748209.754 0
 -12365549.754 8 124088087.217 2  21930990.411 0          .000 0
 88  2 29 10  7 29.0800000  0  3  3 13 12
 -13212293.607 7  74132049.206 6  21578460.812 0  21578463.543 0
   1932510.000 7  57248115.442 6  21755532.965 0  21755535.158 0
 -12711151.940 2 124316087.217 2          .000 0          .000 0
 88  2 29 10  7 59.0800000  0  3  3 13 12
 -13240363.373 7  74110176.681 6  21573119.079 0  21573121.446 0
   1971057.719 7  57278152.614 7  21762868.027 0  21762869.459 0
 -12626956.186 7 124544087.217 2  21962982.763 0          .000 0
 88  2 29 10  8 29.0800000  0  3  3 13 12
 -13268318.036 7  74088393.824 7  21567798.810 0  21567801.192 0
   2009662.540 7  57308234.279 6  21770214.798 0  21770216.310 0
 -12542364.557 7 136472972.138 7  21979080.466 0  21979081.612 0
 88  2 29 10  8 59.0800000  0  3  3 13 12
 -13296157.987 7  74066700.363 6  21562501.715 0  21562503.115 0
   2048324.465 7  57338360.445 6  21777571.723 0  21777573.441 0
 -12457382.653 7 136539191.798 7  21995250.677 0  21995253.074 0
 88  2 29 10  9 29.0800000  0  3  3 13 12
 -13323884.462 8  74045095.321 7  21557225.417 0  21557228.414 0
   2087042.097 7  57368530.025 6  21784939.528 0  21784940.900 0
 -12372013.900 7 136605712.889 7  22011496.859 0  22011499.448 0
 88  2 29 10  9 59.0800000  0  3  3 13 12
 -13351497.585 7  74023578.603 6  21551971.528 0  21551972.577 0
   2125815.586 7  57398743.130 6  21792317.490 0  21792319.120 0
 -12286261.257 7 136672533.106 6  22027814.861 0  22027817.465 0
 88  2 29 10 10 29.0800000  0  3  3 13 12
 -13378997.761 7  74002149.910 7  21546737.490 0  21546738.933 0
   2164644.866 6  57428999.713 6  21799706.642 0  21799707.097 0
 -12200128.008 7 136739649.911 7  22044206.189 0  22044207.264 0
 88  2 29 10 10 59.0800000  0  3  3 13 12
 -13406385.128 7  73980809.117 6  21541526.010 0  21541527.900 0
   2203529.413 7  57459299.354 6  21807106.068 0  21807107.312 0
 -12113617.562 7 136807060.632 7  22060667.340 0  22060671.682 0
 88  2 29 10 11 29.0800000  0  3  3 13 12
 -13433659.780 7  73959556.121 6  21536335.510 0  21536338.122 0
   2242469.350 7  57489642.152 6  21814517.197 0  21814518.358 0
 -12026732.653 7 136874763.151 7  22077201.446 0  22077203.630 0
 88  2 29 10 11 59.0800000  0  3  3 13 12
 -13460822.307 7  73938390.539 7  21531167.096 0  21531169.769 0
   2281464.327 7  57520027.835 6  21821936.973 0  21821937.787 0
 -11939477.101 8 136942754.470 7  22093805.444 0  22093808.057 0
 88  2 29 10 12 29.0800000  0  3  3 13 12
 -13487873.311 7  73917311.838 7  21526019.029 0  21526021.072 0
   2320514.143 7  57550456.261 7  21829367.793 0  21829369.351 0
 -11851853.821 8 137011032.327 7  22110478.542 0  22110482.398 0
 88  2 29 10 12 59.0800000  0  3  3 13 12
 -13514813.509 7  73896319.480 6  21520893.391 0  21520894.042 0
   2359617.829 7  57580926.658 6  21836809.517 0  21836811.376 0
 -11763866.760 7 137079593.657 7  22127222.664 0  22127225.248 0
 88  2 29 10 13 29.0800000  0  3  3 13 12
 -13541643.167 7  73875413.263 7  21515786.967 0  21515788.852 0
   2398776.001 7  57611439.518 6  21844260.486 0  21844260.914 0
 -11675518.972 7 137148436.064 6  22144033.674 0  22144037.096 0
 88  2 29 10 13 59.0800000  0  3  3 13 12
 -13568362.792 7  73854592.784 6  21510702.274 0  21510704.781 0
   2437987.809 8  57641994.160 7  21851722.043 0  21851723.603 0
 -11586813.579 7 137217557.124 7  22160915.651 0  22160918.779 0
 88  2 29 10 14 29.0800000  0  3  3 13 12
 -13594972.588 8  73833857.877 6  21505639.514 0  21505640.893 0
   2477253.519 7  57672590.821 6  21859193.616 0  21859196.651 0
 -11497753.947 7 137286954.207 6  22177862.182 0  22177865.611 0
 88  2 29 10 14 59.0800000  0  3  3 13 12
 -13621473.035 7  73813208.180 6  21500596.345 0  21500598.144 0
   2516572.342 7  57703228.864 6  21866676.722 0  21866678.453 0
 -11408343.700 7 137356624.521 7  22194877.194 0  22194878.740 0
 88  2 29 10 15 29.0800000  0  3  3 13 12
 -13647864.739 7  73792643.214 6  21495574.609 0  21495576.543 0
   2555944.318 7  57733908.321 6  21874168.871 0  21874171.604 0
 -11318586.102 8 137426565.486 7  22211957.067 0  22211959.756 0
 88  2 29 10 15 59.0800000  0  3  3 13 12
 -13674148.150 7  73772162.646 6  21490572.193 0  21490574.128 0
   2595369.053 7  57764628.879 7  21881670.750 0  21881672.710 0
 -11228484.338 7 137496774.623 7  22229102.303 0  22229106.990 0
 88  2 29 10 16 29.0800000  0  3  3 13 12
 -13700323.606 7  73751766.185 6  21485591.686 0  21485592.986 0
   2634846.682 7  57795390.675 6  21889183.334 0  21889185.666 0
 -11138041.961 7 137567249.181 6  22246313.886 0  22246316.154 0
 88  2 29 10 16 59.0800000  0  3  3 13 12
 -13726391.093 7  73731453.854 7  21480630.640 0  21480632.895 0
   2674377.337 7  57826193.780 6  21896706.393 0  21896708.096 0
 -11047261.931 7 137637986.851 7  22263588.572 0  22263591.505 0
 88  2 29 10 17 29.0800000  0  3  3 13 12
 -13752350.923 7  73711225.429 7  21475690.454 0  21475692.836 0
   2713960.467 6  57857037.774 6  21904239.095 0  21904239.194 0
 -10956148.112 7 137708984.626 6  22280927.733 0  22280929.073 0
 88  2 29 10 17 59.0800000  0  3  3 13 12
 -13778203.539 7  73691080.530 7  21470771.999 0  21470772.425 0
   2753595.630 7  57887922.306 6  21911781.097 0  21911782.000 0
 -10864703.775 8 137780239.939 7  22298330.049 0  22298331.488 0
 88  2 29 10 18 29.0800000  0  3  3 13 12
 -13803949.232 7  73671018.966 6  21465872.426 0  21465873.650 0
   2793283.420 7  57918847.867 6  21919332.116 0  21919334.148 0
 -10772932.089 7 137851750.321 7  22315793.044 0  22315795.526 0
 88  2 29 10 18 59.0800000  0  3  3 13 12
 -13829588.252 7  73651040.514 6  21460992.923 0  21460994.623 0
   2833023.296 7  57949813.987 6  21926895.982 0  21926896.339 0
 -10680836.783 8 137923512.881 7  22333317.754 0  22333320.021 0
 88  2 29 10 19 29.0800000  0  3  3 13 12
 -13855121.328 7  73631144.615 6  21456133.684 0  21456135.776 0
   2872815.054 7  57980820.554 6  21934466.977 0  21934468.005 0
 -10588420.980 7 137995525.181 7  22350903.927 0  22350905.854 0
 88  2 29 10 19 59.0800000  0  3  3 13 12
 -13880548.939 7  73611330.889 6  21451295.865 0  21451296.722 0
   2912658.169 7  58011867.125 6  21942049.389 0  21942050.632 0
 -10495688.225 7 138067784.452 7  22368550.367 0  22368553.051 0
 88  2 29 10 20 29.0800000  0  3  3 13 12
 -13905870.897 7  73591599.497 6  21446477.952 0  21446478.333 0
   2952553.287 7  58042954.233 6  21949641.244 0  21949643.519 0
 -10402641.931 7 138140288.035 6  22386255.224 0  22386257.046 0
 88  2 29 10 20 59.0800000  0  3  3 13 12
 -13931088.126 7  73571949.713 7  21441678.428 0  21441680.378 0
   2992500.064 7  58074081.596 7  21957242.204 0  21957245.090 0
 -10309285.620 7 138213033.208 6  22404021.516 0  22404022.924 0
 88  2 29 10 21 29.0800000  0  3  3 13 12
 -13956200.457 7  73552381.666 6  21436900.123 0  21436901.401 0
   3032498.322 7  58105249.050 6  21964854.263 0  21964855.334 0
 -10215622.629 7 138286017.315 6  22421844.042 0  22421847.282 0
 88  2 29 10 21 59.0800000  0  3  3 13 12
 -13981207.926 8  73532895.347 6  21432140.583 0  21432142.911 0
   3072547.554 7  58136456.252 6  21972475.939 0  21972477.341 0
 -10121656.525 7 138359237.675 7  22439726.404 0  22439728.714 0
 88  2 29 10 22 29.0800000  0  3  3 13 12
 -14006110.985 7  73513490.356 5  21427401.849 0  21427404.364 0
   3112648.162 7  58167703.478 7  21980106.631 0  21980108.019 0
 -10027390.556 7 138432691.648 6  22457664.055 0  22457666.466 0
 88  2 29 10 22 59.0800000  0  3  3 13 12
 -14030910.629 7  73494165.982 6  21422682.334 0  21422683.489 0
   3152800.431 7  58198990.954 7  21987746.968 0  21987748.039 0
  -9932828.068 7 138506376.700 6  22475658.700 0  22475660.673 0
 88  2 29 10 23 29.0800000  0  3  3 13 12
 -14055606.389 8  73474922.529 6  21417982.889 0  21417985.476 0
   3193004.061 8  58230318.458 7  21995397.005 0  21995399.207 0
  -9837972.550 7 138580290.054 7  22493710.181 0  22493712.556 0
 88  2 29 10 23 59.0800000  0  3  3 13 12
 -14080198.852 7  73455759.574 6  21413302.986 0  21413305.015 0
   3233258.569 7  58261685.599 6  22003056.829 0  22003059.548 0
  -9742827.806 7 138654428.808 6  22511812.697 0  22511817.720 0
 88  2 29 10 24 29.0800000  0  3  3 13 12
 -14104687.822 7  73436677.279 6  21408643.116 0  21408645.331 0
   3273563.975 7  58293092.400 6  22010727.299 0  22010729.443 0
  -9647396.905 7 138728790.530 6  22529976.370 0  22529978.079 0
 88  2 29 10 24 59.0800000  0  3  3 13 12
 -14129073.743 7  73417675.279 7  21404002.122 0  21404004.865 0
   3313920.968 7  58324539.404 6  22018407.043 0  22018408.258 0
  -9551682.987 7 138803372.786 7  22548187.142 0  22548190.396 0
 88  2 29 10 25 29.0800000  0  3  3 13 12
 -14153356.623 7  73398753.550 6  21399381.640 0  21399383.474 0
   3354329.307 7  58356026.423 7  22026096.259 0  22026097.834 0
  -9455689.982 8 138878172.524 7  22566456.279 0  22566457.575 0
 88  2 29 10 25 59.0800000  0  3  3 13 12
 -14177536.693 7  73379911.938 6  21394781.148 0  21394782.668 0
   3394788.574 7  58387553.122 7  22033795.977 0  22033797.408 0
  -9359421.338 7 138953187.023 7  22584774.713 0  22584776.605 0
 88  2 29 10 26 29.0800000  0  3  3 13 12
 -14201614.826 6  73361149.770 6  21390199.002 0  21390200.417 0
   3435298.873 8  58419119.587 7  22041504.310 0  22041506.442 0
  -9262880.687 6 139028413.501 7  22603144.674 0  22603147.902 0
 88  2 29 10 26 59.0800000  0  3  3 13 12
 -14225590.596 7  73342467.358 6  21385636.626 0  21385638.543 0
   3475860.974 7  58450726.416 5  22049223.833 0  22049225.066 0
  -9166071.708 7 139103849.040 6  22621567.773 0  22621569.834 0
 88  2 29 10 27 29.0800000  0  3  3 13 12
 -14249464.638 7  73323864.206 6  21381093.712 0  21381094.794 0
   3516473.757 7  58482372.735 6  22056951.084 0  22056953.173 0
  -9068997.405 7 139179491.353 6  22640040.272 0  22640042.578 0
 88  2 29 10 27 59.0800000  0  3  3 13 12
 -14273236.781 7  73305340.467 6  21376569.454 0  21376570.850 0
   3557137.942 7  58514059.111 6  22064690.751 0  22064692.068 0
  -8971660.969 8 139255337.915 7  22658561.218 0  22658566.520 0
 88  2 29 10 28 29.0800000  0  3  3 13 12
 -14296907.034 7  73286896.127 7  21372064.987 0  21372066.303 0
   3597853.438 7  58545785.462 7  22072437.034 0  22072439.095 0
  -8874066.386 7 139331385.621 6  22677132.331 0  22677135.500 0
 88  2 29 10 28 59.0800000  0  3  3 13 12
 -14320476.347 8  73268530.432 7  21367580.221 0  21367582.385 0
   3638619.970 7  58577551.584 6  22080194.904 0  22080197.123 0
  -8776217.392 7 139407631.600 6  22695754.922 0  22695757.861 0
 88  2 29 10 29 29.0800000  0  3  3 13 12
 -14343944.391 7  73250243.667 7  21363114.890 0  21363115.755 0
   3679437.942 7  58609357.794 6  22087962.967 0  22087964.196 0
  -8678117.305 7 139484073.203 6  22714421.399 0  22714425.291 0
 88  2 29 10 29 59.0800000  0  3  3 13 12
 -14367311.141 7  73232035.805 6  21358667.181 0  21358669.733 0
   3720307.808 8  58641204.438 6  22095739.754 0  22095742.043 0
  -8579769.303 7 139560708.011 7  22733137.077 0  22733138.413 0
 88  2 29 10 30 29.0800000  0  3  3 13 12
 -14390577.163 7  73213906.453 6  21354239.757 0  21354241.987 0
   3761228.873 7  58673090.979 6  22103527.303 0  22103529.864 0
  -8481177.176 7 139637533.021 6  22751899.854 0  22751900.027 0
 88  2 29 10 30 59.0800000  0  3  3 13 12
 -14413742.404 7  73195855.615 6  21349832.546 0  21349834.293 0
   3802201.468 7  58705017.682 6  22111323.809 0  22111325.139 0
  -8382344.350 7 139714545.632 6  22770707.205 0  22770706.775 0
 88  2 29 10 31 29.0800000  0  3  3 13 12
 -14436806.785 7  73177883.362 7  21345442.523 0  21345445.494 0
   3843225.900 7  58736984.760 7  22119129.989 0  22119132.161 0
  -8283274.037 7 139791743.254 6  22789558.233 0  22789560.021 0
 88  2 29 10 31 59.0800000  0  3  3 13 12
 -14459770.675 7  73159989.443 6  21341072.844 0  21341075.522 0
   3884302.007 7  58768992.121 7  22126945.727 0  22126948.616 0
  -8183969.976 7 139869123.044 6  22808454.508 0  22808456.056 0
 88  2 29 10 32 29.0800000  0  3  3 13 12
 -14482634.729 7  73142173.299 6  21336721.840 0  21336722.988 0
   3925430.014 7  58801039.901 6  22134773.655 0  22134776.175 0
  -8084435.913 8 139946682.026 7  22827397.760 0  22827396.560 0
 88  2 29 10 32 59.0800000  0  3  3 13 12
 -14505398.742 7  73124435.112 6  21332390.598 0  21332392.100 0
   3966610.084 7  58833128.273 7  22142609.827 0  22142611.041 0
  -7984675.497 7 140024417.435 6  22846379.234 0  22846382.092 0
 88  2 29 10 33 29.0800000  0  3  3 13 12
 -14528062.249 7  73106775.229 6  21328077.571 0  21328079.026 0
   4007842.193 7  58865257.184 7  22150455.469 0  22150458.562 0
  -7884691.685 7 140102326.897 6  22865404.448 0  22865407.136 0
 88  2 29 10 33 59.0800000  0  3  3 13 12
 -14550625.287 7  73089193.664 7  21323784.442 0  21323785.933 0
   4049126.606 7  58897426.853 7  22158311.647 0  22158313.551 0
  -7784487.994 7 140180407.683 6  22884472.081 0  22884475.717 0
 88  2 29 10 34 29.0800000  0  3  3 13 12
 -14573088.461 7  73071689.895 7  21319509.256 0  21319511.358 0
   4090463.268 7  58929637.242 6  22166178.067 0  22166180.812 0
  -7684068.055 7 140258656.988 7  22903585.090 0  22903585.598 0
 88  2 29 10 34 59.0800000  0  3  3 13 12
 -14595451.857 7  73054263.874 7  21315253.727 0  21315255.786 0
   4131852.661 7  58961888.711 6  22174054.105 0  22174056.550 0
  -7583435.409 7 140337072.030 6  22922733.565 0  22922734.596 0
 88  2 29 10 35 29.0800000  0  3  3 13 12
 -14617715.432 7  73036915.638 6  21311017.237 0  21311019.529 0
   4173295.022 7  58994181.458 7  22181940.559 0  22181942.433 0
  -7482593.577 8 140415650.057 6  22941924.153 0  22941927.156 0
 88  2 29 10 35 59.0800000  0  3  3 13 12
 -14639879.211 7  73019645.169 7  21306799.018 0  21306801.681 0
   4214790.518 7  59026515.596 7  22189836.457 0  22189839.187 0
  -7381546.150 7 140494388.295 6  22961149.895 0  22961155.098 0
 88  2 29 10 36 29.0800000  0  3  3 13 12
 -14661943.122 7  73002452.514 6  21302600.983 0  21302602.753 0
   4256339.148 7  59058891.162 6  22197742.487 0  22197745.632 0
  -7280296.648 7 140573284.000 7  22980417.874 0  22980421.423 0
 88  2 29 10 36 59.0800000  0  3  3 13 12
 -14683907.578 7  72985337.365 7  21298421.767 0  21298422.705 0
   4297940.783 7  59091308.021 7  22205659.017 0  22205661.093 0
  -7178848.696 7 140652334.355 7  22999721.902 0  22999728.659 0
 88  2 29 10 37 29.0800000  0  3  3 13 12
 -14705772.429 8  72968299.823 6  21294260.863 0  21294263.499 0
   4339596.023 7  59123766.635 6  22213585.538 0  22213588.226 0
  -7077205.699 8 140731536.724 7  23019067.251 0  23019070.069 0
 88  2 29 10 37 59.0800000  0  3  3 13 12
 -14727537.599 7  72951339.969 7  21290119.046 0  21290120.589 0
   4381304.619 7  59156266.843 7  22221523.102 0  22221525.735 0
  -6975371.287 7 140810888.183 7  23038445.532 0  23038446.662 0
 88  2 29 10 38 29.0800000  0  3  3 13 12
 -14749203.205 7  72934457.689 6  21285996.367 0  21285998.231 0
   4423067.206 7  59188809.125 6  22229470.027 0  22229472.373 0
  -6873348.646 8 140890386.330 6  23057858.231 0  23057862.860 0
 88  2 29 10 38 59.0800000  0  3  3 13 12
 -14770769.001 7  72917653.186 7  21281891.421 0  21281894.799 0
   4464884.145 7  59221393.761 7  22237427.511 0  22237429.458 0
  -6771141.406 7 140970028.331 6  23077306.162 0  23077310.018 0
 88  2 29 10 39 29.0800000  0  3  3 13 12
 -14792235.253 7  72900926.238 6  21277806.503 0  21277809.051 0
   4506755.808 7  59254021.011 6  22245394.756 0  22245397.829 0
  -6668753.109 7 141049811.401 5  23096790.552 0  23096792.169 0
 88  2 29 10 39 59.0800000  0  3  3 13 12
 -14813601.503 7  72884277.218 6  21273740.700 0  21273742.564 0
   4548681.905 7  59286690.712 6  22253374.077 0  22253377.066 0
  -6566187.377 8 141129732.759 6  23116308.748 0  23116312.876 0
 88  2 29 10 40 29.0800000  0  3  3 13 12
 -14834868.226 7  72867705.750 6  21269693.820 0  21269696.005 0
   4590662.745 7  59319403.050 7  22261363.297 0  22261364.714 0
  -6463447.576 8 141209789.719 7  23135860.628 0  23135860.706 0
 88  2 29 10 40 59.0800000  0  3  3 13 12
 -14856034.977 7  72851212.185 6  21265666.080 0  21265668.573 0
   4632698.403 7  59352158.117 6  22269362.022 0  22269364.138 0
  -6360537.092 7 141289979.688 6  23155442.697 0  23155445.374 0
 88  2 29 10 41 29.0800000  0  3  3 13 12
 -14877101.983 7  72834796.337 6  21261658.056 0  21261659.619 0
   4674789.173 6  59384956.118 6  22277370.707 0  22277373.438 0
  -6257459.336 7 141370300.027 7  23175056.973 0  23175062.655 0
 88  2 29 10 41 59.0800000  0  3  3 13 12
 -14898069.054 7  72818458.376 6  21257667.259 0  21257668.936 0
   4716935.458 7  59417797.385 6  22285391.952 0  22285393.524 0
  -6154218.485 7 141450747.447 7  23194703.065 0  23194706.333 0
 88  2 29 10 42 29.0800000  0  3  3 13 12
 -14918936.104 7  72802198.334 7  21253696.868 0  21253697.870 0
   4759137.962 7  59450682.451 6  22293422.758 0  22293424.172 0
  -6050817.640 7 141531319.528 6  23214380.271 0  23214386.064 0
 88  2 29 10 42 59.0800000  0  3  3 13 12
 -14939703.001 7  72786016.351 6  21249745.155 0  21249747.248 0
   4801396.761 7  59483611.389 7  22301464.293 0  22301466.239 0
  -5947259.805 7 141612013.920 6  23234087.734 0  23234089.594 0
 88  2 29 10 43 29.0800000  0  3  3 13 12
 -14960370.070 7  72769912.147 6  21245813.051 0  21245814.225 0
   4843712.321 7  59516584.547 6  22309517.135 0  22309518.464 0
  -5843549.166 7 141692827.370 5  23253822.277 0  23253824.868 0
 88  2 29 10 43 59.0800000  0  3  3 13 12
 -14980937.244 7  72753885.780 6  21241898.820 0  21241900.935 0
   4886084.552 7  59549601.866 6  22317578.675 0  22317582.182 0
  -5739689.285 8 141773757.207 6  23273587.349 0  23273589.625 0
 88  2 29 10 44 29.0800000  0  3  3 13 12
 -15001404.085 7  72737937.599 6  21238003.940 0  21238005.020 0
   4928513.188 7  59582663.161 7  22325654.039 0  22325655.570 0
  -5635683.570 7 141854800.535 7  23293379.143 0  23293382.063 0
 88  2 29 10 44 59.0800000  0  3  3 13 12
 -15021770.139 7  72722067.962 6  21234128.312 0  21234130.091 0
   4970999.172 7  59615769.109 7  22333738.189 0  22333740.165 0
  -5531534.808 8 141935955.466 7  23313197.904 0  23313200.522 0
 88  2 29 10 45 29.0800000  0  3  3 13 12
 -15042035.833 7  72706276.499 6  21230272.029 0  21230273.784 0
   5013542.592 7  59648919.825 6  22341834.445 0  22341836.145 0
  -5427247.572 7 142017218.224 6  23333042.556 0  23333044.290 0
 88  2 29 10 45 59.0800000  0  3  3 13 12
 -15062200.929 7  72690563.448 6  21226434.174 0  21226436.824 0
   5056144.344 8  59682115.997 7  22349941.203 0  22349942.248 0
  -5322824.917 8 142098586.526 7  23352914.161 0  23352917.223 0
 88  2 29 10 46 29.0800000  0  3  3 13 12
 -15082264.848 7  72674929.222 6  21222616.531 0  21222617.651 0
   5098804.341 7  59715357.554 6  22358058.552 0  22358060.452 0
  -5218269.882 8 142180057.985 6  23372809.375 0  23372810.199 0
 88  2 29 10 46 59.0800000  0  3  3 13 12
 -15102227.811 7  72659373.682 7  21218816.822 0  21218818.839 0
   5141523.136 7  59748644.919 6  22366187.689 0  22366190.533 0
  -5113586.064 8 142261629.785 6  23392729.889 0  23392732.308 0
 88  2 29 10 47 29.0800000  0  3  3 13 12
 -15122089.635 7  72643896.941 6  21215037.095 0  21215040.739 0
   5184301.700 7  59781978.863 6  22374329.416 0  22374330.161 0
  -5008777.492 8 142343298.805 6  23412675.642 0  23412677.132 0
 88  2 29 10 47 59.0800000  0  3  3 13 12
 -15141850.432 7  72628498.922 7  21211278.545 0  21211279.068 0
   5227139.506 7  59815358.963 6  22382480.849 0  22382482.494 0
  -4903847.490 7 142425062.430 6  23432641.544 0  23432644.169 0
 88  2 29 10 48 29.0800000  0  3  3 13 12
 -15161509.880 7  72613179.874 6  21207536.372 0  21207537.935 0
   5270036.876 7  59848785.485 6  22390644.071 0  22390645.959 0
  -4798799.802 8 142506917.793 7  23452633.597 0  23452633.352 0
 88  2 29 10 48 59.0800000  0  3  3 13 12
 -15181067.619 7  72597940.095 6  21203814.967 0  21203816.611 0
   5312994.598 7  59882259.030 6  22398817.166 0  22398820.373 0
  -4693637.506 7 142588862.378 7  23472642.633 0  23472648.199 0
 88  2 29 10 49 29.0800000  0  3  3 13 12
 -15200522.947 7  72582780.093 6  21200112.870 0  21200113.782 0
   5356013.342 7  59915780.119 6  22407004.800 0  22407006.789 0
  -4588363.782 8 142670893.880 7  23492677.190 0  23492678.778 0
 88  2 29 10 49 59.0800000  0  3  3 13 12
 -15219876.472 7  72567699.437 6  21196429.463 0  21196431.374 0
   5399092.483 7  59949348.276 6  22415202.136 0  22415203.680 0
  -4482982.524 7 142753009.149 7  23512730.221 0  23512731.724 0
 88  2 29 10 50 29.0800000  0  3  3 13 12
 -15239127.388 7  72552698.719 6  21192766.514 0  21192766.949 0
   5442233.050 7  59982964.301 6  22423411.777 0  22423414.123 0
  -4377496.922 7 142835205.695 6  23532802.331 0  23532805.895 0
 88  2 29 10 50 59.0800000  0  3  3 13 12
 -15258275.937 7  72537777.785 7  21189123.549 0  21189123.617 0
   5485435.463 7  60016628.510 6  22431632.092 0  22431633.852 0
  -4271910.692 7 142917480.682 6  23552894.763 0  23552897.172 0
 88  2 29 10 51 29.0800000  0  3  3 13 12
 -15277321.572 7  72522937.036 6  21185498.577 0  21185500.369 0
   5528699.946 6  60050341.091 6  22439865.774 0  22439867.562 0
  -4166227.161 7 142999831.498 6  23573008.515 0  23573009.667 0
 88  2 29 10 51 59.0800000  0  3  3 13 12
 -15296264.460 7  72508176.346 7  21181894.141 0  21181895.532 0
   5572026.642 7  60084102.157 6  22448110.615 0  22448113.376 0
  -4060449.800 7 143082255.423 6  23593134.171 0  23593138.608 0
 88  2 29 10 52 29.0800000  0  3  3 13 12
 -15315104.150 7  72493496.073 7  21178308.589 0  21178309.542 0
   5615416.043 7  60117912.071 6  22456366.819 0  22456369.363 0
  -3954582.339 8 143164749.530 6  23613281.950 0  23613284.073 0
 88  2 29 10 52 59.0800000  0  3  3 13 12
 -15333840.184 7  72478896.569 7  21174743.254 0  21174744.047 0
   5658869.043 8  60151771.542 7  22464635.901 0  22464638.433 0
  -3848627.914 7 143247311.381 6  23633444.351 0  23633447.035 0
 88  2 29 10 53 29.0800000  0  3  3 13 12
 -15352472.686 7  72464377.749 7  21171198.033 0  21171199.281 0
   5702385.117 7  60185680.172 6  22472917.057 0  22472918.604 0
  -3742590.484 7 143329937.976 6  23653620.834 0  23653624.555 0
 88  2 29 10 53 59.0800000  0  3  3 13 12
 -15371001.373 7  72449939.811 6  21167671.479 0  21167673.035 0
   5745965.272 7  60219638.735 6  22481209.122 0  22481211.653 0
  -3636473.300 7 143412626.671 6  23673815.849 0  23673819.418 0
 88  2 29 10 54 29.0800000  0  3  3 13 12
 -15389425.895 7  72435583.054 6  21164165.694 0  21164167.411 0
   5789610.153 7  60253647.717 6  22489515.235 0  22489516.881 0
  -3530279.742 7 143495374.899 6  23694023.539 0  23694027.233 0
 88  2 29 10 54 59.0800000  0  3  3 13 12
 -15407745.777 7  72421307.821 6  21160679.333 0  21160681.767 0
   5833319.914 7  60287707.271 6  22497831.680 0  22497834.384 0
  -3424013.286 7 143578179.944 6  23714245.319 0  23714246.835 0
 88  2 29 10 55 29.0800000  0  3  3 13 12
 -15425960.752 7  72407114.338 6  21157213.075 0  21157214.847 0
   5877095.114 7  60321817.811 6  22506162.835 0  22506164.010 0
  -3317676.585 8 143661039.700 7  23734481.385 0  23734483.639 0
 88  2 29 10 55 59.0800000  0  3  3 13 12
 -15444070.219 7  72393003.065 6  21153767.368 0  21153768.494 0
   5920936.743 7  60355980.103 6  22514506.726 0  22514507.583 0
  -3211273.342 7 143743951.329 6  23754728.519 0  23754730.674 0
 88  2 29 10 56 29.0800000  0  3  3 13 12
 -15462074.239 7  72378973.973 7  21150340.939 0  21150342.694 0
   5964844.342 7  60390193.815 6  22522861.661 0  22522861.989 0
  -3104807.176 8 143826911.996 7  23774987.689 0  23774990.136 0
 88  2 29 10 56 59.0800000  0  3  3 13 12
 -15479972.447 7  72365027.318 6  21146934.099 0  21146936.786 0
   6008819.051 7  60424459.801 6  22531229.048 0  22531229.778 0
  -2998281.923 7 143909918.672 7  23795260.072 0  23795263.677 0
 88  2 29 10 57 29.0800000  0  3  3 13 12
 -15497764.107 7  72351163.699 6  21143549.767 0  21143551.228 0
   6052861.148 6  60458778.324 6  22539609.855 0  22539611.846 0
  -2891700.780 7 143992968.940 6  23815539.717 0  23815542.401 0
 88  2 29 10 57 59.0800000  0  3  3 13 12
 -15515449.614 7  72337382.783 7  21140183.596 0  21140186.058 0
   6096970.529 7  60493149.260 6  22548003.541 0  22548005.729 0
  -2785067.290 7 144076059.922 6  23835833.486 0  23835834.390 0
 88  2 29 10 58 29.0800000  0  3  3 13 12
 -15533027.960 8  72323685.379 6  21136839.252 0  21136840.772 0
   6141148.174 7  60527573.387 7  22556410.049 0  22556411.680 0
  -2678384.922 8 144159189.074 6  23856134.094 0  23856136.234 0
 88  2 29 10 58 59.0800000  0  3  3 13 12
 -15550499.114 7  72310071.491 6  21133514.421 0  21133515.531 0
   6185394.766 7  60562051.247 7  22564831.009 0  22564832.152 0
  -2571656.659 8 144242353.967 6  23876441.880 0  23876446.936 0
 88  2 29 10 59 29.0800000  0  3  3 13 12
 -15567862.253 7  72296541.773 7  21130211.201 0  21130212.316 0
   6229710.456 7  60596582.948 6  22573262.871 0  22573265.689 0
  -2464885.666 7 144325552.122 6  23896763.300 0  23896763.020 0
 88  2 29 10 59 59.0800000  0  3  3 13 12
 -15585117.346 7  72283096.255 6  21126926.485 0  21126928.695 0
   6274095.762 7  60631168.884 6  22581709.700 0  22581713.020 0
  -2358075.810 7 144408780.609 6  23917087.989 0  23917088.654 0
 88  2 29 11  0 29.0800000  0  3  3 13 12
 -15602263.545 7  72269735.578 6  21123664.182 0  21123664.526 0
   6318551.698 7  60665809.855 7  22590168.465 0  22590170.871 0
  -2251230.350 7 144492036.812 6  23937419.743 0  23937420.224 0
 88  2 29 11  0 59.0800000  0  3  3 13 12
 -15619300.864 8  72256459.762 7  21120422.582 0  21120423.245 0
   6363078.781 6  60700506.284 6  22598642.053 0  22598645.673 0
  -2144352.469 7 144575318.239 7  23957755.321 0  23957759.041 0
 88  2 29 11  1 29.0800000  0  3  3 13 12
 -15636228.572 7  72243269.345 7  21117200.483 0  21117201.496 0
   6407677.489 7  60735258.515 6  22607129.436 0  22607131.181 0
  -2037445.458 7 144658622.430 6  23978100.834 0  23978102.801 0
 88  2 29 11  1 59.0800000  0  3  3 13 12
 -15653046.611 7  72230164.379 6  21114000.797 0  21114001.682 0
   6452348.391 7  60770067.007 7  22615629.983 0  22615631.442 0
  -1930512.898 7 144741946.499 6  23998447.745 0  23998451.822 0
 88  2 29 11  2 29.0800000  0  3  3 13 12
 -15669754.399 7  72217145.336 6  21110820.636 0  21110821.836 0
   6497091.029 7  60804931.407 6  22624143.953 0  22624146.314 0
  -1823558.243 8 144825287.828 6  24018803.780 0  24018804.977 0
 88  2 29 11  2 59.0800000  0  3  3 13 12
 -15686351.161 7  72204212.798 6  21107662.966 0  21107663.381 0
   6541906.091 7  60839852.201 6  22632672.060 0  22632674.449 0
  -1716584.424 7 144908644.055 6  24039156.482 0  24039163.607 0
 88  2 29 11  3 29.0800000  0  3  3 13 12
 -15702836.764 7  72191366.870 7  21104525.368 0  21104527.389 0
   6586795.017 7  60874830.583 6  22641214.562 0  22641216.550 0
  -1609594.956 8 144992012.429 7  24059517.718 0  24059520.365 0
 88  2 29 11  3 59.0800000  0  3  3 13 12
 -15719210.257 7  72178608.311 6  21101410.003 0  21101410.522 0
   6631758.136 7  60909866.764 6  22649770.982 0  22649772.357 0
  -1502593.396 7 145075390.311 6  24079881.530 0  24079882.966 0
 88  2 29 11  4 29.0800000  0  3  3 13 12
 -15735471.734 7  72165937.028 6  21098315.318 0  21098316.461 0
   6676796.234 7  60944961.397 6  22658341.810 0  22658343.347 0
  -1395582.791 7 145158775.225 6  24100244.662 0  24100245.984 0
 88  2 29 11  4 59.0800000  0  3  3 13 12
 -15751620.191 7  72153353.815 7  21095242.312 0  21095242.890 0
   6721909.472 7  60980114.565 7  22666925.252 0  22666928.007 0
  -1288566.442 8 145242164.598 6  24120607.680 0  24120610.035 0
 88  2 29 11  5 29.0800000  0  3  3 13 12
 -15767655.470 7  72140858.803 6  21092190.837 0  21092192.883 0
   6767098.425 7  61015326.725 7  22675524.358 0  22675526.450 0
  -1181547.953 7 145325555.580 7  24140970.261 0  24140975.857 0
 88  2 29 11  5 59.0800000  0  3  3 13 12
 -15783577.268 7  72128452.210 6  21089161.569 0  21089163.403 0
   6812362.922 8  61050597.762 6  22684138.549 0  22684140.302 0
  -1074530.868 7 145408945.527 6  24161338.723 0  24161339.097 0
 88  2 29 11  6 29.0800000  0  3  3 13 12
 -15799384.865 7  72116134.598 6  21086152.376 0  21086155.846 0
   6857704.362 7  61085928.745 7  22692767.310 0  22692769.103 0
   -967518.511 8 145492331.835 6  24181703.631 0  24181703.346 0
 88  2 29 11  6 59.0800000  0  3  3 13 12
 -15815077.610 7  72103906.495 7  21083165.964 0  21083168.006 0
   6903123.271 8  61121320.078 6  22701410.202 0  22701411.488 0
   -860514.042 7 145575711.933 6  24202060.331 0  24202064.788 0
 88  2 29 11  7 29.0800000  0  3  3 13 12
 -15830654.847 7  72091768.389 7  21080202.547 0  21080203.663 0
   6948620.406 7  61156772.391 6  22710068.147 0  22710069.185 0
   -753519.823 8 145659084.051 6  24222424.380 0  24222424.937 0
 88  2 29 11  7 59.0800000  0  3  3 13 12
 -15846116.439 7  72079720.395 5  21077259.434 0  21077261.847 0
   6994195.889 7  61192285.745 7  22718739.413 0  22718742.169 0
   -646539.892 7 145742445.052 6  24242780.765 0  24242784.456 0
 88  2 29 11  8 29.0800000  0  3  3 13 12
 -15861461.708 7  72067763.047 6  21074340.260 0  21074342.327 0
   7039850.409 7  61227860.685 6  22727428.021 0  22727429.135 0
   -539577.463 7 145825792.458 6  24263132.257 0  24263136.920 0
 88  2 29 11  8 59.0800000  0  3  3 13 12
 -15876689.631 7  72055897.140 6  21071442.419 0  21071444.479 0
   7085584.882 7  61263497.928 7  22736130.732 0  22736131.752 0
   -432635.948 7 145909123.479 7  24283484.457 0  24283489.237 0
 88  2 29 11  9 29.0800000  0  3  3 13 12
 -15891799.590 7  72044123.149 6  21068566.337 0  21068567.207 0
   7131399.670 7  61299197.755 6  22744849.876 0  22744850.728 0
   -325718.550 8 145992435.712 7  24303831.906 0  24303835.005 0
 88  2 29 11  9 59.0800000  0  3  3 13 12
 -15906791.311 7  72032441.297 6  21065714.966 0  21065715.261 0
   7177294.734 7  61334960.133 7  22753582.521 0  22753584.819 0
   -218828.492 7 146075726.708 6  24324172.667 0  24324172.408 0
 88  2 29 11 10 29.0800000  0  3  3 13 12
 -15921664.364 7  72020851.897 7  21062884.721 0  21062884.892 0
   7223271.953 7  61370786.520 7  22762331.743 0  22762333.230 0
   -111968.787 7 146158994.043 6  24344506.708 0  24344509.114 0
 88  2 29 11 10 59.0800000  0  3  3 13 12
 -15936418.221 6  72009355.391 6  21060075.676 0  21060077.179 0
   7269331.429 7  61406677.018 6  22771096.909 0  22771099.012 0
     -5143.139 7 146242234.802 6  24364835.429 0  24364838.560 0
 88  2 29 11 11 29.0800000  0  3  3 13 12
 -15951052.100 7  71997952.356 6  21057291.055 0  21057293.674 0
   7315473.225 8  61442631.643 6  22779877.513 0  22779879.459 0
    101645.257 7 146325446.511 6  24385155.712 0  24385159.944 0
 88  2 29 11 11 59.0800000  0  3  3 13 12
 -15965565.218 7  71986643.430 6  21054530.333 0  21054531.948 0
   7361698.496 7  61478651.324 6  22788672.257 0  22788676.820 0
    208393.700 7 146408627.182 6  24405469.120 0  24405471.058 0
 88  2 29 11 12 29.0800000  0  3  3 13 12
 -15979957.059 7  71975429.024 6  21051790.956 0  21051793.941 0
   7408007.285 7  61514736.066 6  22797486.593 0  22797488.766 0
    315098.645 7 146491773.893 6  24425772.635 0  24425778.384 0
 88  2 29 11 12 59.0800000  0  3  3 13 12
 -15994227.003 7  71964309.588 7  21049076.086 0  21049077.343 0
   7454400.981 7  61550887.003 7  22806315.705 0  22806315.926 0
    421757.285 7 146574884.481 6  24446073.664 0  24446073.748 0
 88  2 29 11 13 29.0800000  0  3  3 13 12
 -16008374.048 6  71953285.914 6  21046383.743 0  21046385.961 0
   7500880.090 7  61587104.493 6  22815159.415 0  22815160.510 0
    528365.942 7 146657956.252 6  24466358.404 0  24466358.404 0
 88  2 29 11 13 59.0800000  0  3  3 13 12
 -16022397.763 7  71942358.360 7  21043715.376 0  21043716.498 0
   7547445.167 7  61623388.947 6  22824019.934 0  22824021.933 0
    634921.793 8 146740986.769 6  24486633.334 0  24486637.926 0
 88  2 29 11 14 29.0800000  0  3  3 13 12
 -16036297.453 7  71931527.434 6  21041069.782 0  21041071.886 0
   7594096.639 8  61659740.714 6  22832897.465 0  22832899.820 0
    741421.294 8 146823973.365 7  24506901.403 0  24506905.094 0
 88  2 29 11 14 59.0800000  0  3  3 13 12
 -16050072.828 7  71920793.373 6  21038448.706 0  21038449.956 0
   7640834.613 7  61696159.905 6  22841791.630 0  22841793.849 0
    847861.526 8 146906913.886 5  24527158.426 0  24527153.910 0
 88  2 29 11 15 29.0800000  0  3  3 13 12
 -16063722.846 7  71910157.005 6  21035850.555 0  21035852.247 0
   7687660.876 8  61732647.877 6  22850703.270 0  22850704.158 0
    954239.573 7 146989805.843 6  24547395.601 0  24547400.617 0
 88  2 29 11 15 59.0800000  0  2  3 13
 -16077246.277 7  71899619.264 6  21033277.271 0  21033278.409 0
   7734575.794 7  61769204.968 7  22859630.915 0  22859631.505 0
 88  2 29 11 16 29.0800000  0  2  3 13
 -16090643.286 7  71889180.035 7  21030728.546 0  21030728.492 0
   7781579.773 7  61805831.440 7  22868574.083 0  22868576.640 0
 88  2 29 11 16 59.0800000  0  2  3 13
 -16103912.773 7  71878840.193 7  21028203.833 0  21028204.867 0
   7828673.307 6  61842527.697 6  22877535.584 0  22877537.370 0
 88  2 29 11 17 29.0800000  0  2  3 13
 -16117053.954 6  71868600.308 7  21025702.192 0  21025704.628 0
   7875857.366 7  61879294.489 6  22886513.303 0  22886517.163 0
 88  2 29 11 17 59.0800000  0  2  3 13
 -16130066.197 7  71858460.904 6  21023226.622 0  21023229.018 0
   7923132.557 7  61916132.284 6  22895510.690 0  22895513.033 0
 88  2 29 11 18 29.0800000  0  2  3 13
 -16142948.551 3  71848422.701 3  21020773.867 0  21020774.034 0
   7970499.727 7  61953041.749 6  22904523.765 0  22904527.261 0
 88  2 29 11 18 59.0800000  0  2  3 13
 -16155700.534 7  71838486.097 6  21018348.170 0  21018350.353 0
   8017959.443 6  61990023.341 6  22913555.454 0  22913558.022 0
 88  2 29 11 19 29.0800000  0  2  3 13
 -16168321.734 7  71828651.395 7  21015946.941 0  21015947.793 0
   8065511.717 6  62027077.038 6  22922604.230 0  22922606.691 0
 88  2 29 11 19 59.0800000  0  2  3 13
 -16180810.601 7  71818919.825 6  21013571.033 0  21013571.213 0
   8113157.379 7  62064203.501 7  22931670.932 0  22931674.137 0
 88  2 29 11 20 29.0800000  0  2  3 13
 -16193166.822 7  71809291.598 7  21011218.810 0  21011220.880 0
   8160897.231 7  62101403.374 6  22940756.801 0  22940759.300 0
 88  2 29 11 20 59.0800000  0  2  3 13
 -16205389.364 7  71799767.538 7  21008893.153 0  21008893.771 0
   8208732.097 6  62138677.287 6  22949859.269 0  22949860.829 0
 88  2 29 11 21 29.0800000  0  2  3 13
 -16217477.639 7  71790348.102 6  21006593.089 0  21006593.328 0
   8256662.413 6  62176025.581 7  22958978.441 0  22958982.381 0
 88  2 29 11 21 59.0800000  0  2  3 13
 -16229430.706 7  71781034.025 6  21004317.937 0  21004320.424 0
   8304688.993 6  62213448.884 6  22968118.705 0  22968119.830 0
 88  2 29 11 22 29.0800000  0  2  3 13
 -16241248.011 6  71771825.735 7  21002068.517 0  21002070.755 0
   8352812.529 6  62250947.732 7  22977275.405 0  22977277.494 0
 88  2 29 11 22 59.0800000  0  2  3 13
 -16252928.197 7  71762724.291 7  20999846.295 0  20999847.698 0
   8401034.034 7  62288522.916 6  22986452.453 0  22986454.170 0
 88  2 29 11 23 29.0800000  0  2  3 13
 -16264470.756 7  71753730.089 6  20997649.593 0  20997651.523 0
   8449353.292 7  62326174.283 7  22995647.540 0  22995648.751 0
 88  2 29 11 23 59.0800000  0  2  3 13
 -16275874.718 7  71744843.895 6  20995480.348 0  20995480.861 0
   8497771.540 7  62363902.757 6  23004861.257 0  23004863.298 0
 88  2 29 11 24 29.0800000  0  2  3 13
 -16287139.064 1  71736066.488 1  20993338.652 0  20993340.244 0
   8546289.902 6  62401709.268 6  23014092.120 0  23014096.626 0
 88  2 29 11 24 59.0800000  0  2  3 13
 -16298263.355 5  71727398.195 2  20991218.498 0  20991219.189 0
   8594908.531 7  62439593.888 6  23023344.860 0  23023347.970 0
 88  2 29 11 25 29.0800000  0  2  3 13
 -16309246.580 7  71718839.853 7  20989129.198 0  20989130.312 0
   8643628.475 7  62477557.460 6  23032616.084 0  23032617.648 0
 88  2 29 11 25 59.0800000  0  2  3 13
 -16320087.880 7  71710392.084 6  20987066.195 0  20987067.072 0
   8692450.268 8  62515600.423 7  23041907.993 0  23041909.715 0
 88  2 29 11 26 29.0800000  0  2  3 13
 -16330786.276 7  71702055.681 7  20985031.480 0  20985031.909 0
   8741374.239 7  62553723.004 6  23051218.765 0  23051219.161 0
 88  2 29 11 26 59.0800000  0  2  3 13
 -16341341.297 7  71693830.992 7  20983021.554 0  20983023.010 0
   8790401.611 7  62591926.143 6  23060546.923 0  23060549.490 0
 88  2 29 11 27 29.0800000  0  2  3 13
 -16351751.355 1  71685719.282 1  20981040.914 0  20981042.330 0
   8839533.246 6  62630210.503 6  23069896.824 0  23069899.899 0
 88  2 29 11 27 59.0800000  0  2  3 13
 -16362015.423 1  71677721.291 1  20979085.339 0  20979091.079 0
   8888769.037 8  62668576.054 7  23079266.619 0  23079268.163 0
 88  2 29 11 28 29.0800000  0  2  3 13
 -16372133.250 7  71669837.257 6  20977162.523 0  20977164.566 0
   8938109.462 7  62707023.125 7  23088656.479 0  23088658.259 0
 88  2 29 11 28 59.0800000  0  2  3 13
 -16382103.963 7  71662067.875 6  20975265.598 0  20975267.219 0
   8987555.514 7  62745552.519 6  23098065.132 0  23098065.027 0
 88  2 29 11 29 29.0800000  0  2  3 13
 -16391926.272 7  71654414.131 6  20973396.216 0  20973396.928 0
   9037108.704 8  62784165.362 6  23107492.001 0  23107496.554 0
 88  2 29 11 29 59.0800000  0  2  3 13
 -16401599.053 7  71646876.910 6  20971554.655 0  20971556.625 0
   9086769.369 7  62822861.967 7  23116944.048 0  23116945.461 0
 88  2 29 11 30 29.0800000  0  2  3 13
 -16411121.283 6  71639456.992 7  20969743.140 0  20969745.094 0
   9136538.074 7  62861642.756 7  23126415.847 0  23126417.453 0
 88  2 29 11 30 59.0800000  0  2  3 13
 -16420492.361 7  71632154.855 7  20967960.308 0  20967962.761 0
   9186415.453 8  62900508.243 7  23135908.510 0  23135907.261 0
 88  2 29 11 31 29.0800000  0  2  3 13
 -16429711.480 7  71624971.121 7  20966205.114 0  20966207.272 0
   9236401.804 7  62939458.656 7  23145420.478 0  23145419.377 0
 88  2 29 11 31 59.0800000  0  2  3 13
 -16438777.450 7  71617906.741 6  20964480.658 0  20964481.767 0
   9286498.141 8  62978494.768 6  23154954.641 0  23154953.511 0
 88  2 29 11 32 29.0800000  0  2  3 13
 -16447689.154 7  71610962.568 6  20962784.965 0  20962787.366 0
   9336705.673 7  63017617.519 7  23164507.799 0  23164509.079 0
 88  2 29 11 32 59.0800000  0  2  3 13
 -16456445.576 7  71604139.374 7  20961117.855 0  20961120.084 0
   9387024.854 7  63056827.257 7  23174081.074 0  23174084.682 0
 88  2 29 11 33 29.0800000  0  2  3 13
 -16465046.223 7  71597437.582 6  20959480.832 0  20959483.243 0
   9437456.109 7  63096124.316 7  23183678.872 0  23183680.306 0
 88  2 29 11 33 59.0800000  0  2  3 13
 -16473489.948 7  71590858.062 7  20957874.783 0  20957876.002 0
   9487999.940 7  63135509.105 6  23193295.847 0  23193298.655 0
 88  2 29 11 34 29.0800000  0  2  3 13
 -16481775.693 7  71584401.636 7  20956297.988 0  20956299.638 0
   9538657.388 7  63174982.448 7  23202936.545 0  23202939.608 0
 88  2 29 11 34 59.0800000  0  2  3 13
 -16489902.331 7  71578069.196 6  20954751.769 0  20954754.091 0
   9589429.235 7  63214544.912 7  23212597.863 0  23212598.768 0
 88  2 29 11 35 29.0800000  0  2  3 13
 -16497868.606 7  71571861.703 6  20953235.195 0  20953236.344 0
   9640316.075 7  63254196.956 6  23222280.638 0  23222283.954 0
 88  2 29 11 35 59.0800000  0  2  3 13
 -16505673.387 7  71565780.080 6  20951750.906 0  20951752.517 0
   9691319.089 7  63293939.554 6  23231985.418 0  23231990.393 0
 88  2 29 11 36 29.0800000  0  2  3 13
 -16513315.725 7  71559825.006 6  20950296.381 0  20950298.367 0
   9742438.321 6  63333772.714 6  23241712.941 0  23241716.817 0
 88  2 29 11 36 59.0800000  0  2  3 13
 -16520795.176 7  71553996.864 6  20948872.963 0  20948873.906 0
   9793674.416 7  63373696.912 6  23251463.005 0  23251466.218 0
 88  2 29 11 37 29.0800000  0  2  3 13
 -16528109.888 7  71548297.094 6  20947480.795 0  20947483.588 0
   9845028.607 7  63413713.162 6  23261236.566 0  23261238.370 0
 88  2 29 11 37 59.0800000  0  2  3 13
 -16535259.188 7  71542726.207 7  20946120.506 0  20946121.831 0
   9896500.836 7  63453821.383 7  23271030.701 0  23271033.009 0
 88  2 29 11 38 29.0800000  0  2  3 13
 -16542241.727 7  71537285.274 6  20944792.157 0  20944794.756 0
   9948092.944 7  63494023.025 6  23280848.353 0  23280850.241 0
 88  2 29 11 38 59.0800000  0  2  3 13
 -16549056.678 7  71531974.911 6  20943494.197 0  20943497.067 0
   9999804.674 7  63534317.872 6  23290689.647 0  23290691.719 0
 88  2 29 11 39 29.0800000  0  2  3 13
 -16555703.573 7  71526795.516 6  20942230.136 0  20942230.962 0
  10051636.693 6  63574706.442 6  23300552.097 0  23300554.530 0
 88  2 29 11 39 59.0800000  0  2  3 13
 -16562180.891 7  71521748.269 6  20940997.596 0  20941000.432 0
  10103590.293 7  63615189.751 6  23310438.157 0  23310441.567 0
 88  2 29 11 40 29.0800000  0  2  3 13
 -16568487.179 7  71516834.271 6  20939797.781 0  20939800.304 0
  10155665.917 7  63655768.146 6  23320349.018 0  23320352.480 0
 88  2 29 11 40 59.0800000  0  2  3 13
 -16574621.159 7  71512054.556 6  20938630.068 0  20938631.840 0
  10207864.506 7  63696442.364 6  23330282.229 0  23330283.603 0
 88  2 29 11 41 29.0800000  0  2  3 13
 -16580581.621 7  71507410.040 6  20937495.489 0  20937496.413 0
  10260186.726 7  63737212.903 6  23340235.885 0  23340239.984 0
 88  2 29 11 41 59.0800000  0  2  3 13
 -16586367.886 7  71502901.256 6  20936394.686 0  20936396.290 0
  10312632.923 7  63778080.042 6  23350218.125 0  23350219.817 0
 88  2 29 11 42 29.0800000  0  2  3 13
 -16591978.807 7  71498529.113 7  20935327.653 0  20935329.077 0
  10365204.108 7  63819044.582 7  23360221.871 0  23360225.490 0
 88  2 29 11 42 59.0800000  0  2  3 13
 -16597413.497 7  71494294.285 7  20934292.734 0  20934294.935 0
  10417900.684 6  63860106.843 6  23370249.438 0  23370253.056 0
 88  2 29 11 43 29.0800000  0  2  3 13
 -16602670.757 7  71490197.727 6  20933292.572 0  20933294.501 0
  10470723.205 7  63901267.256 6  23380301.645 0  23380304.186 0
 88  2 29 11 43 59.0800000  0  2  3 13
 -16607749.358 7  71486240.375 6  20932326.114 0  20932327.969 0
  10523672.726 7  63942526.585 6  23390377.434 0  23390381.945 0
 88  2 29 11 44 29.0800000  0  2  3 13
 -16612647.907 8  71482423.319 6  20931394.441 0  20931395.421 0
  10576750.031 7  63983885.540 7  23400479.231 0  23400480.319 0
 88  2 29 11 44 59.0800000  0  2  3 13
 -16617365.305 7  71478747.432 6  20930496.222 0  20930497.232 0
  10629955.864 7  64025344.615 6  23410601.364 0  23410605.054 0
 88  2 29 11 45 29.0800000  0  2  3 13
 -16621900.890 7  71475213.213 6  20929633.307 0  20929634.826 0
  10683291.118 7  64066904.549 7  23420751.645 0  23420755.547 0
 88  2 29 11 45 59.0800000  0  2  3 13
 -16626252.843 7  71471822.085 6  20928805.135 0  20928806.842 0
  10736755.999 7  64108565.478 6  23430926.380 0  23430928.273 0
 88  2 29 11 46 29.0800000  0  2  3 13
 -16630420.171 7  71468574.818 6  20928012.593 0  20928012.723 0
  10790350.611 7  64150327.503 7  23441125.627 0  23441127.301 0
 88  2 29 11 46 59.0800000  0  2  3 13
 -16634402.056 7  71465472.052 6  20927253.542 0  20927255.836 0
  10844075.839 6  64192191.319 6  23451348.578 0  23451349.852 0
 88  2 29 11 47 29.0800000  0  2  3 13
 -16638197.104 8  71462514.862 6  20926532.370 0  20926534.325 0
  10897933.084 7  64234157.984 6  23461597.887 0  23461598.771 0
 88  2 29 11 47 59.0800000  0  2  3 13
 -16641803.920 7  71459704.351 6  20925846.242 0  20925847.091 0
  10951922.723 7  64276227.810 6  23471871.213 0  23471872.674 0
 88  2 29 11 48 29.0800000  0  2  3 13
 -16645221.608 8  71457041.230 7  20925195.349 0  20925196.289 0
  11006045.544 7  64318401.415 7  23482169.279 0  23482172.533 0
 88  2 29 11 48 59.0800000  0  2  3 13
 -16648448.737 8  71454526.576 6  20924581.115 0  20924582.249 0
  11060301.989 7  64360679.135 6  23492495.173 0  23492497.008 0
 88  2 29 11 49 29.0800000  0  2  3 13
 -16651484.389 7  71452161.149 6  20924004.025 0  20924005.146 0
  11114692.669 7  64403061.480 7  23502844.433 0  23502849.381 0
 88  2 29 11 49 59.0800000  0  2  3 13
 -16654327.244 7  71449945.925 7  20923462.178 0  20923462.986 0
  11169218.817 7  64445549.385 6  23513220.962 0  23513223.512 0
 88  2 29 11 50 29.0800000  0  2  3 13
 -16656975.922 7  71447882.033 6  20922959.010 0  20922959.455 0
  11223880.731 7  64488143.062 6  23523623.625 0  23523622.763 0
 88  2 29 11 50 59.0800000  0  2  3 13
 -16659429.594 7  71445970.077 6  20922492.045 0  20922492.815 0
  11278678.501 7  64530842.630 6  23534051.867 0  23534053.678 0
 88  2 29 11 51 29.0800000  0  2  3 13
 -16661686.245 7  71444211.643 6  20922061.802 0  20922062.959 0
  11333613.476 7  64573649.098 6  23544505.934 0  23544507.940 0
 88  2 29 11 51 59.0800000  0  2  3 13
 -16663744.915 7  71442607.489 6  20921670.991 0  20921672.510 0
  11388686.651 6  64616563.259 6  23554983.747 0  23554987.807 0
 88  2 29 11 52 29.0800000  0  2  3 13
 -16665604.876 7  71441158.166 6  20921317.529 0  20921318.957 0
  11443898.190 7  64659585.220 6  23565490.521 0  23565493.114 0
 88  2 29 11 52 59.0800000  0  2  3 13
 -16667264.332 8  71439865.086 6  20921000.613 0  20921002.724 0
  11499248.505 7  64702715.333 6  23576022.830 0  23576025.480 0
 88  2 29 11 53 29.0800000  0  2  3 13
 -16668722.632 7  71438728.747 6  20920723.993 0  20920723.748 0
  11554738.131 7  64745954.004 7  23586583.216 0  23586586.957 0
 88  2 29 11 53 59.0800000  0  2  3 13
 -16669977.850 7  71437750.652 6  20920484.457 0  20920485.176 0
  11610368.304 7  64789302.179 6  23597169.126 0  23597171.425 0
 88  2 29 11 54 29.0800000  0  2  3 13
 -16671028.999 7  71436931.568 6  20920283.927 0  20920285.539 0
  11666139.677 7  64832760.395 6  23607783.480 0  23607783.856 0
 88  2 29 11 54 59.0800000  0  2  3 13
 -16671875.001 6  71436272.355 7  20920123.664 0  20920125.299 0
  11722052.683 7  64876328.948 6  23618422.494 0  23618423.219 0
 88  2 29 11 55 29.0800000  0  2  3 13
 -16672514.584 7  71435773.978 6  20920001.764 0  20920002.603 0
  11778107.933 7  64920008.325 7  23629088.990 0  23629091.329 0
